<?xml version="1.0" encoding="UTF-8" standalone="no" ?>
<gpx xmlns="http://www.topografix.com/GPX/1/1" xmlns:xsi="http://www.w3.org/2001/XMLSchema-instance" xsi:schemaLocation="http://www.topografix.com/GPX/1/1 http://www.topografix.com/GPX/1/1/gpx.xsd" version="1.1" creator="VisuGPX - https://www.visugpx.com">
  <metadata>
    <name>mont chauve</name>
    <desc><![CDATA[Beaucoup de pluie! Avec Seb et Vincent]]></desc>
  </metadata>
  <trk>
    <name><![CDATA[Mont chauve]]></name>
    <cmt><![CDATA[avec Seb et Vincent H]]></cmt>
    <trkseg>
      <trkpt lat="43.74301" lon="7.25902">
        <ele>343.04772949219</ele>
        <time>2014-01-18T09:28:43Z</time>
      </trkpt>
      <trkpt lat="43.74301" lon="7.25901">
        <ele>343.181640625</ele>
        <time>2014-01-18T09:28:44Z</time>
      </trkpt>
      <trkpt lat="43.743" lon="7.25896">
        <ele>343.65539550781</ele>
        <time>2014-01-18T09:28:48Z</time>
      </trkpt>
      <trkpt lat="43.74298" lon="7.25892">
        <ele>343.8356628418</ele>
        <time>2014-01-18T09:28:50Z</time>
      </trkpt>
      <trkpt lat="43.74289" lon="7.25881">
        <ele>343.85433959961</ele>
        <time>2014-01-18T09:28:55Z</time>
      </trkpt>
      <trkpt lat="43.74279" lon="7.25874">
        <ele>343.29348754883</ele>
        <time>2014-01-18T09:29:01Z</time>
      </trkpt>
      <trkpt lat="43.74273" lon="7.2587">
        <ele>342.75802612305</ele>
        <time>2014-01-18T09:29:04Z</time>
      </trkpt>
      <trkpt lat="43.7426" lon="7.25862">
        <ele>341.40884399414</ele>
        <time>2014-01-18T09:29:11Z</time>
      </trkpt>
      <trkpt lat="43.74248" lon="7.25856">
        <ele>340.16525268555</ele>
        <time>2014-01-18T09:29:17Z</time>
      </trkpt>
      <trkpt lat="43.74242" lon="7.25848">
        <ele>339.62966918945</ele>
        <time>2014-01-18T09:29:21Z</time>
      </trkpt>
      <trkpt lat="43.74236" lon="7.2584">
        <ele>339.26916503906</ele>
        <time>2014-01-18T09:29:26Z</time>
      </trkpt>
      <trkpt lat="43.7423" lon="7.2583">
        <ele>339.00653076172</ele>
        <time>2014-01-18T09:29:31Z</time>
      </trkpt>
      <trkpt lat="43.74222" lon="7.25819">
        <ele>338.49609375</ele>
        <time>2014-01-18T09:29:37Z</time>
      </trkpt>
      <trkpt lat="43.74213" lon="7.25809">
        <ele>338.34503173828</ele>
        <time>2014-01-18T09:29:42Z</time>
      </trkpt>
      <trkpt lat="43.74205" lon="7.25799">
        <ele>338.13934326172</ele>
        <time>2014-01-18T09:29:47Z</time>
      </trkpt>
      <trkpt lat="43.74198" lon="7.25788">
        <ele>337.84744262695</ele>
        <time>2014-01-18T09:29:52Z</time>
      </trkpt>
      <trkpt lat="43.74193" lon="7.25776">
        <ele>337.95425415039</ele>
        <time>2014-01-18T09:29:57Z</time>
      </trkpt>
      <trkpt lat="43.74189" lon="7.25763">
        <ele>339.19708251953</ele>
        <time>2014-01-18T09:30:02Z</time>
      </trkpt>
      <trkpt lat="43.74186" lon="7.25752">
        <ele>340.30944824219</ele>
        <time>2014-01-18T09:30:07Z</time>
      </trkpt>
      <trkpt lat="43.7419" lon="7.25747">
        <ele>341.66500854492</ele>
        <time>2014-01-18T09:30:12Z</time>
      </trkpt>
      <trkpt lat="43.74194" lon="7.25742">
        <ele>343.06466674805</ele>
        <time>2014-01-18T09:30:16Z</time>
      </trkpt>
      <trkpt lat="43.74196" lon="7.25735">
        <ele>344.28277587891</ele>
        <time>2014-01-18T09:30:20Z</time>
      </trkpt>
      <trkpt lat="43.74203" lon="7.2572">
        <ele>347.07257080078</ele>
        <time>2014-01-18T09:30:27Z</time>
      </trkpt>
      <trkpt lat="43.74206" lon="7.25712">
        <ele>348.1471862793</ele>
        <time>2014-01-18T09:30:31Z</time>
      </trkpt>
      <trkpt lat="43.74211" lon="7.25701">
        <ele>349.71395874023</ele>
        <time>2014-01-18T09:30:36Z</time>
      </trkpt>
      <trkpt lat="43.74215" lon="7.25692">
        <ele>351.2785949707</ele>
        <time>2014-01-18T09:30:40Z</time>
      </trkpt>
      <trkpt lat="43.74223" lon="7.2568">
        <ele>353.60430908203</ele>
        <time>2014-01-18T09:30:46Z</time>
      </trkpt>
      <trkpt lat="43.74228" lon="7.25677">
        <ele>354.91580200195</ele>
        <time>2014-01-18T09:30:50Z</time>
      </trkpt>
      <trkpt lat="43.74234" lon="7.25674">
        <ele>356.30627441406</ele>
        <time>2014-01-18T09:30:54Z</time>
      </trkpt>
      <trkpt lat="43.74237" lon="7.25672">
        <ele>357.14224243164</ele>
        <time>2014-01-18T09:30:56Z</time>
      </trkpt>
      <trkpt lat="43.7424" lon="7.25667">
        <ele>358.30261230469</ele>
        <time>2014-01-18T09:30:59Z</time>
      </trkpt>
      <trkpt lat="43.74252" lon="7.25654">
        <ele>361.76931762695</ele>
        <time>2014-01-18T09:31:06Z</time>
      </trkpt>
      <trkpt lat="43.74262" lon="7.25642">
        <ele>364.43106079102</ele>
        <time>2014-01-18T09:31:12Z</time>
      </trkpt>
      <trkpt lat="43.74268" lon="7.25638">
        <ele>365.6884765625</ele>
        <time>2014-01-18T09:31:16Z</time>
      </trkpt>
      <trkpt lat="43.74277" lon="7.25632">
        <ele>367.4560546875</ele>
        <time>2014-01-18T09:31:22Z</time>
      </trkpt>
      <trkpt lat="43.74283" lon="7.25619">
        <ele>369.58688354492</ele>
        <time>2014-01-18T09:31:27Z</time>
      </trkpt>
      <trkpt lat="43.74289" lon="7.25617">
        <ele>370.87896728516</ele>
        <time>2014-01-18T09:31:30Z</time>
      </trkpt>
      <trkpt lat="43.74298" lon="7.25624">
        <ele>372.16067504883</ele>
        <time>2014-01-18T09:31:35Z</time>
      </trkpt>
      <trkpt lat="43.7431" lon="7.25626">
        <ele>374.05657958984</ele>
        <time>2014-01-18T09:31:40Z</time>
      </trkpt>
      <trkpt lat="43.74321" lon="7.25624">
        <ele>376.13592529297</ele>
        <time>2014-01-18T09:31:44Z</time>
      </trkpt>
      <trkpt lat="43.74327" lon="7.25628">
        <ele>376.62850952148</ele>
        <time>2014-01-18T09:31:47Z</time>
      </trkpt>
      <trkpt lat="43.74328" lon="7.25643">
        <ele>374.978515625</ele>
        <time>2014-01-18T09:31:52Z</time>
      </trkpt>
      <trkpt lat="43.74333" lon="7.25647">
        <ele>375.36822509766</ele>
        <time>2014-01-18T09:31:55Z</time>
      </trkpt>
      <trkpt lat="43.74335" lon="7.25647">
        <ele>375.71673583984</ele>
        <time>2014-01-18T09:31:56Z</time>
      </trkpt>
      <trkpt lat="43.74346" lon="7.25652">
        <ele>376.89434814453</ele>
        <time>2014-01-18T09:32:01Z</time>
      </trkpt>
      <trkpt lat="43.7436" lon="7.25654">
        <ele>378.65902709961</ele>
        <time>2014-01-18T09:32:07Z</time>
      </trkpt>
      <trkpt lat="43.74369" lon="7.25654">
        <ele>380.37646484375</ele>
        <time>2014-01-18T09:32:11Z</time>
      </trkpt>
      <trkpt lat="43.7438" lon="7.25655">
        <ele>382.30935668945</ele>
        <time>2014-01-18T09:32:16Z</time>
      </trkpt>
      <trkpt lat="43.74391" lon="7.25654">
        <ele>384.35845947266</ele>
        <time>2014-01-18T09:32:20Z</time>
      </trkpt>
      <trkpt lat="43.74401" lon="7.25647">
        <ele>387.10623168945</ele>
        <time>2014-01-18T09:32:25Z</time>
      </trkpt>
      <trkpt lat="43.74413" lon="7.25643">
        <ele>390.09844970703</ele>
        <time>2014-01-18T09:32:31Z</time>
      </trkpt>
      <trkpt lat="43.74428" lon="7.25643">
        <ele>392.52267456055</ele>
        <time>2014-01-18T09:32:38Z</time>
      </trkpt>
      <trkpt lat="43.7444" lon="7.25644">
        <ele>394.23928833008</ele>
        <time>2014-01-18T09:32:43Z</time>
      </trkpt>
      <trkpt lat="43.74451" lon="7.25645">
        <ele>395.26617431641</ele>
        <time>2014-01-18T09:32:48Z</time>
      </trkpt>
      <trkpt lat="43.74453" lon="7.25645">
        <ele>395.43548583984</ele>
        <time>2014-01-18T09:32:49Z</time>
      </trkpt>
      <trkpt lat="43.74464" lon="7.25635">
        <ele>396.59158325195</ele>
        <time>2014-01-18T09:32:55Z</time>
      </trkpt>
      <trkpt lat="43.74472" lon="7.25633">
        <ele>397.22448730469</ele>
        <time>2014-01-18T09:32:59Z</time>
      </trkpt>
      <trkpt lat="43.74477" lon="7.25632">
        <ele>397.39099121094</ele>
        <time>2014-01-18T09:33:01Z</time>
      </trkpt>
      <trkpt lat="43.74486" lon="7.25623">
        <ele>398.08966064453</ele>
        <time>2014-01-18T09:33:06Z</time>
      </trkpt>
      <trkpt lat="43.74488" lon="7.25621">
        <ele>398.22012329102</ele>
        <time>2014-01-18T09:33:07Z</time>
      </trkpt>
      <trkpt lat="43.74501" lon="7.25614">
        <ele>398.89093017578</ele>
        <time>2014-01-18T09:33:13Z</time>
      </trkpt>
      <trkpt lat="43.74514" lon="7.25619">
        <ele>398.85952758789</ele>
        <time>2014-01-18T09:33:19Z</time>
      </trkpt>
      <trkpt lat="43.74525" lon="7.25619">
        <ele>398.96734619141</ele>
        <time>2014-01-18T09:33:24Z</time>
      </trkpt>
      <trkpt lat="43.74529" lon="7.25618">
        <ele>399.00686645508</ele>
        <time>2014-01-18T09:33:26Z</time>
      </trkpt>
      <trkpt lat="43.74542" lon="7.25618">
        <ele>399.12707519531</ele>
        <time>2014-01-18T09:33:32Z</time>
      </trkpt>
      <trkpt lat="43.74544" lon="7.25619">
        <ele>399.17193603516</ele>
        <time>2014-01-18T09:33:33Z</time>
      </trkpt>
      <trkpt lat="43.74553" lon="7.25627">
        <ele>399.51123046875</ele>
        <time>2014-01-18T09:33:38Z</time>
      </trkpt>
      <trkpt lat="43.74556" lon="7.25627">
        <ele>399.60470581055</ele>
        <time>2014-01-18T09:33:40Z</time>
      </trkpt>
      <trkpt lat="43.74563" lon="7.25621">
        <ele>399.53131103516</ele>
        <time>2014-01-18T09:33:46Z</time>
      </trkpt>
      <trkpt lat="43.74571" lon="7.25609">
        <ele>398.92459106445</ele>
        <time>2014-01-18T09:33:52Z</time>
      </trkpt>
      <trkpt lat="43.74575" lon="7.25607">
        <ele>398.84390258789</ele>
        <time>2014-01-18T09:33:54Z</time>
      </trkpt>
      <trkpt lat="43.74586" lon="7.25602">
        <ele>398.5397644043</ele>
        <time>2014-01-18T09:34:00Z</time>
      </trkpt>
      <trkpt lat="43.74596" lon="7.256">
        <ele>397.93130493164</ele>
        <time>2014-01-18T09:34:05Z</time>
      </trkpt>
      <trkpt lat="43.74609" lon="7.25597">
        <ele>397.14590454102</ele>
        <time>2014-01-18T09:34:11Z</time>
      </trkpt>
      <trkpt lat="43.74616" lon="7.25597">
        <ele>396.90087890625</ele>
        <time>2014-01-18T09:34:15Z</time>
      </trkpt>
      <trkpt lat="43.74627" lon="7.25594">
        <ele>396.46054077148</ele>
        <time>2014-01-18T09:34:21Z</time>
      </trkpt>
      <trkpt lat="43.74639" lon="7.2559">
        <ele>395.7331237793</ele>
        <time>2014-01-18T09:34:27Z</time>
      </trkpt>
      <trkpt lat="43.74643" lon="7.2559">
        <ele>395.90536499023</ele>
        <time>2014-01-18T09:34:29Z</time>
      </trkpt>
      <trkpt lat="43.74647" lon="7.25587">
        <ele>395.77593994141</ele>
        <time>2014-01-18T09:34:31Z</time>
      </trkpt>
      <trkpt lat="43.74661" lon="7.25583">
        <ele>395.74166870117</ele>
        <time>2014-01-18T09:34:37Z</time>
      </trkpt>
      <trkpt lat="43.7467" lon="7.25577">
        <ele>395.36456298828</ele>
        <time>2014-01-18T09:34:41Z</time>
      </trkpt>
      <trkpt lat="43.74672" lon="7.25575">
        <ele>395.14828491211</ele>
        <time>2014-01-18T09:34:42Z</time>
      </trkpt>
      <trkpt lat="43.74683" lon="7.25566">
        <ele>394.09771728516</ele>
        <time>2014-01-18T09:34:47Z</time>
      </trkpt>
      <trkpt lat="43.7469" lon="7.25563">
        <ele>393.77328491211</ele>
        <time>2014-01-18T09:34:50Z</time>
      </trkpt>
      <trkpt lat="43.74701" lon="7.25561">
        <ele>393.98086547852</ele>
        <time>2014-01-18T09:34:54Z</time>
      </trkpt>
      <trkpt lat="43.74713" lon="7.25566">
        <ele>395.44342041016</ele>
        <time>2014-01-18T09:34:59Z</time>
      </trkpt>
      <trkpt lat="43.74716" lon="7.25567">
        <ele>395.72323608398</ele>
        <time>2014-01-18T09:35:00Z</time>
      </trkpt>
      <trkpt lat="43.74725" lon="7.25569">
        <ele>396.40670776367</ele>
        <time>2014-01-18T09:35:04Z</time>
      </trkpt>
      <trkpt lat="43.7474" lon="7.25573">
        <ele>396.93713378906</ele>
        <time>2014-01-18T09:35:11Z</time>
      </trkpt>
      <trkpt lat="43.74742" lon="7.25574">
        <ele>397.0246887207</ele>
        <time>2014-01-18T09:35:12Z</time>
      </trkpt>
      <trkpt lat="43.74746" lon="7.25574">
        <ele>396.97833251953</ele>
        <time>2014-01-18T09:35:14Z</time>
      </trkpt>
      <trkpt lat="43.74754" lon="7.25572">
        <ele>396.96630859375</ele>
        <time>2014-01-18T09:35:18Z</time>
      </trkpt>
      <trkpt lat="43.74767" lon="7.25572">
        <ele>397.8254699707</ele>
        <time>2014-01-18T09:35:24Z</time>
      </trkpt>
      <trkpt lat="43.74782" lon="7.25571">
        <ele>398.55654907227</ele>
        <time>2014-01-18T09:35:30Z</time>
      </trkpt>
      <trkpt lat="43.74794" lon="7.25569">
        <ele>399.13333129883</ele>
        <time>2014-01-18T09:35:35Z</time>
      </trkpt>
      <trkpt lat="43.74801" lon="7.25571">
        <ele>399.84744262695</ele>
        <time>2014-01-18T09:35:38Z</time>
      </trkpt>
      <trkpt lat="43.74814" lon="7.25566">
        <ele>400.27276611328</ele>
        <time>2014-01-18T09:35:44Z</time>
      </trkpt>
      <trkpt lat="43.74822" lon="7.2557">
        <ele>401.49740600586</ele>
        <time>2014-01-18T09:35:48Z</time>
      </trkpt>
      <trkpt lat="43.74824" lon="7.2557">
        <ele>401.76544189453</ele>
        <time>2014-01-18T09:35:49Z</time>
      </trkpt>
      <trkpt lat="43.7483" lon="7.25569">
        <ele>402.07849121094</ele>
        <time>2014-01-18T09:35:52Z</time>
      </trkpt>
      <trkpt lat="43.74842" lon="7.25567">
        <ele>402.56649780273</ele>
        <time>2014-01-18T09:35:57Z</time>
      </trkpt>
      <trkpt lat="43.74854" lon="7.25564">
        <ele>402.77743530273</ele>
        <time>2014-01-18T09:36:02Z</time>
      </trkpt>
      <trkpt lat="43.74866" lon="7.25562">
        <ele>403.01995849609</ele>
        <time>2014-01-18T09:36:07Z</time>
      </trkpt>
      <trkpt lat="43.74875" lon="7.25564">
        <ele>403.41003417969</ele>
        <time>2014-01-18T09:36:11Z</time>
      </trkpt>
      <trkpt lat="43.74881" lon="7.25567">
        <ele>404.00057983398</ele>
        <time>2014-01-18T09:36:14Z</time>
      </trkpt>
      <trkpt lat="43.74888" lon="7.25568">
        <ele>404.17108154297</ele>
        <time>2014-01-18T09:36:17Z</time>
      </trkpt>
      <trkpt lat="43.749" lon="7.25564">
        <ele>403.67987060547</ele>
        <time>2014-01-18T09:36:23Z</time>
      </trkpt>
      <trkpt lat="43.7491" lon="7.25561">
        <ele>403.08898925781</ele>
        <time>2014-01-18T09:36:27Z</time>
      </trkpt>
      <trkpt lat="43.74921" lon="7.25559">
        <ele>403.59710693359</ele>
        <time>2014-01-18T09:36:32Z</time>
      </trkpt>
      <trkpt lat="43.74925" lon="7.25558">
        <ele>404.03179931641</ele>
        <time>2014-01-18T09:36:34Z</time>
      </trkpt>
      <trkpt lat="43.74932" lon="7.25558">
        <ele>405.34927368164</ele>
        <time>2014-01-18T09:36:37Z</time>
      </trkpt>
      <trkpt lat="43.74941" lon="7.25554">
        <ele>406.07498168945</ele>
        <time>2014-01-18T09:36:42Z</time>
      </trkpt>
      <trkpt lat="43.74947" lon="7.25559">
        <ele>407.89099121094</ele>
        <time>2014-01-18T09:36:46Z</time>
      </trkpt>
      <trkpt lat="43.7495" lon="7.25558">
        <ele>408.07809448242</ele>
        <time>2014-01-18T09:36:47Z</time>
      </trkpt>
      <trkpt lat="43.74956" lon="7.25557">
        <ele>408.50381469727</ele>
        <time>2014-01-18T09:36:50Z</time>
      </trkpt>
      <trkpt lat="43.74966" lon="7.2555">
        <ele>407.75991821289</ele>
        <time>2014-01-18T09:36:55Z</time>
      </trkpt>
      <trkpt lat="43.74974" lon="7.25551">
        <ele>408.81988525391</ele>
        <time>2014-01-18T09:36:59Z</time>
      </trkpt>
      <trkpt lat="43.74978" lon="7.25551">
        <ele>408.73831176758</ele>
        <time>2014-01-18T09:37:01Z</time>
      </trkpt>
      <trkpt lat="43.74987" lon="7.25547">
        <ele>408.0451965332</ele>
        <time>2014-01-18T09:37:05Z</time>
      </trkpt>
      <trkpt lat="43.74994" lon="7.2555">
        <ele>408.97808837891</ele>
        <time>2014-01-18T09:37:08Z</time>
      </trkpt>
      <trkpt lat="43.75002" lon="7.25547">
        <ele>408.412109375</ele>
        <time>2014-01-18T09:37:12Z</time>
      </trkpt>
      <trkpt lat="43.75014" lon="7.25541">
        <ele>408.7526550293</ele>
        <time>2014-01-18T09:37:18Z</time>
      </trkpt>
      <trkpt lat="43.75017" lon="7.2554">
        <ele>408.80731201172</ele>
        <time>2014-01-18T09:37:19Z</time>
      </trkpt>
      <trkpt lat="43.75034" lon="7.25536">
        <ele>410.74871826172</ele>
        <time>2014-01-18T09:37:26Z</time>
      </trkpt>
      <trkpt lat="43.75046" lon="7.25533">
        <ele>413.02838134766</ele>
        <time>2014-01-18T09:37:31Z</time>
      </trkpt>
      <trkpt lat="43.75053" lon="7.25529">
        <ele>413.8935546875</ele>
        <time>2014-01-18T09:37:35Z</time>
      </trkpt>
      <trkpt lat="43.75065" lon="7.25527">
        <ele>414.82235717773</ele>
        <time>2014-01-18T09:37:40Z</time>
      </trkpt>
      <trkpt lat="43.75074" lon="7.25528">
        <ele>416.00622558594</ele>
        <time>2014-01-18T09:37:44Z</time>
      </trkpt>
      <trkpt lat="43.75087" lon="7.25527">
        <ele>417.79452514648</ele>
        <time>2014-01-18T09:37:49Z</time>
      </trkpt>
      <trkpt lat="43.75095" lon="7.25524">
        <ele>419.50375366211</ele>
        <time>2014-01-18T09:37:53Z</time>
      </trkpt>
      <trkpt lat="43.75107" lon="7.25517">
        <ele>421.71496582031</ele>
        <time>2014-01-18T09:37:59Z</time>
      </trkpt>
      <trkpt lat="43.75111" lon="7.25512">
        <ele>422.1330871582</ele>
        <time>2014-01-18T09:38:02Z</time>
      </trkpt>
      <trkpt lat="43.75113" lon="7.25502">
        <ele>420.82601928711</ele>
        <time>2014-01-18T09:38:05Z</time>
      </trkpt>
      <trkpt lat="43.75117" lon="7.2549">
        <ele>419.80703735352</ele>
        <time>2014-01-18T09:38:09Z</time>
      </trkpt>
      <trkpt lat="43.75124" lon="7.25472">
        <ele>419.15100097656</ele>
        <time>2014-01-18T09:38:15Z</time>
      </trkpt>
      <trkpt lat="43.75131" lon="7.25454">
        <ele>419.0146484375</ele>
        <time>2014-01-18T09:38:21Z</time>
      </trkpt>
      <trkpt lat="43.75137" lon="7.25441">
        <ele>419.34698486328</ele>
        <time>2014-01-18T09:38:26Z</time>
      </trkpt>
      <trkpt lat="43.75142" lon="7.25433">
        <ele>419.60061645508</ele>
        <time>2014-01-18T09:38:29Z</time>
      </trkpt>
      <trkpt lat="43.75148" lon="7.25423">
        <ele>419.23989868164</ele>
        <time>2014-01-18T09:38:33Z</time>
      </trkpt>
      <trkpt lat="43.75157" lon="7.25405">
        <ele>419.28845214844</ele>
        <time>2014-01-18T09:38:39Z</time>
      </trkpt>
      <trkpt lat="43.75164" lon="7.25391">
        <ele>419.81030273438</ele>
        <time>2014-01-18T09:38:44Z</time>
      </trkpt>
      <trkpt lat="43.75172" lon="7.2538">
        <ele>420.08291625977</ele>
        <time>2014-01-18T09:38:49Z</time>
      </trkpt>
      <trkpt lat="43.75174" lon="7.25377">
        <ele>420.12460327148</ele>
        <time>2014-01-18T09:38:50Z</time>
      </trkpt>
      <trkpt lat="43.75183" lon="7.25367">
        <ele>420.06390380859</ele>
        <time>2014-01-18T09:38:56Z</time>
      </trkpt>
      <trkpt lat="43.7519" lon="7.25362">
        <ele>419.90692138672</ele>
        <time>2014-01-18T09:39:00Z</time>
      </trkpt>
      <trkpt lat="43.75196" lon="7.25357">
        <ele>420.26724243164</ele>
        <time>2014-01-18T09:39:03Z</time>
      </trkpt>
      <trkpt lat="43.7521" lon="7.2535">
        <ele>422.09884643555</ele>
        <time>2014-01-18T09:39:11Z</time>
      </trkpt>
      <trkpt lat="43.75216" lon="7.25347">
        <ele>422.69384765625</ele>
        <time>2014-01-18T09:39:14Z</time>
      </trkpt>
      <trkpt lat="43.75224" lon="7.25345">
        <ele>423.41815185547</ele>
        <time>2014-01-18T09:39:18Z</time>
      </trkpt>
      <trkpt lat="43.75228" lon="7.25342">
        <ele>423.69281005859</ele>
        <time>2014-01-18T09:39:22Z</time>
      </trkpt>
      <trkpt lat="43.7523" lon="7.25332">
        <ele>423.05682373047</ele>
        <time>2014-01-18T09:39:26Z</time>
      </trkpt>
      <trkpt lat="43.75235" lon="7.25321">
        <ele>422.92977905273</ele>
        <time>2014-01-18T09:39:30Z</time>
      </trkpt>
      <trkpt lat="43.75241" lon="7.25312">
        <ele>423.14950561523</ele>
        <time>2014-01-18T09:39:35Z</time>
      </trkpt>
      <trkpt lat="43.75243" lon="7.25306">
        <ele>422.99844360352</ele>
        <time>2014-01-18T09:39:37Z</time>
      </trkpt>
      <trkpt lat="43.75249" lon="7.25295">
        <ele>423.88259887695</ele>
        <time>2014-01-18T09:39:41Z</time>
      </trkpt>
      <trkpt lat="43.75258" lon="7.25297">
        <ele>424.89154052734</ele>
        <time>2014-01-18T09:39:45Z</time>
      </trkpt>
      <trkpt lat="43.75271" lon="7.25304">
        <ele>426.29229736328</ele>
        <time>2014-01-18T09:39:51Z</time>
      </trkpt>
      <trkpt lat="43.75282" lon="7.25308">
        <ele>427.64511108398</ele>
        <time>2014-01-18T09:39:56Z</time>
      </trkpt>
      <trkpt lat="43.75284" lon="7.25309">
        <ele>427.96096801758</ele>
        <time>2014-01-18T09:39:57Z</time>
      </trkpt>
      <trkpt lat="43.75298" lon="7.25311">
        <ele>429.49560546875</ele>
        <time>2014-01-18T09:40:02Z</time>
      </trkpt>
      <trkpt lat="43.75302" lon="7.25313">
        <ele>430.10675048828</ele>
        <time>2014-01-18T09:40:04Z</time>
      </trkpt>
      <trkpt lat="43.75315" lon="7.2531">
        <ele>431.27404785156</ele>
        <time>2014-01-18T09:40:09Z</time>
      </trkpt>
      <trkpt lat="43.75324" lon="7.25305">
        <ele>431.9709777832</ele>
        <time>2014-01-18T09:40:13Z</time>
      </trkpt>
      <trkpt lat="43.75337" lon="7.25301">
        <ele>433.19830322266</ele>
        <time>2014-01-18T09:40:18Z</time>
      </trkpt>
      <trkpt lat="43.75342" lon="7.25302">
        <ele>433.82141113281</ele>
        <time>2014-01-18T09:40:20Z</time>
      </trkpt>
      <trkpt lat="43.75346" lon="7.25304">
        <ele>434.26776123047</ele>
        <time>2014-01-18T09:40:25Z</time>
      </trkpt>
      <trkpt lat="43.75346" lon="7.25304">
        <ele>434.28149414062</ele>
        <time>2014-01-18T09:40:29Z</time>
      </trkpt>
      <trkpt lat="43.75351" lon="7.25301">
        <ele>434.77587890625</ele>
        <time>2014-01-18T09:40:33Z</time>
      </trkpt>
      <trkpt lat="43.75365" lon="7.25294">
        <ele>435.86254882812</ele>
        <time>2014-01-18T09:40:39Z</time>
      </trkpt>
      <trkpt lat="43.75371" lon="7.25288">
        <ele>436.06512451172</ele>
        <time>2014-01-18T09:40:42Z</time>
      </trkpt>
      <trkpt lat="43.75377" lon="7.2527">
        <ele>436.23913574219</ele>
        <time>2014-01-18T09:40:47Z</time>
      </trkpt>
      <trkpt lat="43.75386" lon="7.25255">
        <ele>436.88064575195</ele>
        <time>2014-01-18T09:40:52Z</time>
      </trkpt>
      <trkpt lat="43.75394" lon="7.25246">
        <ele>437.27972412109</ele>
        <time>2014-01-18T09:40:57Z</time>
      </trkpt>
      <trkpt lat="43.75402" lon="7.25237">
        <ele>437.4983215332</ele>
        <time>2014-01-18T09:41:01Z</time>
      </trkpt>
      <trkpt lat="43.75414" lon="7.25229">
        <ele>437.28070068359</ele>
        <time>2014-01-18T09:41:06Z</time>
      </trkpt>
      <trkpt lat="43.75429" lon="7.25221">
        <ele>436.04287719727</ele>
        <time>2014-01-18T09:41:12Z</time>
      </trkpt>
      <trkpt lat="43.75441" lon="7.2522">
        <ele>435.15447998047</ele>
        <time>2014-01-18T09:41:16Z</time>
      </trkpt>
      <trkpt lat="43.75455" lon="7.25222">
        <ele>434.96157836914</ele>
        <time>2014-01-18T09:41:22Z</time>
      </trkpt>
      <trkpt lat="43.75466" lon="7.25223">
        <ele>435.07443237305</ele>
        <time>2014-01-18T09:41:26Z</time>
      </trkpt>
      <trkpt lat="43.75478" lon="7.25224">
        <ele>435.390625</ele>
        <time>2014-01-18T09:41:31Z</time>
      </trkpt>
      <trkpt lat="43.75489" lon="7.25224">
        <ele>435.81173706055</ele>
        <time>2014-01-18T09:41:35Z</time>
      </trkpt>
      <trkpt lat="43.75494" lon="7.25236">
        <ele>437.66458129883</ele>
        <time>2014-01-18T09:41:39Z</time>
      </trkpt>
      <trkpt lat="43.75493" lon="7.25246">
        <ele>438.92761230469</ele>
        <time>2014-01-18T09:41:42Z</time>
      </trkpt>
      <trkpt lat="43.75494" lon="7.25261">
        <ele>441.30865478516</ele>
        <time>2014-01-18T09:41:48Z</time>
      </trkpt>
      <trkpt lat="43.75487" lon="7.25271">
        <ele>441.68197631836</ele>
        <time>2014-01-18T09:41:55Z</time>
      </trkpt>
      <trkpt lat="43.7548" lon="7.25278">
        <ele>441.53704833984</ele>
        <time>2014-01-18T09:41:59Z</time>
      </trkpt>
      <trkpt lat="43.75473" lon="7.25289">
        <ele>442.63552856445</ele>
        <time>2014-01-18T09:42:03Z</time>
      </trkpt>
      <trkpt lat="43.75471" lon="7.25295">
        <ele>443.7311706543</ele>
        <time>2014-01-18T09:42:05Z</time>
      </trkpt>
      <trkpt lat="43.75465" lon="7.25302">
        <ele>444.67892456055</ele>
        <time>2014-01-18T09:42:09Z</time>
      </trkpt>
      <trkpt lat="43.75457" lon="7.25312">
        <ele>445.99719238281</ele>
        <time>2014-01-18T09:42:14Z</time>
      </trkpt>
      <trkpt lat="43.75451" lon="7.25319">
        <ele>446.51861572266</ele>
        <time>2014-01-18T09:42:17Z</time>
      </trkpt>
      <trkpt lat="43.75444" lon="7.25332">
        <ele>447.82022094727</ele>
        <time>2014-01-18T09:42:22Z</time>
      </trkpt>
      <trkpt lat="43.75435" lon="7.25345">
        <ele>449.47253417969</ele>
        <time>2014-01-18T09:42:28Z</time>
      </trkpt>
      <trkpt lat="43.75433" lon="7.25349">
        <ele>450.12954711914</ele>
        <time>2014-01-18T09:42:29Z</time>
      </trkpt>
      <trkpt lat="43.75423" lon="7.25362">
        <ele>451.47436523438</ele>
        <time>2014-01-18T09:42:35Z</time>
      </trkpt>
      <trkpt lat="43.75416" lon="7.25374">
        <ele>452.60009765625</ele>
        <time>2014-01-18T09:42:40Z</time>
      </trkpt>
      <trkpt lat="43.75408" lon="7.25386">
        <ele>453.64144897461</ele>
        <time>2014-01-18T09:42:45Z</time>
      </trkpt>
      <trkpt lat="43.75402" lon="7.25399">
        <ele>454.2024230957</ele>
        <time>2014-01-18T09:42:50Z</time>
      </trkpt>
      <trkpt lat="43.75396" lon="7.25409">
        <ele>454.35348510742</ele>
        <time>2014-01-18T09:42:54Z</time>
      </trkpt>
      <trkpt lat="43.7539" lon="7.2542">
        <ele>454.89489746094</ele>
        <time>2014-01-18T09:42:58Z</time>
      </trkpt>
      <trkpt lat="43.75384" lon="7.25431">
        <ele>456.22473144531</ele>
        <time>2014-01-18T09:43:02Z</time>
      </trkpt>
      <trkpt lat="43.75377" lon="7.25444">
        <ele>457.60339355469</ele>
        <time>2014-01-18T09:43:06Z</time>
      </trkpt>
      <trkpt lat="43.75368" lon="7.25456">
        <ele>458.25253295898</ele>
        <time>2014-01-18T09:43:11Z</time>
      </trkpt>
      <trkpt lat="43.75364" lon="7.25466">
        <ele>459.32763671875</ele>
        <time>2014-01-18T09:43:15Z</time>
      </trkpt>
      <trkpt lat="43.7536" lon="7.25479">
        <ele>460.33541870117</ele>
        <time>2014-01-18T09:43:19Z</time>
      </trkpt>
      <trkpt lat="43.75359" lon="7.25492">
        <ele>460.95562744141</ele>
        <time>2014-01-18T09:43:22Z</time>
      </trkpt>
      <trkpt lat="43.75358" lon="7.25495">
        <ele>460.98910522461</ele>
        <time>2014-01-18T09:43:23Z</time>
      </trkpt>
      <trkpt lat="43.75351" lon="7.25506">
        <ele>460.85357666016</ele>
        <time>2014-01-18T09:43:29Z</time>
      </trkpt>
      <trkpt lat="43.75344" lon="7.25517">
        <ele>461.12759399414</ele>
        <time>2014-01-18T09:43:35Z</time>
      </trkpt>
      <trkpt lat="43.75343" lon="7.25519">
        <ele>461.26626586914</ele>
        <time>2014-01-18T09:43:36Z</time>
      </trkpt>
      <trkpt lat="43.75344" lon="7.25521">
        <ele>461.77627563477</ele>
        <time>2014-01-18T09:43:39Z</time>
      </trkpt>
      <trkpt lat="43.75344" lon="7.25521">
        <ele>461.84112548828</ele>
        <time>2014-01-18T09:43:41Z</time>
      </trkpt>
      <trkpt lat="43.75342" lon="7.25531">
        <ele>463.04321289062</ele>
        <time>2014-01-18T09:43:45Z</time>
      </trkpt>
      <trkpt lat="43.75339" lon="7.25542">
        <ele>463.99078369141</ele>
        <time>2014-01-18T09:43:49Z</time>
      </trkpt>
      <trkpt lat="43.75335" lon="7.25554">
        <ele>465.08941650391</ele>
        <time>2014-01-18T09:43:54Z</time>
      </trkpt>
      <trkpt lat="43.75332" lon="7.25566">
        <ele>465.61846923828</ele>
        <time>2014-01-18T09:43:59Z</time>
      </trkpt>
      <trkpt lat="43.7533" lon="7.25571">
        <ele>465.70428466797</ele>
        <time>2014-01-18T09:44:01Z</time>
      </trkpt>
      <trkpt lat="43.7533" lon="7.25574">
        <ele>465.88626098633</ele>
        <time>2014-01-18T09:44:03Z</time>
      </trkpt>
      <trkpt lat="43.75327" lon="7.25584">
        <ele>466.14147949219</ele>
        <time>2014-01-18T09:44:09Z</time>
      </trkpt>
      <trkpt lat="43.75325" lon="7.25589">
        <ele>466.54885864258</ele>
        <time>2014-01-18T09:44:12Z</time>
      </trkpt>
      <trkpt lat="43.75324" lon="7.25594">
        <ele>466.9787902832</ele>
        <time>2014-01-18T09:44:14Z</time>
      </trkpt>
      <trkpt lat="43.75322" lon="7.25604">
        <ele>467.98818969727</ele>
        <time>2014-01-18T09:44:19Z</time>
      </trkpt>
      <trkpt lat="43.7532" lon="7.25609">
        <ele>468.35000610352</ele>
        <time>2014-01-18T09:44:21Z</time>
      </trkpt>
      <trkpt lat="43.75319" lon="7.25619">
        <ele>469.26971435547</ele>
        <time>2014-01-18T09:44:26Z</time>
      </trkpt>
      <trkpt lat="43.75316" lon="7.25632">
        <ele>470.48553466797</ele>
        <time>2014-01-18T09:44:32Z</time>
      </trkpt>
      <trkpt lat="43.75312" lon="7.25649">
        <ele>471.06555175781</ele>
        <time>2014-01-18T09:44:39Z</time>
      </trkpt>
      <trkpt lat="43.75311" lon="7.2566">
        <ele>471.59771728516</ele>
        <time>2014-01-18T09:44:44Z</time>
      </trkpt>
      <trkpt lat="43.75309" lon="7.25667">
        <ele>471.79852294922</ele>
        <time>2014-01-18T09:44:47Z</time>
      </trkpt>
      <trkpt lat="43.75308" lon="7.25676">
        <ele>472.48858642578</ele>
        <time>2014-01-18T09:44:52Z</time>
      </trkpt>
      <trkpt lat="43.75307" lon="7.25682">
        <ele>473.06024169922</ele>
        <time>2014-01-18T09:44:56Z</time>
      </trkpt>
      <trkpt lat="43.75305" lon="7.2569">
        <ele>473.46688842773</ele>
        <time>2014-01-18T09:45:00Z</time>
      </trkpt>
      <trkpt lat="43.75303" lon="7.25701">
        <ele>474.18365478516</ele>
        <time>2014-01-18T09:45:05Z</time>
      </trkpt>
      <trkpt lat="43.753" lon="7.2571">
        <ele>474.52355957031</ele>
        <time>2014-01-18T09:45:10Z</time>
      </trkpt>
      <trkpt lat="43.75299" lon="7.25713">
        <ele>474.63684082031</ele>
        <time>2014-01-18T09:45:11Z</time>
      </trkpt>
      <trkpt lat="43.75294" lon="7.25733">
        <ele>476.04776000977</ele>
        <time>2014-01-18T09:45:18Z</time>
      </trkpt>
      <trkpt lat="43.75291" lon="7.2574">
        <ele>476.56356811523</ele>
        <time>2014-01-18T09:45:22Z</time>
      </trkpt>
      <trkpt lat="43.7529" lon="7.25746">
        <ele>477.23095703125</ele>
        <time>2014-01-18T09:45:24Z</time>
      </trkpt>
      <trkpt lat="43.75287" lon="7.25764">
        <ele>478.57073974609</ele>
        <time>2014-01-18T09:45:30Z</time>
      </trkpt>
      <trkpt lat="43.75285" lon="7.25776">
        <ele>479.34555053711</ele>
        <time>2014-01-18T09:45:33Z</time>
      </trkpt>
      <trkpt lat="43.75283" lon="7.25789">
        <ele>480.02166748047</ele>
        <time>2014-01-18T09:45:36Z</time>
      </trkpt>
      <trkpt lat="43.75281" lon="7.25801">
        <ele>480.70971679688</ele>
        <time>2014-01-18T09:45:40Z</time>
      </trkpt>
      <trkpt lat="43.7528" lon="7.25809">
        <ele>481.12921142578</ele>
        <time>2014-01-18T09:45:43Z</time>
      </trkpt>
      <trkpt lat="43.75277" lon="7.2582">
        <ele>481.50094604492</ele>
        <time>2014-01-18T09:45:47Z</time>
      </trkpt>
      <trkpt lat="43.75275" lon="7.25831">
        <ele>481.87088012695</ele>
        <time>2014-01-18T09:45:51Z</time>
      </trkpt>
      <trkpt lat="43.75272" lon="7.25839">
        <ele>482</ele>
        <time>2014-01-18T09:45:54Z</time>
      </trkpt>
      <trkpt lat="43.7528" lon="7.25838">
        <ele>482</ele>
        <time>2014-01-18T09:46:00Z</time>
      </trkpt>
      <trkpt lat="43.7529" lon="7.25832">
        <ele>481.96691894531</ele>
        <time>2014-01-18T09:46:05Z</time>
      </trkpt>
      <trkpt lat="43.75296" lon="7.25828">
        <ele>481.80899047852</ele>
        <time>2014-01-18T09:46:08Z</time>
      </trkpt>
      <trkpt lat="43.7531" lon="7.2582">
        <ele>481.60107421875</ele>
        <time>2014-01-18T09:46:15Z</time>
      </trkpt>
      <trkpt lat="43.7532" lon="7.25814">
        <ele>481.68414306641</ele>
        <time>2014-01-18T09:46:20Z</time>
      </trkpt>
      <trkpt lat="43.75332" lon="7.25808">
        <ele>481.9645690918</ele>
        <time>2014-01-18T09:46:26Z</time>
      </trkpt>
      <trkpt lat="43.75341" lon="7.25792">
        <ele>482</ele>
        <time>2014-01-18T09:46:33Z</time>
      </trkpt>
      <trkpt lat="43.75342" lon="7.2579">
        <ele>482</ele>
        <time>2014-01-18T09:46:34Z</time>
      </trkpt>
      <trkpt lat="43.75352" lon="7.25784">
        <ele>482</ele>
        <time>2014-01-18T09:46:40Z</time>
      </trkpt>
      <trkpt lat="43.75361" lon="7.25784">
        <ele>482.01519775391</ele>
        <time>2014-01-18T09:46:45Z</time>
      </trkpt>
      <trkpt lat="43.75369" lon="7.25784">
        <ele>482.83917236328</ele>
        <time>2014-01-18T09:46:49Z</time>
      </trkpt>
      <trkpt lat="43.75375" lon="7.25792">
        <ele>483.53955078125</ele>
        <time>2014-01-18T09:46:54Z</time>
      </trkpt>
      <trkpt lat="43.75386" lon="7.25797">
        <ele>484.65191650391</ele>
        <time>2014-01-18T09:46:59Z</time>
      </trkpt>
      <trkpt lat="43.75397" lon="7.258">
        <ele>485.64614868164</ele>
        <time>2014-01-18T09:47:04Z</time>
      </trkpt>
      <trkpt lat="43.75408" lon="7.25807">
        <ele>486.31243896484</ele>
        <time>2014-01-18T09:47:08Z</time>
      </trkpt>
      <trkpt lat="43.75417" lon="7.25805">
        <ele>487.09027099609</ele>
        <time>2014-01-18T09:47:12Z</time>
      </trkpt>
      <trkpt lat="43.75427" lon="7.258">
        <ele>488.3659362793</ele>
        <time>2014-01-18T09:47:16Z</time>
      </trkpt>
      <trkpt lat="43.75439" lon="7.25801">
        <ele>489.78506469727</ele>
        <time>2014-01-18T09:47:21Z</time>
      </trkpt>
      <trkpt lat="43.75449" lon="7.25796">
        <ele>492.13439941406</ele>
        <time>2014-01-18T09:47:25Z</time>
      </trkpt>
      <trkpt lat="43.75455" lon="7.25796">
        <ele>494.24237060547</ele>
        <time>2014-01-18T09:47:29Z</time>
      </trkpt>
      <trkpt lat="43.75457" lon="7.25794">
        <ele>495.01486206055</ele>
        <time>2014-01-18T09:47:30Z</time>
      </trkpt>
      <trkpt lat="43.75468" lon="7.25784">
        <ele>499.19311523438</ele>
        <time>2014-01-18T09:47:36Z</time>
      </trkpt>
      <trkpt lat="43.75478" lon="7.25782">
        <ele>501.37023925781</ele>
        <time>2014-01-18T09:47:40Z</time>
      </trkpt>
      <trkpt lat="43.7548" lon="7.25782">
        <ele>501.58587646484</ele>
        <time>2014-01-18T09:47:41Z</time>
      </trkpt>
      <trkpt lat="43.75488" lon="7.25772">
        <ele>503.01055908203</ele>
        <time>2014-01-18T09:47:46Z</time>
      </trkpt>
      <trkpt lat="43.7549" lon="7.25766">
        <ele>503.625</ele>
        <time>2014-01-18T09:47:48Z</time>
      </trkpt>
      <trkpt lat="43.75493" lon="7.25746">
        <ele>505.4133605957</ele>
        <time>2014-01-18T09:47:54Z</time>
      </trkpt>
      <trkpt lat="43.75494" lon="7.2574">
        <ele>506.13888549805</ele>
        <time>2014-01-18T09:47:56Z</time>
      </trkpt>
      <trkpt lat="43.75502" lon="7.25725">
        <ele>509.24502563477</ele>
        <time>2014-01-18T09:48:03Z</time>
      </trkpt>
      <trkpt lat="43.75508" lon="7.25716">
        <ele>511.21517944336</ele>
        <time>2014-01-18T09:48:08Z</time>
      </trkpt>
      <trkpt lat="43.75517" lon="7.2571">
        <ele>513.49829101562</ele>
        <time>2014-01-18T09:48:13Z</time>
      </trkpt>
      <trkpt lat="43.75523" lon="7.25708">
        <ele>515.25646972656</ele>
        <time>2014-01-18T09:48:17Z</time>
      </trkpt>
      <trkpt lat="43.75526" lon="7.25697">
        <ele>517.23272705078</ele>
        <time>2014-01-18T09:48:22Z</time>
      </trkpt>
      <trkpt lat="43.7553" lon="7.25685">
        <ele>518.97601318359</ele>
        <time>2014-01-18T09:48:27Z</time>
      </trkpt>
      <trkpt lat="43.75531" lon="7.25669">
        <ele>520.11529541016</ele>
        <time>2014-01-18T09:48:32Z</time>
      </trkpt>
      <trkpt lat="43.75531" lon="7.25657">
        <ele>519.38415527344</ele>
        <time>2014-01-18T09:48:36Z</time>
      </trkpt>
      <trkpt lat="43.7553" lon="7.25641">
        <ele>517.55377197266</ele>
        <time>2014-01-18T09:48:41Z</time>
      </trkpt>
      <trkpt lat="43.75534" lon="7.25627">
        <ele>516.76110839844</ele>
        <time>2014-01-18T09:48:46Z</time>
      </trkpt>
      <trkpt lat="43.75541" lon="7.25609">
        <ele>517.12939453125</ele>
        <time>2014-01-18T09:48:53Z</time>
      </trkpt>
      <trkpt lat="43.75549" lon="7.25595">
        <ele>519.58184814453</ele>
        <time>2014-01-18T09:48:59Z</time>
      </trkpt>
      <trkpt lat="43.7556" lon="7.25583">
        <ele>522.99578857422</ele>
        <time>2014-01-18T09:49:05Z</time>
      </trkpt>
      <trkpt lat="43.75561" lon="7.25581">
        <ele>523.26721191406</ele>
        <time>2014-01-18T09:49:06Z</time>
      </trkpt>
      <trkpt lat="43.75569" lon="7.25579">
        <ele>525.12286376953</ele>
        <time>2014-01-18T09:49:10Z</time>
      </trkpt>
      <trkpt lat="43.7558" lon="7.2557">
        <ele>526.84027099609</ele>
        <time>2014-01-18T09:49:16Z</time>
      </trkpt>
      <trkpt lat="43.7559" lon="7.25569">
        <ele>528.45849609375</ele>
        <time>2014-01-18T09:49:21Z</time>
      </trkpt>
      <trkpt lat="43.75599" lon="7.25564">
        <ele>529.60131835938</ele>
        <time>2014-01-18T09:49:26Z</time>
      </trkpt>
      <trkpt lat="43.75605" lon="7.25563">
        <ele>530.53924560547</ele>
        <time>2014-01-18T09:49:29Z</time>
      </trkpt>
      <trkpt lat="43.75616" lon="7.25555">
        <ele>532.11224365234</ele>
        <time>2014-01-18T09:49:35Z</time>
      </trkpt>
      <trkpt lat="43.75626" lon="7.25549">
        <ele>533.03851318359</ele>
        <time>2014-01-18T09:49:40Z</time>
      </trkpt>
      <trkpt lat="43.75639" lon="7.25538">
        <ele>533.78314208984</ele>
        <time>2014-01-18T09:49:47Z</time>
      </trkpt>
      <trkpt lat="43.75648" lon="7.25529">
        <ele>534.89617919922</ele>
        <time>2014-01-18T09:49:52Z</time>
      </trkpt>
      <trkpt lat="43.75662" lon="7.25527">
        <ele>538.54614257812</ele>
        <time>2014-01-18T09:49:59Z</time>
      </trkpt>
      <trkpt lat="43.75676" lon="7.25522">
        <ele>540.17803955078</ele>
        <time>2014-01-18T09:50:06Z</time>
      </trkpt>
      <trkpt lat="43.7568" lon="7.25518">
        <ele>540.22729492188</ele>
        <time>2014-01-18T09:50:08Z</time>
      </trkpt>
      <trkpt lat="43.75691" lon="7.2551">
        <ele>540.62322998047</ele>
        <time>2014-01-18T09:50:14Z</time>
      </trkpt>
      <trkpt lat="43.75699" lon="7.25508">
        <ele>541.87408447266</ele>
        <time>2014-01-18T09:50:18Z</time>
      </trkpt>
      <trkpt lat="43.7571" lon="7.25507">
        <ele>543.76806640625</ele>
        <time>2014-01-18T09:50:23Z</time>
      </trkpt>
      <trkpt lat="43.75712" lon="7.25505">
        <ele>543.93255615234</ele>
        <time>2014-01-18T09:50:24Z</time>
      </trkpt>
      <trkpt lat="43.75726" lon="7.25499">
        <ele>545.46429443359</ele>
        <time>2014-01-18T09:50:31Z</time>
      </trkpt>
      <trkpt lat="43.75738" lon="7.25492">
        <ele>546.71398925781</ele>
        <time>2014-01-18T09:50:37Z</time>
      </trkpt>
      <trkpt lat="43.75748" lon="7.25492">
        <ele>548.51300048828</ele>
        <time>2014-01-18T09:50:42Z</time>
      </trkpt>
      <trkpt lat="43.7575" lon="7.25492">
        <ele>548.89752197266</ele>
        <time>2014-01-18T09:50:43Z</time>
      </trkpt>
      <trkpt lat="43.75764" lon="7.25484">
        <ele>550.25024414062</ele>
        <time>2014-01-18T09:50:50Z</time>
      </trkpt>
      <trkpt lat="43.75775" lon="7.25477">
        <ele>551.17718505859</ele>
        <time>2014-01-18T09:50:56Z</time>
      </trkpt>
      <trkpt lat="43.75786" lon="7.25468">
        <ele>552.59045410156</ele>
        <time>2014-01-18T09:51:02Z</time>
      </trkpt>
      <trkpt lat="43.75795" lon="7.25463">
        <ele>553.8701171875</ele>
        <time>2014-01-18T09:51:07Z</time>
      </trkpt>
      <trkpt lat="43.75799" lon="7.2546">
        <ele>553.96368408203</ele>
        <time>2014-01-18T09:51:09Z</time>
      </trkpt>
      <trkpt lat="43.75813" lon="7.25449">
        <ele>554.07745361328</ele>
        <time>2014-01-18T09:51:17Z</time>
      </trkpt>
      <trkpt lat="43.75815" lon="7.25448">
        <ele>554.09875488281</ele>
        <time>2014-01-18T09:51:18Z</time>
      </trkpt>
      <trkpt lat="43.75824" lon="7.25444">
        <ele>554.86828613281</ele>
        <time>2014-01-18T09:51:23Z</time>
      </trkpt>
      <trkpt lat="43.7583" lon="7.25439">
        <ele>554.8603515625</ele>
        <time>2014-01-18T09:51:26Z</time>
      </trkpt>
      <trkpt lat="43.75839" lon="7.25434">
        <ele>555.41284179688</ele>
        <time>2014-01-18T09:51:31Z</time>
      </trkpt>
      <trkpt lat="43.75849" lon="7.25432">
        <ele>557.13348388672</ele>
        <time>2014-01-18T09:51:37Z</time>
      </trkpt>
      <trkpt lat="43.75856" lon="7.2543">
        <ele>558.15637207031</ele>
        <time>2014-01-18T09:51:41Z</time>
      </trkpt>
      <trkpt lat="43.75864" lon="7.25428">
        <ele>559.63739013672</ele>
        <time>2014-01-18T09:51:47Z</time>
      </trkpt>
      <trkpt lat="43.75875" lon="7.25423">
        <ele>560.9970703125</ele>
        <time>2014-01-18T09:51:52Z</time>
      </trkpt>
      <trkpt lat="43.75885" lon="7.25415">
        <ele>562.06976318359</ele>
        <time>2014-01-18T09:51:57Z</time>
      </trkpt>
      <trkpt lat="43.75894" lon="7.25405">
        <ele>562.43383789062</ele>
        <time>2014-01-18T09:52:02Z</time>
      </trkpt>
      <trkpt lat="43.75904" lon="7.2539">
        <ele>561.83221435547</ele>
        <time>2014-01-18T09:52:08Z</time>
      </trkpt>
      <trkpt lat="43.75916" lon="7.25382">
        <ele>561.44378662109</ele>
        <time>2014-01-18T09:52:14Z</time>
      </trkpt>
      <trkpt lat="43.75917" lon="7.25381">
        <ele>561.63891601562</ele>
        <time>2014-01-18T09:52:15Z</time>
      </trkpt>
      <trkpt lat="43.75926" lon="7.25372">
        <ele>562.21942138672</ele>
        <time>2014-01-18T09:52:20Z</time>
      </trkpt>
      <trkpt lat="43.75938" lon="7.25364">
        <ele>564.05487060547</ele>
        <time>2014-01-18T09:52:26Z</time>
      </trkpt>
      <trkpt lat="43.75953" lon="7.25353">
        <ele>564.88208007812</ele>
        <time>2014-01-18T09:52:33Z</time>
      </trkpt>
      <trkpt lat="43.75964" lon="7.25349">
        <ele>566.52624511719</ele>
        <time>2014-01-18T09:52:38Z</time>
      </trkpt>
      <trkpt lat="43.75974" lon="7.25341">
        <ele>566.44207763672</ele>
        <time>2014-01-18T09:52:43Z</time>
      </trkpt>
      <trkpt lat="43.75988" lon="7.25334">
        <ele>568.73138427734</ele>
        <time>2014-01-18T09:52:49Z</time>
      </trkpt>
      <trkpt lat="43.75997" lon="7.25325">
        <ele>569.78009033203</ele>
        <time>2014-01-18T09:52:54Z</time>
      </trkpt>
      <trkpt lat="43.75998" lon="7.25323">
        <ele>569.75262451172</ele>
        <time>2014-01-18T09:52:55Z</time>
      </trkpt>
      <trkpt lat="43.76006" lon="7.25318">
        <ele>570.64447021484</ele>
        <time>2014-01-18T09:52:59Z</time>
      </trkpt>
      <trkpt lat="43.76009" lon="7.25316">
        <ele>570.88482666016</ele>
        <time>2014-01-18T09:53:01Z</time>
      </trkpt>
      <trkpt lat="43.76022" lon="7.25308">
        <ele>572.03839111328</ele>
        <time>2014-01-18T09:53:07Z</time>
      </trkpt>
      <trkpt lat="43.76031" lon="7.25304">
        <ele>573.62786865234</ele>
        <time>2014-01-18T09:53:12Z</time>
      </trkpt>
      <trkpt lat="43.7604" lon="7.25304">
        <ele>576.86926269531</ele>
        <time>2014-01-18T09:53:17Z</time>
      </trkpt>
      <trkpt lat="43.76047" lon="7.25301">
        <ele>578.16290283203</ele>
        <time>2014-01-18T09:53:21Z</time>
      </trkpt>
      <trkpt lat="43.76059" lon="7.25294">
        <ele>579.63592529297</ele>
        <time>2014-01-18T09:53:27Z</time>
      </trkpt>
      <trkpt lat="43.76071" lon="7.25287">
        <ele>580.41754150391</ele>
        <time>2014-01-18T09:53:33Z</time>
      </trkpt>
      <trkpt lat="43.7608" lon="7.25282">
        <ele>580.99212646484</ele>
        <time>2014-01-18T09:53:37Z</time>
      </trkpt>
      <trkpt lat="43.76088" lon="7.25278">
        <ele>581.44793701172</ele>
        <time>2014-01-18T09:53:41Z</time>
      </trkpt>
      <trkpt lat="43.76099" lon="7.25275">
        <ele>584.65753173828</ele>
        <time>2014-01-18T09:53:47Z</time>
      </trkpt>
      <trkpt lat="43.76102" lon="7.25274">
        <ele>585.74761962891</ele>
        <time>2014-01-18T09:53:49Z</time>
      </trkpt>
      <trkpt lat="43.76109" lon="7.25265">
        <ele>584.95739746094</ele>
        <time>2014-01-18T09:53:54Z</time>
      </trkpt>
      <trkpt lat="43.76119" lon="7.2526">
        <ele>587.57049560547</ele>
        <time>2014-01-18T09:53:59Z</time>
      </trkpt>
      <trkpt lat="43.76122" lon="7.25259">
        <ele>588.39575195312</ele>
        <time>2014-01-18T09:54:00Z</time>
      </trkpt>
      <trkpt lat="43.76132" lon="7.25256">
        <ele>592.59411621094</ele>
        <time>2014-01-18T09:54:05Z</time>
      </trkpt>
      <trkpt lat="43.76139" lon="7.25247">
        <ele>593.64233398438</ele>
        <time>2014-01-18T09:54:10Z</time>
      </trkpt>
      <trkpt lat="43.76149" lon="7.25243">
        <ele>593.37518310547</ele>
        <time>2014-01-18T09:54:15Z</time>
      </trkpt>
      <trkpt lat="43.76158" lon="7.25238">
        <ele>592.81237792969</ele>
        <time>2014-01-18T09:54:20Z</time>
      </trkpt>
      <trkpt lat="43.76167" lon="7.25231">
        <ele>592.13323974609</ele>
        <time>2014-01-18T09:54:25Z</time>
      </trkpt>
      <trkpt lat="43.76175" lon="7.25228">
        <ele>592.49078369141</ele>
        <time>2014-01-18T09:54:29Z</time>
      </trkpt>
      <trkpt lat="43.76185" lon="7.25222">
        <ele>593.22918701172</ele>
        <time>2014-01-18T09:54:34Z</time>
      </trkpt>
      <trkpt lat="43.76197" lon="7.25218">
        <ele>594.87280273438</ele>
        <time>2014-01-18T09:54:39Z</time>
      </trkpt>
      <trkpt lat="43.762" lon="7.25219">
        <ele>595.63842773438</ele>
        <time>2014-01-18T09:54:41Z</time>
      </trkpt>
      <trkpt lat="43.76204" lon="7.25219">
        <ele>596.01605224609</ele>
        <time>2014-01-18T09:54:44Z</time>
      </trkpt>
      <trkpt lat="43.76204" lon="7.2522">
        <ele>596.58941650391</ele>
        <time>2014-01-18T09:54:52Z</time>
      </trkpt>
      <trkpt lat="43.76203" lon="7.25218">
        <ele>595.54571533203</ele>
        <time>2014-01-18T09:55:13Z</time>
      </trkpt>
      <trkpt lat="43.76202" lon="7.25219">
        <ele>595.89935302734</ele>
        <time>2014-01-18T09:55:25Z</time>
      </trkpt>
      <trkpt lat="43.76201" lon="7.2522">
        <ele>595.97485351562</ele>
        <time>2014-01-18T09:55:28Z</time>
      </trkpt>
      <trkpt lat="43.76199" lon="7.25221">
        <ele>595.98858642578</ele>
        <time>2014-01-18T09:55:33Z</time>
      </trkpt>
      <trkpt lat="43.76199" lon="7.25221">
        <ele>596.04010009766</ele>
        <time>2014-01-18T09:55:44Z</time>
      </trkpt>
      <trkpt lat="43.76197" lon="7.25224">
        <ele>596.7392578125</ele>
        <time>2014-01-18T09:55:47Z</time>
      </trkpt>
      <trkpt lat="43.76194" lon="7.25227">
        <ele>596.99749755859</ele>
        <time>2014-01-18T09:55:52Z</time>
      </trkpt>
      <trkpt lat="43.76196" lon="7.25225">
        <ele>596.94787597656</ele>
        <time>2014-01-18T09:55:59Z</time>
      </trkpt>
      <trkpt lat="43.76196" lon="7.25226">
        <ele>596.98352050781</ele>
        <time>2014-01-18T09:56:11Z</time>
      </trkpt>
      <trkpt lat="43.76196" lon="7.25225">
        <ele>596.92864990234</ele>
        <time>2014-01-18T09:56:19Z</time>
      </trkpt>
      <trkpt lat="43.76197" lon="7.25224">
        <ele>596.81591796875</ele>
        <time>2014-01-18T09:56:25Z</time>
      </trkpt>
      <trkpt lat="43.76201" lon="7.25221">
        <ele>596.64434814453</ele>
        <time>2014-01-18T09:56:28Z</time>
      </trkpt>
      <trkpt lat="43.76211" lon="7.25214">
        <ele>595.42895507812</ele>
        <time>2014-01-18T09:56:34Z</time>
      </trkpt>
      <trkpt lat="43.7622" lon="7.25213">
        <ele>596.458984375</ele>
        <time>2014-01-18T09:56:39Z</time>
      </trkpt>
      <trkpt lat="43.76229" lon="7.25212">
        <ele>597.32916259766</ele>
        <time>2014-01-18T09:56:44Z</time>
      </trkpt>
      <trkpt lat="43.76241" lon="7.25211">
        <ele>598.6962890625</ele>
        <time>2014-01-18T09:56:50Z</time>
      </trkpt>
      <trkpt lat="43.7625" lon="7.25208">
        <ele>599.48492431641</ele>
        <time>2014-01-18T09:56:55Z</time>
      </trkpt>
      <trkpt lat="43.7626" lon="7.25207">
        <ele>600.42797851562</ele>
        <time>2014-01-18T09:57:00Z</time>
      </trkpt>
      <trkpt lat="43.76268" lon="7.25207">
        <ele>601.33740234375</ele>
        <time>2014-01-18T09:57:04Z</time>
      </trkpt>
      <trkpt lat="43.76282" lon="7.25207">
        <ele>603.52081298828</ele>
        <time>2014-01-18T09:57:12Z</time>
      </trkpt>
      <trkpt lat="43.76291" lon="7.25205">
        <ele>605.00366210938</ele>
        <time>2014-01-18T09:57:17Z</time>
      </trkpt>
      <trkpt lat="43.76302" lon="7.25202">
        <ele>606.14556884766</ele>
        <time>2014-01-18T09:57:22Z</time>
      </trkpt>
      <trkpt lat="43.7631" lon="7.25201">
        <ele>607.3232421875</ele>
        <time>2014-01-18T09:57:27Z</time>
      </trkpt>
      <trkpt lat="43.7632" lon="7.25201">
        <ele>608.26794433594</ele>
        <time>2014-01-18T09:57:32Z</time>
      </trkpt>
      <trkpt lat="43.76325" lon="7.25201">
        <ele>609.13555908203</ele>
        <time>2014-01-18T09:57:35Z</time>
      </trkpt>
      <trkpt lat="43.76334" lon="7.25204">
        <ele>611.07745361328</ele>
        <time>2014-01-18T09:57:41Z</time>
      </trkpt>
      <trkpt lat="43.76339" lon="7.25203">
        <ele>611.43798828125</ele>
        <time>2014-01-18T09:57:45Z</time>
      </trkpt>
      <trkpt lat="43.76344" lon="7.25203">
        <ele>611.77270507812</ele>
        <time>2014-01-18T09:57:48Z</time>
      </trkpt>
      <trkpt lat="43.76352" lon="7.25196">
        <ele>610.43890380859</ele>
        <time>2014-01-18T09:57:53Z</time>
      </trkpt>
      <trkpt lat="43.7636" lon="7.2518">
        <ele>607.72387695312</ele>
        <time>2014-01-18T09:57:59Z</time>
      </trkpt>
      <trkpt lat="43.76368" lon="7.25168">
        <ele>606.69097900391</ele>
        <time>2014-01-18T09:58:04Z</time>
      </trkpt>
      <trkpt lat="43.7637" lon="7.25166">
        <ele>606.74291992188</ele>
        <time>2014-01-18T09:58:05Z</time>
      </trkpt>
      <trkpt lat="43.76379" lon="7.25154">
        <ele>605.0068359375</ele>
        <time>2014-01-18T09:58:11Z</time>
      </trkpt>
      <trkpt lat="43.76392" lon="7.25142">
        <ele>603.38922119141</ele>
        <time>2014-01-18T09:58:18Z</time>
      </trkpt>
      <trkpt lat="43.76401" lon="7.25136">
        <ele>602.59906005859</ele>
        <time>2014-01-18T09:58:23Z</time>
      </trkpt>
      <trkpt lat="43.76411" lon="7.25133">
        <ele>602.75012207031</ele>
        <time>2014-01-18T09:58:29Z</time>
      </trkpt>
      <trkpt lat="43.76418" lon="7.2513">
        <ele>602.88372802734</ele>
        <time>2014-01-18T09:58:33Z</time>
      </trkpt>
      <trkpt lat="43.76428" lon="7.25129">
        <ele>605.13934326172</ele>
        <time>2014-01-18T09:58:38Z</time>
      </trkpt>
      <trkpt lat="43.76438" lon="7.25125">
        <ele>606.43890380859</ele>
        <time>2014-01-18T09:58:43Z</time>
      </trkpt>
      <trkpt lat="43.76453" lon="7.25117">
        <ele>606.55279541016</ele>
        <time>2014-01-18T09:58:51Z</time>
      </trkpt>
      <trkpt lat="43.76464" lon="7.25114">
        <ele>607.66778564453</ele>
        <time>2014-01-18T09:58:56Z</time>
      </trkpt>
      <trkpt lat="43.76475" lon="7.25113">
        <ele>609.29144287109</ele>
        <time>2014-01-18T09:59:01Z</time>
      </trkpt>
      <trkpt lat="43.76485" lon="7.2511">
        <ele>611.34924316406</ele>
        <time>2014-01-18T09:59:06Z</time>
      </trkpt>
      <trkpt lat="43.76487" lon="7.2511">
        <ele>611.89855957031</ele>
        <time>2014-01-18T09:59:07Z</time>
      </trkpt>
      <trkpt lat="43.765" lon="7.25115">
        <ele>616.78790283203</ele>
        <time>2014-01-18T09:59:14Z</time>
      </trkpt>
      <trkpt lat="43.76508" lon="7.25119">
        <ele>619.88659667969</ele>
        <time>2014-01-18T09:59:19Z</time>
      </trkpt>
      <trkpt lat="43.76517" lon="7.25123">
        <ele>623.01708984375</ele>
        <time>2014-01-18T09:59:24Z</time>
      </trkpt>
      <trkpt lat="43.76526" lon="7.25127">
        <ele>625.92785644531</ele>
        <time>2014-01-18T09:59:29Z</time>
      </trkpt>
      <trkpt lat="43.76538" lon="7.2513">
        <ele>628.45446777344</ele>
        <time>2014-01-18T09:59:35Z</time>
      </trkpt>
      <trkpt lat="43.76551" lon="7.25123">
        <ele>629.36877441406</ele>
        <time>2014-01-18T09:59:42Z</time>
      </trkpt>
      <trkpt lat="43.76563" lon="7.25113">
        <ele>630.92510986328</ele>
        <time>2014-01-18T09:59:49Z</time>
      </trkpt>
      <trkpt lat="43.76573" lon="7.25109">
        <ele>633.93957519531</ele>
        <time>2014-01-18T09:59:54Z</time>
      </trkpt>
      <trkpt lat="43.76577" lon="7.25107">
        <ele>635.12170410156</ele>
        <time>2014-01-18T09:59:56Z</time>
      </trkpt>
      <trkpt lat="43.76588" lon="7.25103">
        <ele>637.78778076172</ele>
        <time>2014-01-18T10:00:02Z</time>
      </trkpt>
      <trkpt lat="43.76593" lon="7.25101">
        <ele>638.65625</ele>
        <time>2014-01-18T10:00:05Z</time>
      </trkpt>
      <trkpt lat="43.76606" lon="7.25099">
        <ele>641.21124267578</ele>
        <time>2014-01-18T10:00:11Z</time>
      </trkpt>
      <trkpt lat="43.76619" lon="7.25096">
        <ele>643.27813720703</ele>
        <time>2014-01-18T10:00:17Z</time>
      </trkpt>
      <trkpt lat="43.76627" lon="7.25094">
        <ele>644.15435791016</ele>
        <time>2014-01-18T10:00:21Z</time>
      </trkpt>
      <trkpt lat="43.76639" lon="7.25095">
        <ele>645.22198486328</ele>
        <time>2014-01-18T10:00:27Z</time>
      </trkpt>
      <trkpt lat="43.76649" lon="7.25095">
        <ele>647.67297363281</ele>
        <time>2014-01-18T10:00:32Z</time>
      </trkpt>
      <trkpt lat="43.76652" lon="7.25095">
        <ele>648.29296875</ele>
        <time>2014-01-18T10:00:33Z</time>
      </trkpt>
      <trkpt lat="43.76664" lon="7.25091">
        <ele>651.54144287109</ele>
        <time>2014-01-18T10:00:39Z</time>
      </trkpt>
      <trkpt lat="43.76669" lon="7.25086">
        <ele>653.42028808594</ele>
        <time>2014-01-18T10:00:43Z</time>
      </trkpt>
      <trkpt lat="43.76674" lon="7.25076">
        <ele>654.34448242188</ele>
        <time>2014-01-18T10:00:48Z</time>
      </trkpt>
      <trkpt lat="43.76679" lon="7.25064">
        <ele>655.42193603516</ele>
        <time>2014-01-18T10:00:54Z</time>
      </trkpt>
      <trkpt lat="43.76685" lon="7.25056">
        <ele>657.05352783203</ele>
        <time>2014-01-18T10:00:59Z</time>
      </trkpt>
      <trkpt lat="43.76688" lon="7.25052">
        <ele>657.65618896484</ele>
        <time>2014-01-18T10:01:01Z</time>
      </trkpt>
      <trkpt lat="43.76699" lon="7.25053">
        <ele>660.501953125</ele>
        <time>2014-01-18T10:01:07Z</time>
      </trkpt>
      <trkpt lat="43.76712" lon="7.25055">
        <ele>661.88665771484</ele>
        <time>2014-01-18T10:01:14Z</time>
      </trkpt>
      <trkpt lat="43.7672" lon="7.25054">
        <ele>662.71606445312</ele>
        <time>2014-01-18T10:01:19Z</time>
      </trkpt>
      <trkpt lat="43.76726" lon="7.25055">
        <ele>663.60162353516</ele>
        <time>2014-01-18T10:01:22Z</time>
      </trkpt>
      <trkpt lat="43.76731" lon="7.25058">
        <ele>664.66033935547</ele>
        <time>2014-01-18T10:01:26Z</time>
      </trkpt>
      <trkpt lat="43.76736" lon="7.25058">
        <ele>665.46075439453</ele>
        <time>2014-01-18T10:01:29Z</time>
      </trkpt>
      <trkpt lat="43.76746" lon="7.25049">
        <ele>666.59100341797</ele>
        <time>2014-01-18T10:01:36Z</time>
      </trkpt>
      <trkpt lat="43.76757" lon="7.25044">
        <ele>667.91101074219</ele>
        <time>2014-01-18T10:01:42Z</time>
      </trkpt>
      <trkpt lat="43.76767" lon="7.25039">
        <ele>668.53698730469</ele>
        <time>2014-01-18T10:01:47Z</time>
      </trkpt>
      <trkpt lat="43.76778" lon="7.25034">
        <ele>669.2021484375</ele>
        <time>2014-01-18T10:01:53Z</time>
      </trkpt>
      <trkpt lat="43.76789" lon="7.2503">
        <ele>670.87530517578</ele>
        <time>2014-01-18T10:01:58Z</time>
      </trkpt>
      <trkpt lat="43.76799" lon="7.2503">
        <ele>673.11968994141</ele>
        <time>2014-01-18T10:02:03Z</time>
      </trkpt>
      <trkpt lat="43.76809" lon="7.25038">
        <ele>676.82446289062</ele>
        <time>2014-01-18T10:02:08Z</time>
      </trkpt>
      <trkpt lat="43.7682" lon="7.25043">
        <ele>679.984375</ele>
        <time>2014-01-18T10:02:13Z</time>
      </trkpt>
      <trkpt lat="43.76827" lon="7.25045">
        <ele>681.78448486328</ele>
        <time>2014-01-18T10:02:17Z</time>
      </trkpt>
      <trkpt lat="43.76837" lon="7.25046">
        <ele>683.43139648438</ele>
        <time>2014-01-18T10:02:22Z</time>
      </trkpt>
      <trkpt lat="43.76846" lon="7.25046">
        <ele>684.50421142578</ele>
        <time>2014-01-18T10:02:29Z</time>
      </trkpt>
      <trkpt lat="43.76854" lon="7.25045">
        <ele>685.37249755859</ele>
        <time>2014-01-18T10:02:36Z</time>
      </trkpt>
      <trkpt lat="43.76864" lon="7.25044">
        <ele>686.13049316406</ele>
        <time>2014-01-18T10:02:44Z</time>
      </trkpt>
      <trkpt lat="43.76873" lon="7.25043">
        <ele>686.59051513672</ele>
        <time>2014-01-18T10:02:51Z</time>
      </trkpt>
      <trkpt lat="43.7688" lon="7.25041">
        <ele>686.80340576172</ele>
        <time>2014-01-18T10:02:58Z</time>
      </trkpt>
      <trkpt lat="43.76883" lon="7.25038">
        <ele>686.46520996094</ele>
        <time>2014-01-18T10:03:02Z</time>
      </trkpt>
      <trkpt lat="43.76886" lon="7.25032">
        <ele>685.63610839844</ele>
        <time>2014-01-18T10:03:08Z</time>
      </trkpt>
      <trkpt lat="43.76888" lon="7.25031">
        <ele>685.61206054688</ele>
        <time>2014-01-18T10:03:10Z</time>
      </trkpt>
      <trkpt lat="43.76893" lon="7.2503">
        <ele>685.81176757812</ele>
        <time>2014-01-18T10:03:13Z</time>
      </trkpt>
      <trkpt lat="43.76903" lon="7.25028">
        <ele>686.59802246094</ele>
        <time>2014-01-18T10:03:19Z</time>
      </trkpt>
      <trkpt lat="43.76908" lon="7.25025">
        <ele>686.67407226562</ele>
        <time>2014-01-18T10:03:22Z</time>
      </trkpt>
      <trkpt lat="43.7692" lon="7.25017">
        <ele>686.66339111328</ele>
        <time>2014-01-18T10:03:29Z</time>
      </trkpt>
      <trkpt lat="43.76932" lon="7.2501">
        <ele>686.19689941406</ele>
        <time>2014-01-18T10:03:35Z</time>
      </trkpt>
      <trkpt lat="43.76943" lon="7.25006">
        <ele>686.01055908203</ele>
        <time>2014-01-18T10:03:41Z</time>
      </trkpt>
      <trkpt lat="43.76952" lon="7.25005">
        <ele>686.61383056641</ele>
        <time>2014-01-18T10:03:45Z</time>
      </trkpt>
      <trkpt lat="43.76956" lon="7.25005">
        <ele>687.09967041016</ele>
        <time>2014-01-18T10:03:47Z</time>
      </trkpt>
      <trkpt lat="43.76966" lon="7.25001">
        <ele>687.54595947266</ele>
        <time>2014-01-18T10:03:52Z</time>
      </trkpt>
      <trkpt lat="43.76968" lon="7.25">
        <ele>687.57861328125</ele>
        <time>2014-01-18T10:03:53Z</time>
      </trkpt>
      <trkpt lat="43.76978" lon="7.24996">
        <ele>687.50793457031</ele>
        <time>2014-01-18T10:03:58Z</time>
      </trkpt>
      <trkpt lat="43.7699" lon="7.24992">
        <ele>687.16748046875</ele>
        <time>2014-01-18T10:04:04Z</time>
      </trkpt>
      <trkpt lat="43.76997" lon="7.24988">
        <ele>686.35162353516</ele>
        <time>2014-01-18T10:04:08Z</time>
      </trkpt>
      <trkpt lat="43.77011" lon="7.24981">
        <ele>685.90148925781</ele>
        <time>2014-01-18T10:04:14Z</time>
      </trkpt>
      <trkpt lat="43.77021" lon="7.24975">
        <ele>685.05798339844</ele>
        <time>2014-01-18T10:04:19Z</time>
      </trkpt>
      <trkpt lat="43.77031" lon="7.24965">
        <ele>682.55187988281</ele>
        <time>2014-01-18T10:04:23Z</time>
      </trkpt>
      <trkpt lat="43.77042" lon="7.24964">
        <ele>682.41284179688</ele>
        <time>2014-01-18T10:04:27Z</time>
      </trkpt>
      <trkpt lat="43.77051" lon="7.24972">
        <ele>684.97747802734</ele>
        <time>2014-01-18T10:04:31Z</time>
      </trkpt>
      <trkpt lat="43.77061" lon="7.24978">
        <ele>686.6611328125</ele>
        <time>2014-01-18T10:04:35Z</time>
      </trkpt>
      <trkpt lat="43.77073" lon="7.24989">
        <ele>689.80249023438</ele>
        <time>2014-01-18T10:04:40Z</time>
      </trkpt>
      <trkpt lat="43.77084" lon="7.24997">
        <ele>692.21392822266</ele>
        <time>2014-01-18T10:04:45Z</time>
      </trkpt>
      <trkpt lat="43.77086" lon="7.24998">
        <ele>692.65966796875</ele>
        <time>2014-01-18T10:04:46Z</time>
      </trkpt>
      <trkpt lat="43.77096" lon="7.24996">
        <ele>692.93829345703</ele>
        <time>2014-01-18T10:04:50Z</time>
      </trkpt>
      <trkpt lat="43.77113" lon="7.24994">
        <ele>693.37951660156</ele>
        <time>2014-01-18T10:04:56Z</time>
      </trkpt>
      <trkpt lat="43.77125" lon="7.24993">
        <ele>692.84393310547</ele>
        <time>2014-01-18T10:05:01Z</time>
      </trkpt>
      <trkpt lat="43.77135" lon="7.24993">
        <ele>692.99499511719</ele>
        <time>2014-01-18T10:05:05Z</time>
      </trkpt>
      <trkpt lat="43.7715" lon="7.2499">
        <ele>692.19848632812</ele>
        <time>2014-01-18T10:05:11Z</time>
      </trkpt>
      <trkpt lat="43.77162" lon="7.24989">
        <ele>691.91009521484</ele>
        <time>2014-01-18T10:05:16Z</time>
      </trkpt>
      <trkpt lat="43.77175" lon="7.24986">
        <ele>690.86639404297</ele>
        <time>2014-01-18T10:05:21Z</time>
      </trkpt>
      <trkpt lat="43.77187" lon="7.24986">
        <ele>691.07238769531</ele>
        <time>2014-01-18T10:05:26Z</time>
      </trkpt>
      <trkpt lat="43.77196" lon="7.24986">
        <ele>690.89385986328</ele>
        <time>2014-01-18T10:05:30Z</time>
      </trkpt>
      <trkpt lat="43.77209" lon="7.24982">
        <ele>689.93255615234</ele>
        <time>2014-01-18T10:05:35Z</time>
      </trkpt>
      <trkpt lat="43.77222" lon="7.24981">
        <ele>689.49310302734</ele>
        <time>2014-01-18T10:05:40Z</time>
      </trkpt>
      <trkpt lat="43.77235" lon="7.24977">
        <ele>688.24340820312</ele>
        <time>2014-01-18T10:05:45Z</time>
      </trkpt>
      <trkpt lat="43.77248" lon="7.24974">
        <ele>687.54302978516</ele>
        <time>2014-01-18T10:05:50Z</time>
      </trkpt>
      <trkpt lat="43.77264" lon="7.24972">
        <ele>686.98248291016</ele>
        <time>2014-01-18T10:05:55Z</time>
      </trkpt>
      <trkpt lat="43.77278" lon="7.2497">
        <ele>686.51031494141</ele>
        <time>2014-01-18T10:06:00Z</time>
      </trkpt>
      <trkpt lat="43.77295" lon="7.24968">
        <ele>684.90197753906</ele>
        <time>2014-01-18T10:06:06Z</time>
      </trkpt>
      <trkpt lat="43.77311" lon="7.24963">
        <ele>682.69622802734</ele>
        <time>2014-01-18T10:06:11Z</time>
      </trkpt>
      <trkpt lat="43.77314" lon="7.24963">
        <ele>682.52459716797</ele>
        <time>2014-01-18T10:06:12Z</time>
      </trkpt>
      <trkpt lat="43.77324" lon="7.24961">
        <ele>681.94091796875</ele>
        <time>2014-01-18T10:06:15Z</time>
      </trkpt>
      <trkpt lat="43.77327" lon="7.2496">
        <ele>681.68347167969</ele>
        <time>2014-01-18T10:06:16Z</time>
      </trkpt>
      <trkpt lat="43.77336" lon="7.2496">
        <ele>681.59759521484</ele>
        <time>2014-01-18T10:06:19Z</time>
      </trkpt>
      <trkpt lat="43.77348" lon="7.24961">
        <ele>681.82080078125</ele>
        <time>2014-01-18T10:06:23Z</time>
      </trkpt>
      <trkpt lat="43.77357" lon="7.2496">
        <ele>681.59759521484</ele>
        <time>2014-01-18T10:06:26Z</time>
      </trkpt>
      <trkpt lat="43.77367" lon="7.24953">
        <ele>678.84478759766</ele>
        <time>2014-01-18T10:06:30Z</time>
      </trkpt>
      <trkpt lat="43.77375" lon="7.2495">
        <ele>677.94458007812</ele>
        <time>2014-01-18T10:06:33Z</time>
      </trkpt>
      <trkpt lat="43.77391" lon="7.2495">
        <ele>677.85522460938</ele>
        <time>2014-01-18T10:06:39Z</time>
      </trkpt>
      <trkpt lat="43.77393" lon="7.2495">
        <ele>677.88616943359</ele>
        <time>2014-01-18T10:06:40Z</time>
      </trkpt>
      <trkpt lat="43.77407" lon="7.2495">
        <ele>677.94793701172</ele>
        <time>2014-01-18T10:06:45Z</time>
      </trkpt>
      <trkpt lat="43.77409" lon="7.2495">
        <ele>677.94793701172</ele>
        <time>2014-01-18T10:06:46Z</time>
      </trkpt>
      <trkpt lat="43.77417" lon="7.24948">
        <ele>677.22180175781</ele>
        <time>2014-01-18T10:06:49Z</time>
      </trkpt>
      <trkpt lat="43.77424" lon="7.24947">
        <ele>676.92828369141</ele>
        <time>2014-01-18T10:06:51Z</time>
      </trkpt>
      <trkpt lat="43.77437" lon="7.24945">
        <ele>676.04766845703</ele>
        <time>2014-01-18T10:06:56Z</time>
      </trkpt>
      <trkpt lat="43.77438" lon="7.24944">
        <ele>676.00128173828</ele>
        <time>2014-01-18T10:06:57Z</time>
      </trkpt>
      <trkpt lat="43.7744" lon="7.24945">
        <ele>676.24847412109</ele>
        <time>2014-01-18T10:06:59Z</time>
      </trkpt>
      <trkpt lat="43.77451" lon="7.24942">
        <ele>674.63262939453</ele>
        <time>2014-01-18T10:07:04Z</time>
      </trkpt>
      <trkpt lat="43.7746" lon="7.24944">
        <ele>674.11633300781</ele>
        <time>2014-01-18T10:07:08Z</time>
      </trkpt>
      <trkpt lat="43.77468" lon="7.24944">
        <ele>673.19586181641</ele>
        <time>2014-01-18T10:07:11Z</time>
      </trkpt>
      <trkpt lat="43.77485" lon="7.2494">
        <ele>671.15625</ele>
        <time>2014-01-18T10:07:17Z</time>
      </trkpt>
      <trkpt lat="43.775" lon="7.24937">
        <ele>669.30847167969</ele>
        <time>2014-01-18T10:07:22Z</time>
      </trkpt>
      <trkpt lat="43.77515" lon="7.24934">
        <ele>669.48016357422</ele>
        <time>2014-01-18T10:07:27Z</time>
      </trkpt>
      <trkpt lat="43.77528" lon="7.24931">
        <ele>669.50305175781</ele>
        <time>2014-01-18T10:07:32Z</time>
      </trkpt>
      <trkpt lat="43.77536" lon="7.24929">
        <ele>669.23699951172</ele>
        <time>2014-01-18T10:07:35Z</time>
      </trkpt>
      <trkpt lat="43.77549" lon="7.24926">
        <ele>668.73913574219</ele>
        <time>2014-01-18T10:07:40Z</time>
      </trkpt>
      <trkpt lat="43.77551" lon="7.24925">
        <ele>668.51599121094</ele>
        <time>2014-01-18T10:07:41Z</time>
      </trkpt>
      <trkpt lat="43.77567" lon="7.2492">
        <ele>667.58044433594</ele>
        <time>2014-01-18T10:07:47Z</time>
      </trkpt>
      <trkpt lat="43.7758" lon="7.24916">
        <ele>666.77923583984</ele>
        <time>2014-01-18T10:07:52Z</time>
      </trkpt>
      <trkpt lat="43.77592" lon="7.24913">
        <ele>666.34271240234</ele>
        <time>2014-01-18T10:07:57Z</time>
      </trkpt>
      <trkpt lat="43.77603" lon="7.24909">
        <ele>666.02581787109</ele>
        <time>2014-01-18T10:08:02Z</time>
      </trkpt>
      <trkpt lat="43.77613" lon="7.24907">
        <ele>665.99822998047</ele>
        <time>2014-01-18T10:08:06Z</time>
      </trkpt>
      <trkpt lat="43.77625" lon="7.24906">
        <ele>667.12286376953</ele>
        <time>2014-01-18T10:08:11Z</time>
      </trkpt>
      <trkpt lat="43.77636" lon="7.24904">
        <ele>667.40130615234</ele>
        <time>2014-01-18T10:08:15Z</time>
      </trkpt>
      <trkpt lat="43.77647" lon="7.24906">
        <ele>668.61022949219</ele>
        <time>2014-01-18T10:08:19Z</time>
      </trkpt>
      <trkpt lat="43.77662" lon="7.24905">
        <ele>669.01196289062</ele>
        <time>2014-01-18T10:08:24Z</time>
      </trkpt>
      <trkpt lat="43.77668" lon="7.24905">
        <ele>669.29553222656</ele>
        <time>2014-01-18T10:08:26Z</time>
      </trkpt>
      <trkpt lat="43.77682" lon="7.24915">
        <ele>673.11987304688</ele>
        <time>2014-01-18T10:08:30Z</time>
      </trkpt>
      <trkpt lat="43.77692" lon="7.24923">
        <ele>675.75073242188</ele>
        <time>2014-01-18T10:08:34Z</time>
      </trkpt>
      <trkpt lat="43.77701" lon="7.24925">
        <ele>676.48168945312</ele>
        <time>2014-01-18T10:08:38Z</time>
      </trkpt>
      <trkpt lat="43.77717" lon="7.24919">
        <ele>675.46026611328</ele>
        <time>2014-01-18T10:08:44Z</time>
      </trkpt>
      <trkpt lat="43.77727" lon="7.24914">
        <ele>674.14892578125</ele>
        <time>2014-01-18T10:08:48Z</time>
      </trkpt>
      <trkpt lat="43.77742" lon="7.24906">
        <ele>672.10540771484</ele>
        <time>2014-01-18T10:08:54Z</time>
      </trkpt>
      <trkpt lat="43.77754" lon="7.249">
        <ele>670.40264892578</ele>
        <time>2014-01-18T10:08:59Z</time>
      </trkpt>
      <trkpt lat="43.77769" lon="7.24894">
        <ele>667.78942871094</ele>
        <time>2014-01-18T10:09:05Z</time>
      </trkpt>
      <trkpt lat="43.77781" lon="7.24885">
        <ele>665.17797851562</ele>
        <time>2014-01-18T10:09:10Z</time>
      </trkpt>
      <trkpt lat="43.77792" lon="7.24875">
        <ele>662.91198730469</ele>
        <time>2014-01-18T10:09:15Z</time>
      </trkpt>
      <trkpt lat="43.77801" lon="7.2487">
        <ele>661.63488769531</ele>
        <time>2014-01-18T10:09:20Z</time>
      </trkpt>
      <trkpt lat="43.77809" lon="7.24872">
        <ele>660.70654296875</ele>
        <time>2014-01-18T10:09:23Z</time>
      </trkpt>
      <trkpt lat="43.77815" lon="7.24874">
        <ele>659.32598876953</ele>
        <time>2014-01-18T10:09:26Z</time>
      </trkpt>
      <trkpt lat="43.77827" lon="7.24865">
        <ele>654.50573730469</ele>
        <time>2014-01-18T10:09:32Z</time>
      </trkpt>
      <trkpt lat="43.77837" lon="7.24859">
        <ele>650.46276855469</ele>
        <time>2014-01-18T10:09:37Z</time>
      </trkpt>
      <trkpt lat="43.77849" lon="7.24853">
        <ele>645.90606689453</ele>
        <time>2014-01-18T10:09:43Z</time>
      </trkpt>
      <trkpt lat="43.77856" lon="7.24845">
        <ele>641.76885986328</ele>
        <time>2014-01-18T10:09:47Z</time>
      </trkpt>
      <trkpt lat="43.77863" lon="7.24835">
        <ele>636.71667480469</ele>
        <time>2014-01-18T10:09:51Z</time>
      </trkpt>
      <trkpt lat="43.77874" lon="7.24829">
        <ele>631.03625488281</ele>
        <time>2014-01-18T10:09:56Z</time>
      </trkpt>
      <trkpt lat="43.77882" lon="7.24823">
        <ele>626.36364746094</ele>
        <time>2014-01-18T10:10:00Z</time>
      </trkpt>
      <trkpt lat="43.7789" lon="7.24817">
        <ele>622.0478515625</ele>
        <time>2014-01-18T10:10:04Z</time>
      </trkpt>
      <trkpt lat="43.77903" lon="7.24806">
        <ele>614.88977050781</ele>
        <time>2014-01-18T10:10:10Z</time>
      </trkpt>
      <trkpt lat="43.7791" lon="7.248">
        <ele>611.72344970703</ele>
        <time>2014-01-18T10:10:13Z</time>
      </trkpt>
      <trkpt lat="43.77921" lon="7.24804">
        <ele>607.69964599609</ele>
        <time>2014-01-18T10:10:18Z</time>
      </trkpt>
      <trkpt lat="43.77927" lon="7.24804">
        <ele>604.75555419922</ele>
        <time>2014-01-18T10:10:21Z</time>
      </trkpt>
      <trkpt lat="43.77935" lon="7.24802">
        <ele>600.5283203125</ele>
        <time>2014-01-18T10:10:25Z</time>
      </trkpt>
      <trkpt lat="43.7794" lon="7.24812">
        <ele>599.18060302734</ele>
        <time>2014-01-18T10:10:28Z</time>
      </trkpt>
      <trkpt lat="43.77942" lon="7.24814">
        <ele>598.69519042969</ele>
        <time>2014-01-18T10:10:30Z</time>
      </trkpt>
      <trkpt lat="43.7795" lon="7.24818">
        <ele>596.13610839844</ele>
        <time>2014-01-18T10:10:34Z</time>
      </trkpt>
      <trkpt lat="43.77952" lon="7.24819">
        <ele>595.60144042969</ele>
        <time>2014-01-18T10:10:35Z</time>
      </trkpt>
      <trkpt lat="43.77959" lon="7.24808">
        <ele>591.41534423828</ele>
        <time>2014-01-18T10:10:40Z</time>
      </trkpt>
      <trkpt lat="43.77962" lon="7.24802">
        <ele>589.32788085938</ele>
        <time>2014-01-18T10:10:43Z</time>
      </trkpt>
      <trkpt lat="43.77967" lon="7.24797">
        <ele>586.72009277344</ele>
        <time>2014-01-18T10:10:46Z</time>
      </trkpt>
      <trkpt lat="43.77975" lon="7.24794">
        <ele>583.54931640625</ele>
        <time>2014-01-18T10:10:51Z</time>
      </trkpt>
      <trkpt lat="43.77978" lon="7.24804">
        <ele>584.21667480469</ele>
        <time>2014-01-18T10:10:54Z</time>
      </trkpt>
      <trkpt lat="43.77979" lon="7.24813">
        <ele>585.7255859375</ele>
        <time>2014-01-18T10:10:57Z</time>
      </trkpt>
      <trkpt lat="43.7798" lon="7.24821">
        <ele>587.29583740234</ele>
        <time>2014-01-18T10:11:00Z</time>
      </trkpt>
      <trkpt lat="43.77981" lon="7.24827">
        <ele>588.60278320312</ele>
        <time>2014-01-18T10:11:02Z</time>
      </trkpt>
      <trkpt lat="43.77981" lon="7.24834">
        <ele>590.390625</ele>
        <time>2014-01-18T10:11:04Z</time>
      </trkpt>
      <trkpt lat="43.77982" lon="7.24849">
        <ele>593.73291015625</ele>
        <time>2014-01-18T10:11:08Z</time>
      </trkpt>
      <trkpt lat="43.77986" lon="7.24865">
        <ele>596.10498046875</ele>
        <time>2014-01-18T10:11:12Z</time>
      </trkpt>
      <trkpt lat="43.77989" lon="7.24875">
        <ele>596.45520019531</ele>
        <time>2014-01-18T10:11:15Z</time>
      </trkpt>
      <trkpt lat="43.77998" lon="7.24878">
        <ele>594.10687255859</ele>
        <time>2014-01-18T10:11:19Z</time>
      </trkpt>
      <trkpt lat="43.78003" lon="7.2488">
        <ele>592.86157226562</ele>
        <time>2014-01-18T10:11:21Z</time>
      </trkpt>
      <trkpt lat="43.78014" lon="7.24885">
        <ele>589.2978515625</ele>
        <time>2014-01-18T10:11:26Z</time>
      </trkpt>
      <trkpt lat="43.78025" lon="7.24885">
        <ele>585.548828125</ele>
        <time>2014-01-18T10:11:30Z</time>
      </trkpt>
      <trkpt lat="43.78028" lon="7.24885">
        <ele>584.30029296875</ele>
        <time>2014-01-18T10:11:32Z</time>
      </trkpt>
      <trkpt lat="43.78036" lon="7.24884">
        <ele>582.24719238281</ele>
        <time>2014-01-18T10:11:36Z</time>
      </trkpt>
      <trkpt lat="43.7805" lon="7.24883">
        <ele>578.42944335938</ele>
        <time>2014-01-18T10:11:42Z</time>
      </trkpt>
      <trkpt lat="43.78056" lon="7.24883">
        <ele>577.09680175781</ele>
        <time>2014-01-18T10:11:44Z</time>
      </trkpt>
      <trkpt lat="43.78071" lon="7.24886">
        <ele>573.12109375</ele>
        <time>2014-01-18T10:11:49Z</time>
      </trkpt>
      <trkpt lat="43.78083" lon="7.24885">
        <ele>569.68103027344</ele>
        <time>2014-01-18T10:11:53Z</time>
      </trkpt>
      <trkpt lat="43.78088" lon="7.24885">
        <ele>568.47399902344</ele>
        <time>2014-01-18T10:11:55Z</time>
      </trkpt>
      <trkpt lat="43.78098" lon="7.24883">
        <ele>566.12945556641</ele>
        <time>2014-01-18T10:11:59Z</time>
      </trkpt>
      <trkpt lat="43.78101" lon="7.24881">
        <ele>565.13159179688</ele>
        <time>2014-01-18T10:12:01Z</time>
      </trkpt>
      <trkpt lat="43.78112" lon="7.24878">
        <ele>562.77282714844</ele>
        <time>2014-01-18T10:12:05Z</time>
      </trkpt>
      <trkpt lat="43.78115" lon="7.24879">
        <ele>562.31842041016</ele>
        <time>2014-01-18T10:12:06Z</time>
      </trkpt>
      <trkpt lat="43.78128" lon="7.24882">
        <ele>560.56115722656</ele>
        <time>2014-01-18T10:12:11Z</time>
      </trkpt>
      <trkpt lat="43.78143" lon="7.24888">
        <ele>558.31701660156</ele>
        <time>2014-01-18T10:12:16Z</time>
      </trkpt>
      <trkpt lat="43.78146" lon="7.2489">
        <ele>557.62664794922</ele>
        <time>2014-01-18T10:12:17Z</time>
      </trkpt>
      <trkpt lat="43.78163" lon="7.24903">
        <ele>553.27618408203</ele>
        <time>2014-01-18T10:12:23Z</time>
      </trkpt>
      <trkpt lat="43.78171" lon="7.24907">
        <ele>551.22857666016</ele>
        <time>2014-01-18T10:12:26Z</time>
      </trkpt>
      <trkpt lat="43.7818" lon="7.24916">
        <ele>549.32934570312</ele>
        <time>2014-01-18T10:12:31Z</time>
      </trkpt>
      <trkpt lat="43.78187" lon="7.24929">
        <ele>547.89575195312</ele>
        <time>2014-01-18T10:12:36Z</time>
      </trkpt>
      <trkpt lat="43.78196" lon="7.24936">
        <ele>545.53814697266</ele>
        <time>2014-01-18T10:12:39Z</time>
      </trkpt>
      <trkpt lat="43.78199" lon="7.24939">
        <ele>544.14685058594</ele>
        <time>2014-01-18T10:12:41Z</time>
      </trkpt>
      <trkpt lat="43.78202" lon="7.24941">
        <ele>542.71002197266</ele>
        <time>2014-01-18T10:12:42Z</time>
      </trkpt>
      <trkpt lat="43.78205" lon="7.24954">
        <ele>541.49450683594</ele>
        <time>2014-01-18T10:12:47Z</time>
      </trkpt>
      <trkpt lat="43.78204" lon="7.24962">
        <ele>542.48327636719</ele>
        <time>2014-01-18T10:12:50Z</time>
      </trkpt>
      <trkpt lat="43.78204" lon="7.24969">
        <ele>542.29467773438</ele>
        <time>2014-01-18T10:12:52Z</time>
      </trkpt>
      <trkpt lat="43.78207" lon="7.24979">
        <ele>541.32452392578</ele>
        <time>2014-01-18T10:12:55Z</time>
      </trkpt>
      <trkpt lat="43.78212" lon="7.24991">
        <ele>539.69763183594</ele>
        <time>2014-01-18T10:12:59Z</time>
      </trkpt>
      <trkpt lat="43.78218" lon="7.25005">
        <ele>538.65509033203</ele>
        <time>2014-01-18T10:13:03Z</time>
      </trkpt>
      <trkpt lat="43.78219" lon="7.25013">
        <ele>538.81396484375</ele>
        <time>2014-01-18T10:13:05Z</time>
      </trkpt>
      <trkpt lat="43.78221" lon="7.2503">
        <ele>539.72857666016</ele>
        <time>2014-01-18T10:13:09Z</time>
      </trkpt>
      <trkpt lat="43.78222" lon="7.25034">
        <ele>540.19781494141</ele>
        <time>2014-01-18T10:13:10Z</time>
      </trkpt>
      <trkpt lat="43.78223" lon="7.2505">
        <ele>543.06237792969</ele>
        <time>2014-01-18T10:13:14Z</time>
      </trkpt>
      <trkpt lat="43.78222" lon="7.25061">
        <ele>544.42297363281</ele>
        <time>2014-01-18T10:13:17Z</time>
      </trkpt>
      <trkpt lat="43.78222" lon="7.25065">
        <ele>544.67242431641</ele>
        <time>2014-01-18T10:13:18Z</time>
      </trkpt>
      <trkpt lat="43.78223" lon="7.25075">
        <ele>545.40710449219</ele>
        <time>2014-01-18T10:13:21Z</time>
      </trkpt>
      <trkpt lat="43.78218" lon="7.25092">
        <ele>545.95928955078</ele>
        <time>2014-01-18T10:13:26Z</time>
      </trkpt>
      <trkpt lat="43.78217" lon="7.251">
        <ele>546.06500244141</ele>
        <time>2014-01-18T10:13:29Z</time>
      </trkpt>
      <trkpt lat="43.78215" lon="7.25113">
        <ele>546.32885742188</ele>
        <time>2014-01-18T10:13:33Z</time>
      </trkpt>
      <trkpt lat="43.7821" lon="7.25121">
        <ele>545.93133544922</ele>
        <time>2014-01-18T10:13:37Z</time>
      </trkpt>
      <trkpt lat="43.78201" lon="7.25138">
        <ele>544.48516845703</ele>
        <time>2014-01-18T10:13:44Z</time>
      </trkpt>
      <trkpt lat="43.78196" lon="7.25156">
        <ele>543.35980224609</ele>
        <time>2014-01-18T10:13:49Z</time>
      </trkpt>
      <trkpt lat="43.78189" lon="7.25169">
        <ele>543.52410888672</ele>
        <time>2014-01-18T10:13:55Z</time>
      </trkpt>
      <trkpt lat="43.78185" lon="7.25177">
        <ele>543.65972900391</ele>
        <time>2014-01-18T10:13:58Z</time>
      </trkpt>
      <trkpt lat="43.78179" lon="7.2519">
        <ele>543.86572265625</ele>
        <time>2014-01-18T10:14:03Z</time>
      </trkpt>
      <trkpt lat="43.78174" lon="7.25197">
        <ele>544.09436035156</ele>
        <time>2014-01-18T10:14:07Z</time>
      </trkpt>
      <trkpt lat="43.78168" lon="7.25203">
        <ele>544.27545166016</ele>
        <time>2014-01-18T10:14:11Z</time>
      </trkpt>
      <trkpt lat="43.78161" lon="7.25213">
        <ele>544.86883544922</ele>
        <time>2014-01-18T10:14:17Z</time>
      </trkpt>
      <trkpt lat="43.78155" lon="7.25222">
        <ele>545.14581298828</ele>
        <time>2014-01-18T10:14:22Z</time>
      </trkpt>
      <trkpt lat="43.78146" lon="7.25237">
        <ele>545.01171875</ele>
        <time>2014-01-18T10:14:29Z</time>
      </trkpt>
      <trkpt lat="43.78138" lon="7.25247">
        <ele>544.55682373047</ele>
        <time>2014-01-18T10:14:34Z</time>
      </trkpt>
      <trkpt lat="43.78137" lon="7.25249">
        <ele>544.52972412109</ele>
        <time>2014-01-18T10:14:35Z</time>
      </trkpt>
      <trkpt lat="43.78127" lon="7.2526">
        <ele>545.53088378906</ele>
        <time>2014-01-18T10:14:42Z</time>
      </trkpt>
      <trkpt lat="43.78115" lon="7.25269">
        <ele>546.47711181641</ele>
        <time>2014-01-18T10:14:49Z</time>
      </trkpt>
      <trkpt lat="43.78106" lon="7.25277">
        <ele>547.10778808594</ele>
        <time>2014-01-18T10:14:55Z</time>
      </trkpt>
      <trkpt lat="43.78097" lon="7.25286">
        <ele>546.93884277344</ele>
        <time>2014-01-18T10:15:01Z</time>
      </trkpt>
      <trkpt lat="43.78088" lon="7.25293">
        <ele>546.34436035156</ele>
        <time>2014-01-18T10:15:06Z</time>
      </trkpt>
      <trkpt lat="43.78082" lon="7.25299">
        <ele>545.53753662109</ele>
        <time>2014-01-18T10:15:10Z</time>
      </trkpt>
      <trkpt lat="43.78074" lon="7.25306">
        <ele>545.32275390625</ele>
        <time>2014-01-18T10:15:15Z</time>
      </trkpt>
      <trkpt lat="43.78064" lon="7.25312">
        <ele>546.41448974609</ele>
        <time>2014-01-18T10:15:21Z</time>
      </trkpt>
      <trkpt lat="43.78059" lon="7.25315">
        <ele>546.90203857422</ele>
        <time>2014-01-18T10:15:25Z</time>
      </trkpt>
      <trkpt lat="43.78053" lon="7.25321">
        <ele>547.66925048828</ele>
        <time>2014-01-18T10:15:30Z</time>
      </trkpt>
      <trkpt lat="43.78049" lon="7.25324">
        <ele>548.46917724609</ele>
        <time>2014-01-18T10:15:33Z</time>
      </trkpt>
      <trkpt lat="43.78042" lon="7.2533">
        <ele>549.55749511719</ele>
        <time>2014-01-18T10:15:38Z</time>
      </trkpt>
      <trkpt lat="43.78036" lon="7.25335">
        <ele>550.50659179688</ele>
        <time>2014-01-18T10:15:43Z</time>
      </trkpt>
      <trkpt lat="43.7803" lon="7.25338">
        <ele>551.28076171875</ele>
        <time>2014-01-18T10:15:47Z</time>
      </trkpt>
      <trkpt lat="43.78023" lon="7.25347">
        <ele>550.87377929688</ele>
        <time>2014-01-18T10:15:53Z</time>
      </trkpt>
      <trkpt lat="43.78012" lon="7.25359">
        <ele>550.72912597656</ele>
        <time>2014-01-18T10:16:00Z</time>
      </trkpt>
      <trkpt lat="43.78009" lon="7.25363">
        <ele>550.85064697266</ele>
        <time>2014-01-18T10:16:02Z</time>
      </trkpt>
      <trkpt lat="43.78004" lon="7.25368">
        <ele>551.65954589844</ele>
        <time>2014-01-18T10:16:05Z</time>
      </trkpt>
      <trkpt lat="43.77996" lon="7.25376">
        <ele>552.63317871094</ele>
        <time>2014-01-18T10:16:10Z</time>
      </trkpt>
      <trkpt lat="43.77995" lon="7.25379">
        <ele>552.69512939453</ele>
        <time>2014-01-18T10:16:11Z</time>
      </trkpt>
      <trkpt lat="43.7799" lon="7.25385">
        <ele>552.80358886719</ele>
        <time>2014-01-18T10:16:14Z</time>
      </trkpt>
      <trkpt lat="43.77984" lon="7.25395">
        <ele>553.66394042969</ele>
        <time>2014-01-18T10:16:18Z</time>
      </trkpt>
      <trkpt lat="43.77977" lon="7.25403">
        <ele>555.97473144531</ele>
        <time>2014-01-18T10:16:23Z</time>
      </trkpt>
      <trkpt lat="43.77969" lon="7.25409">
        <ele>558.69311523438</ele>
        <time>2014-01-18T10:16:28Z</time>
      </trkpt>
      <trkpt lat="43.77961" lon="7.25417">
        <ele>560.0283203125</ele>
        <time>2014-01-18T10:16:34Z</time>
      </trkpt>
      <trkpt lat="43.77959" lon="7.25419">
        <ele>560.57379150391</ele>
        <time>2014-01-18T10:16:36Z</time>
      </trkpt>
      <trkpt lat="43.77946" lon="7.25429">
        <ele>562.37005615234</ele>
        <time>2014-01-18T10:16:44Z</time>
      </trkpt>
      <trkpt lat="43.77942" lon="7.2544">
        <ele>562.01641845703</ele>
        <time>2014-01-18T10:16:48Z</time>
      </trkpt>
      <trkpt lat="43.7794" lon="7.25456">
        <ele>561.33374023438</ele>
        <time>2014-01-18T10:16:54Z</time>
      </trkpt>
      <trkpt lat="43.77937" lon="7.25468">
        <ele>561.91467285156</ele>
        <time>2014-01-18T10:16:59Z</time>
      </trkpt>
      <trkpt lat="43.77933" lon="7.25476">
        <ele>563.8994140625</ele>
        <time>2014-01-18T10:17:03Z</time>
      </trkpt>
      <trkpt lat="43.7793" lon="7.25484">
        <ele>565.4375</ele>
        <time>2014-01-18T10:17:08Z</time>
      </trkpt>
      <trkpt lat="43.77926" lon="7.25492">
        <ele>567.16784667969</ele>
        <time>2014-01-18T10:17:12Z</time>
      </trkpt>
      <trkpt lat="43.77924" lon="7.25496">
        <ele>568.32141113281</ele>
        <time>2014-01-18T10:17:14Z</time>
      </trkpt>
      <trkpt lat="43.77918" lon="7.25508">
        <ele>570.96453857422</ele>
        <time>2014-01-18T10:17:19Z</time>
      </trkpt>
      <trkpt lat="43.77916" lon="7.2551">
        <ele>572.263671875</ele>
        <time>2014-01-18T10:17:22Z</time>
      </trkpt>
      <trkpt lat="43.77911" lon="7.25516">
        <ele>574.59222412109</ele>
        <time>2014-01-18T10:17:26Z</time>
      </trkpt>
      <trkpt lat="43.77906" lon="7.25523">
        <ele>576.95471191406</ele>
        <time>2014-01-18T10:17:31Z</time>
      </trkpt>
      <trkpt lat="43.77899" lon="7.2553">
        <ele>580.439453125</ele>
        <time>2014-01-18T10:17:37Z</time>
      </trkpt>
      <trkpt lat="43.77898" lon="7.25532">
        <ele>580.73773193359</ele>
        <time>2014-01-18T10:17:38Z</time>
      </trkpt>
      <trkpt lat="43.77896" lon="7.25542">
        <ele>581.046875</ele>
        <time>2014-01-18T10:17:44Z</time>
      </trkpt>
      <trkpt lat="43.77896" lon="7.25543">
        <ele>580.93499755859</ele>
        <time>2014-01-18T10:17:45Z</time>
      </trkpt>
      <trkpt lat="43.77895" lon="7.25548">
        <ele>580.63873291016</ele>
        <time>2014-01-18T10:17:48Z</time>
      </trkpt>
      <trkpt lat="43.77892" lon="7.25557">
        <ele>581.6943359375</ele>
        <time>2014-01-18T10:17:53Z</time>
      </trkpt>
      <trkpt lat="43.77888" lon="7.25564">
        <ele>583.75665283203</ele>
        <time>2014-01-18T10:17:58Z</time>
      </trkpt>
      <trkpt lat="43.77883" lon="7.25571">
        <ele>586.443359375</ele>
        <time>2014-01-18T10:18:02Z</time>
      </trkpt>
      <trkpt lat="43.77879" lon="7.2558">
        <ele>588.52886962891</ele>
        <time>2014-01-18T10:18:08Z</time>
      </trkpt>
      <trkpt lat="43.7788" lon="7.25582">
        <ele>588.51934814453</ele>
        <time>2014-01-18T10:18:09Z</time>
      </trkpt>
      <trkpt lat="43.77885" lon="7.25589">
        <ele>586.95483398438</ele>
        <time>2014-01-18T10:18:15Z</time>
      </trkpt>
      <trkpt lat="43.7788" lon="7.25593">
        <ele>589.81402587891</ele>
        <time>2014-01-18T10:18:20Z</time>
      </trkpt>
      <trkpt lat="43.77871" lon="7.2559">
        <ele>593.01245117188</ele>
        <time>2014-01-18T10:18:26Z</time>
      </trkpt>
      <trkpt lat="43.77868" lon="7.25588">
        <ele>593.81750488281</ele>
        <time>2014-01-18T10:18:30Z</time>
      </trkpt>
      <trkpt lat="43.77868" lon="7.2559">
        <ele>594.15148925781</ele>
        <time>2014-01-18T10:18:35Z</time>
      </trkpt>
      <trkpt lat="43.77867" lon="7.2559">
        <ele>594.47918701172</ele>
        <time>2014-01-18T10:18:40Z</time>
      </trkpt>
      <trkpt lat="43.77866" lon="7.25591">
        <ele>595.32659912109</ele>
        <time>2014-01-18T10:18:49Z</time>
      </trkpt>
      <trkpt lat="43.77864" lon="7.25594">
        <ele>596.17120361328</ele>
        <time>2014-01-18T10:18:55Z</time>
      </trkpt>
      <trkpt lat="43.77864" lon="7.25597">
        <ele>596.74194335938</ele>
        <time>2014-01-18T10:19:02Z</time>
      </trkpt>
      <trkpt lat="43.77863" lon="7.25603">
        <ele>597.91235351562</ele>
        <time>2014-01-18T10:19:08Z</time>
      </trkpt>
      <trkpt lat="43.77864" lon="7.25607">
        <ele>598.00927734375</ele>
        <time>2014-01-18T10:19:13Z</time>
      </trkpt>
      <trkpt lat="43.77867" lon="7.25615">
        <ele>597.53381347656</ele>
        <time>2014-01-18T10:19:19Z</time>
      </trkpt>
      <trkpt lat="43.77868" lon="7.25616">
        <ele>597.25115966797</ele>
        <time>2014-01-18T10:19:20Z</time>
      </trkpt>
      <trkpt lat="43.7787" lon="7.25621">
        <ele>596.56951904297</ele>
        <time>2014-01-18T10:19:24Z</time>
      </trkpt>
      <trkpt lat="43.77871" lon="7.25628">
        <ele>596.74987792969</ele>
        <time>2014-01-18T10:19:30Z</time>
      </trkpt>
      <trkpt lat="43.77869" lon="7.25631">
        <ele>597.52899169922</ele>
        <time>2014-01-18T10:19:33Z</time>
      </trkpt>
      <trkpt lat="43.77863" lon="7.25631">
        <ele>599.27783203125</ele>
        <time>2014-01-18T10:19:40Z</time>
      </trkpt>
      <trkpt lat="43.77859" lon="7.2563">
        <ele>600.7919921875</ele>
        <time>2014-01-18T10:19:45Z</time>
      </trkpt>
      <trkpt lat="43.77856" lon="7.25627">
        <ele>601.80676269531</ele>
        <time>2014-01-18T10:19:49Z</time>
      </trkpt>
      <trkpt lat="43.77852" lon="7.25625">
        <ele>603.51080322266</ele>
        <time>2014-01-18T10:19:55Z</time>
      </trkpt>
      <trkpt lat="43.77848" lon="7.25627">
        <ele>604.89709472656</ele>
        <time>2014-01-18T10:19:59Z</time>
      </trkpt>
      <trkpt lat="43.77843" lon="7.25627">
        <ele>607.12457275391</ele>
        <time>2014-01-18T10:20:05Z</time>
      </trkpt>
      <trkpt lat="43.77837" lon="7.25627">
        <ele>609.27770996094</ele>
        <time>2014-01-18T10:20:12Z</time>
      </trkpt>
      <trkpt lat="43.77831" lon="7.25627">
        <ele>612.05181884766</ele>
        <time>2014-01-18T10:20:19Z</time>
      </trkpt>
      <trkpt lat="43.77827" lon="7.25627">
        <ele>613.91607666016</ele>
        <time>2014-01-18T10:20:23Z</time>
      </trkpt>
      <trkpt lat="43.77824" lon="7.25622">
        <ele>615.04388427734</ele>
        <time>2014-01-18T10:20:28Z</time>
      </trkpt>
      <trkpt lat="43.77821" lon="7.25617">
        <ele>616.26953125</ele>
        <time>2014-01-18T10:20:34Z</time>
      </trkpt>
      <trkpt lat="43.77816" lon="7.25616">
        <ele>618.92169189453</ele>
        <time>2014-01-18T10:20:40Z</time>
      </trkpt>
      <trkpt lat="43.77812" lon="7.25624">
        <ele>621.78503417969</ele>
        <time>2014-01-18T10:20:46Z</time>
      </trkpt>
      <trkpt lat="43.77809" lon="7.25624">
        <ele>623.68530273438</ele>
        <time>2014-01-18T10:20:50Z</time>
      </trkpt>
      <trkpt lat="43.77807" lon="7.25621">
        <ele>624.34448242188</ele>
        <time>2014-01-18T10:20:54Z</time>
      </trkpt>
      <trkpt lat="43.77804" lon="7.25611">
        <ele>624.51531982422</ele>
        <time>2014-01-18T10:21:01Z</time>
      </trkpt>
      <trkpt lat="43.77804" lon="7.2561">
        <ele>624.52239990234</ele>
        <time>2014-01-18T10:21:02Z</time>
      </trkpt>
      <trkpt lat="43.77805" lon="7.25603">
        <ele>624.21160888672</ele>
        <time>2014-01-18T10:21:08Z</time>
      </trkpt>
      <trkpt lat="43.77801" lon="7.25608">
        <ele>625.39025878906</ele>
        <time>2014-01-18T10:21:13Z</time>
      </trkpt>
      <trkpt lat="43.77796" lon="7.25613">
        <ele>626.92639160156</ele>
        <time>2014-01-18T10:21:20Z</time>
      </trkpt>
      <trkpt lat="43.77793" lon="7.25619">
        <ele>628.29553222656</ele>
        <time>2014-01-18T10:21:25Z</time>
      </trkpt>
      <trkpt lat="43.77788" lon="7.25625">
        <ele>630.33892822266</ele>
        <time>2014-01-18T10:21:31Z</time>
      </trkpt>
      <trkpt lat="43.77786" lon="7.25632">
        <ele>631.26440429688</ele>
        <time>2014-01-18T10:21:35Z</time>
      </trkpt>
      <trkpt lat="43.77784" lon="7.25632">
        <ele>631.98883056641</ele>
        <time>2014-01-18T10:21:39Z</time>
      </trkpt>
      <trkpt lat="43.77783" lon="7.25625">
        <ele>631.50427246094</ele>
        <time>2014-01-18T10:21:46Z</time>
      </trkpt>
      <trkpt lat="43.77781" lon="7.25624">
        <ele>632.11248779297</ele>
        <time>2014-01-18T10:21:50Z</time>
      </trkpt>
      <trkpt lat="43.77776" lon="7.25631">
        <ele>634.15985107422</ele>
        <time>2014-01-18T10:21:57Z</time>
      </trkpt>
      <trkpt lat="43.77773" lon="7.25637">
        <ele>635.62530517578</ele>
        <time>2014-01-18T10:22:02Z</time>
      </trkpt>
      <trkpt lat="43.77768" lon="7.2564">
        <ele>637.79974365234</ele>
        <time>2014-01-18T10:22:08Z</time>
      </trkpt>
      <trkpt lat="43.77763" lon="7.25645">
        <ele>640.32312011719</ele>
        <time>2014-01-18T10:22:15Z</time>
      </trkpt>
      <trkpt lat="43.77759" lon="7.25651">
        <ele>642.39685058594</ele>
        <time>2014-01-18T10:22:22Z</time>
      </trkpt>
      <trkpt lat="43.77754" lon="7.25655">
        <ele>644.51513671875</ele>
        <time>2014-01-18T10:22:29Z</time>
      </trkpt>
      <trkpt lat="43.77749" lon="7.25661">
        <ele>646.87030029297</ele>
        <time>2014-01-18T10:22:36Z</time>
      </trkpt>
      <trkpt lat="43.77745" lon="7.25667">
        <ele>649.02551269531</ele>
        <time>2014-01-18T10:22:43Z</time>
      </trkpt>
      <trkpt lat="43.77742" lon="7.25676">
        <ele>651.06475830078</ele>
        <time>2014-01-18T10:22:50Z</time>
      </trkpt>
      <trkpt lat="43.77738" lon="7.25686">
        <ele>653.5732421875</ele>
        <time>2014-01-18T10:22:58Z</time>
      </trkpt>
      <trkpt lat="43.77736" lon="7.25691">
        <ele>654.75244140625</ele>
        <time>2014-01-18T10:23:02Z</time>
      </trkpt>
      <trkpt lat="43.77731" lon="7.25701">
        <ele>656.87371826172</ele>
        <time>2014-01-18T10:23:10Z</time>
      </trkpt>
      <trkpt lat="43.77728" lon="7.25712">
        <ele>658.21276855469</ele>
        <time>2014-01-18T10:23:18Z</time>
      </trkpt>
      <trkpt lat="43.77727" lon="7.25724">
        <ele>658.72235107422</ele>
        <time>2014-01-18T10:23:26Z</time>
      </trkpt>
      <trkpt lat="43.77725" lon="7.2573">
        <ele>659.32751464844</ele>
        <time>2014-01-18T10:23:31Z</time>
      </trkpt>
      <trkpt lat="43.77725" lon="7.25734">
        <ele>659.36828613281</ele>
        <time>2014-01-18T10:23:34Z</time>
      </trkpt>
      <trkpt lat="43.77723" lon="7.25747">
        <ele>659.93695068359</ele>
        <time>2014-01-18T10:23:43Z</time>
      </trkpt>
      <trkpt lat="43.77723" lon="7.25748">
        <ele>659.93896484375</ele>
        <time>2014-01-18T10:23:44Z</time>
      </trkpt>
      <trkpt lat="43.77724" lon="7.25764">
        <ele>660.67883300781</ele>
        <time>2014-01-18T10:23:53Z</time>
      </trkpt>
      <trkpt lat="43.77723" lon="7.25774">
        <ele>661.64837646484</ele>
        <time>2014-01-18T10:23:59Z</time>
      </trkpt>
      <trkpt lat="43.77718" lon="7.25789">
        <ele>665.58923339844</ele>
        <time>2014-01-18T10:24:09Z</time>
      </trkpt>
      <trkpt lat="43.77715" lon="7.25798">
        <ele>668.29602050781</ele>
        <time>2014-01-18T10:24:15Z</time>
      </trkpt>
      <trkpt lat="43.7771" lon="7.25809">
        <ele>671.69171142578</ele>
        <time>2014-01-18T10:24:23Z</time>
      </trkpt>
      <trkpt lat="43.77706" lon="7.25819">
        <ele>674.44134521484</ele>
        <time>2014-01-18T10:24:29Z</time>
      </trkpt>
      <trkpt lat="43.77698" lon="7.25831">
        <ele>677.40832519531</ele>
        <time>2014-01-18T10:24:38Z</time>
      </trkpt>
      <trkpt lat="43.77689" lon="7.25841">
        <ele>680.16223144531</ele>
        <time>2014-01-18T10:24:46Z</time>
      </trkpt>
      <trkpt lat="43.77682" lon="7.25851">
        <ele>682.79809570312</ele>
        <time>2014-01-18T10:24:54Z</time>
      </trkpt>
      <trkpt lat="43.77674" lon="7.2586">
        <ele>684.76312255859</ele>
        <time>2014-01-18T10:25:02Z</time>
      </trkpt>
      <trkpt lat="43.77668" lon="7.25867">
        <ele>686.41571044922</ele>
        <time>2014-01-18T10:25:09Z</time>
      </trkpt>
      <trkpt lat="43.77662" lon="7.25874">
        <ele>689.12780761719</ele>
        <time>2014-01-18T10:25:15Z</time>
      </trkpt>
      <trkpt lat="43.77657" lon="7.25882">
        <ele>692.14111328125</ele>
        <time>2014-01-18T10:25:22Z</time>
      </trkpt>
      <trkpt lat="43.77651" lon="7.2589">
        <ele>694.47479248047</ele>
        <time>2014-01-18T10:25:29Z</time>
      </trkpt>
      <trkpt lat="43.77645" lon="7.25899">
        <ele>696.86712646484</ele>
        <time>2014-01-18T10:25:36Z</time>
      </trkpt>
      <trkpt lat="43.77638" lon="7.25911">
        <ele>698.62475585938</ele>
        <time>2014-01-18T10:25:46Z</time>
      </trkpt>
      <trkpt lat="43.77636" lon="7.25914">
        <ele>698.79455566406</ele>
        <time>2014-01-18T10:25:48Z</time>
      </trkpt>
      <trkpt lat="43.77631" lon="7.25921">
        <ele>699.79864501953</ele>
        <time>2014-01-18T10:25:55Z</time>
      </trkpt>
      <trkpt lat="43.77624" lon="7.25931">
        <ele>701.32281494141</ele>
        <time>2014-01-18T10:26:03Z</time>
      </trkpt>
      <trkpt lat="43.77622" lon="7.25935">
        <ele>701.67083740234</ele>
        <time>2014-01-18T10:26:06Z</time>
      </trkpt>
      <trkpt lat="43.77615" lon="7.25941">
        <ele>701.97479248047</ele>
        <time>2014-01-18T10:26:13Z</time>
      </trkpt>
      <trkpt lat="43.77607" lon="7.2595">
        <ele>704.10766601562</ele>
        <time>2014-01-18T10:26:21Z</time>
      </trkpt>
      <trkpt lat="43.77601" lon="7.25959">
        <ele>707.45581054688</ele>
        <time>2014-01-18T10:26:28Z</time>
      </trkpt>
      <trkpt lat="43.77596" lon="7.25967">
        <ele>709.76318359375</ele>
        <time>2014-01-18T10:26:35Z</time>
      </trkpt>
      <trkpt lat="43.77589" lon="7.25973">
        <ele>712.03643798828</ele>
        <time>2014-01-18T10:26:42Z</time>
      </trkpt>
      <trkpt lat="43.77584" lon="7.25978">
        <ele>713.73559570312</ele>
        <time>2014-01-18T10:26:48Z</time>
      </trkpt>
      <trkpt lat="43.77578" lon="7.25986">
        <ele>715.82470703125</ele>
        <time>2014-01-18T10:26:55Z</time>
      </trkpt>
      <trkpt lat="43.77571" lon="7.25993">
        <ele>717.84094238281</ele>
        <time>2014-01-18T10:27:02Z</time>
      </trkpt>
      <trkpt lat="43.77565" lon="7.26">
        <ele>719.61944580078</ele>
        <time>2014-01-18T10:27:07Z</time>
      </trkpt>
      <trkpt lat="43.77559" lon="7.26003">
        <ele>721.07202148438</ele>
        <time>2014-01-18T10:27:12Z</time>
      </trkpt>
      <trkpt lat="43.77552" lon="7.26008">
        <ele>723.28393554688</ele>
        <time>2014-01-18T10:27:17Z</time>
      </trkpt>
      <trkpt lat="43.77544" lon="7.26014">
        <ele>725.99688720703</ele>
        <time>2014-01-18T10:27:21Z</time>
      </trkpt>
      <trkpt lat="43.77535" lon="7.26025">
        <ele>729.3681640625</ele>
        <time>2014-01-18T10:27:28Z</time>
      </trkpt>
      <trkpt lat="43.77527" lon="7.26034">
        <ele>731.46710205078</ele>
        <time>2014-01-18T10:27:33Z</time>
      </trkpt>
      <trkpt lat="43.77519" lon="7.26041">
        <ele>732.46990966797</ele>
        <time>2014-01-18T10:27:39Z</time>
      </trkpt>
      <trkpt lat="43.77517" lon="7.26055">
        <ele>733.36395263672</ele>
        <time>2014-01-18T10:27:44Z</time>
      </trkpt>
      <trkpt lat="43.77515" lon="7.26072">
        <ele>734.34619140625</ele>
        <time>2014-01-18T10:27:49Z</time>
      </trkpt>
      <trkpt lat="43.77512" lon="7.26087">
        <ele>735.21691894531</ele>
        <time>2014-01-18T10:27:52Z</time>
      </trkpt>
      <trkpt lat="43.775" lon="7.26106">
        <ele>735.80847167969</ele>
        <time>2014-01-18T10:27:58Z</time>
      </trkpt>
      <trkpt lat="43.77497" lon="7.26112">
        <ele>735.89599609375</ele>
        <time>2014-01-18T10:28:00Z</time>
      </trkpt>
      <trkpt lat="43.77484" lon="7.26123">
        <ele>735.5947265625</ele>
        <time>2014-01-18T10:28:05Z</time>
      </trkpt>
      <trkpt lat="43.77469" lon="7.26136">
        <ele>734.38049316406</ele>
        <time>2014-01-18T10:28:11Z</time>
      </trkpt>
      <trkpt lat="43.77461" lon="7.26146">
        <ele>733.22778320312</ele>
        <time>2014-01-18T10:28:15Z</time>
      </trkpt>
      <trkpt lat="43.77451" lon="7.26162">
        <ele>732.73864746094</ele>
        <time>2014-01-18T10:28:20Z</time>
      </trkpt>
      <trkpt lat="43.77438" lon="7.26168">
        <ele>731.01654052734</ele>
        <time>2014-01-18T10:28:25Z</time>
      </trkpt>
      <trkpt lat="43.7743" lon="7.26173">
        <ele>729.96942138672</ele>
        <time>2014-01-18T10:28:28Z</time>
      </trkpt>
      <trkpt lat="43.77415" lon="7.26186">
        <ele>728.73278808594</ele>
        <time>2014-01-18T10:28:34Z</time>
      </trkpt>
      <trkpt lat="43.77408" lon="7.26195">
        <ele>727.93121337891</ele>
        <time>2014-01-18T10:28:37Z</time>
      </trkpt>
      <trkpt lat="43.77399" lon="7.26198">
        <ele>725.85241699219</ele>
        <time>2014-01-18T10:28:42Z</time>
      </trkpt>
      <trkpt lat="43.77392" lon="7.26193">
        <ele>723.66821289062</ele>
        <time>2014-01-18T10:28:45Z</time>
      </trkpt>
      <trkpt lat="43.77385" lon="7.26198">
        <ele>722.845703125</ele>
        <time>2014-01-18T10:28:48Z</time>
      </trkpt>
      <trkpt lat="43.77382" lon="7.262">
        <ele>722.8349609375</ele>
        <time>2014-01-18T10:28:49Z</time>
      </trkpt>
      <trkpt lat="43.7737" lon="7.26219">
        <ele>722.50964355469</ele>
        <time>2014-01-18T10:28:55Z</time>
      </trkpt>
      <trkpt lat="43.77367" lon="7.26223">
        <ele>722.08880615234</ele>
        <time>2014-01-18T10:28:57Z</time>
      </trkpt>
      <trkpt lat="43.77358" lon="7.26222">
        <ele>720.8818359375</ele>
        <time>2014-01-18T10:29:02Z</time>
      </trkpt>
      <trkpt lat="43.77351" lon="7.26221">
        <ele>720.62530517578</ele>
        <time>2014-01-18T10:29:07Z</time>
      </trkpt>
      <trkpt lat="43.77349" lon="7.26213">
        <ele>720.36267089844</ele>
        <time>2014-01-18T10:29:12Z</time>
      </trkpt>
      <trkpt lat="43.77345" lon="7.26204">
        <ele>720.13836669922</ele>
        <time>2014-01-18T10:29:16Z</time>
      </trkpt>
      <trkpt lat="43.77342" lon="7.26199">
        <ele>720.05505371094</ele>
        <time>2014-01-18T10:29:18Z</time>
      </trkpt>
      <trkpt lat="43.77335" lon="7.26185">
        <ele>720</ele>
        <time>2014-01-18T10:29:24Z</time>
      </trkpt>
      <trkpt lat="43.77332" lon="7.26176">
        <ele>720.08551025391</ele>
        <time>2014-01-18T10:29:28Z</time>
      </trkpt>
      <trkpt lat="43.77318" lon="7.26168">
        <ele>721.02618408203</ele>
        <time>2014-01-18T10:29:34Z</time>
      </trkpt>
      <trkpt lat="43.77306" lon="7.26164">
        <ele>722.13659667969</ele>
        <time>2014-01-18T10:29:39Z</time>
      </trkpt>
      <trkpt lat="43.77295" lon="7.26158">
        <ele>722.35797119141</ele>
        <time>2014-01-18T10:29:44Z</time>
      </trkpt>
      <trkpt lat="43.77296" lon="7.26144">
        <ele>723.09094238281</ele>
        <time>2014-01-18T10:29:48Z</time>
      </trkpt>
      <trkpt lat="43.77297" lon="7.26134">
        <ele>723.53344726562</ele>
        <time>2014-01-18T10:29:51Z</time>
      </trkpt>
      <trkpt lat="43.77296" lon="7.26131">
        <ele>723.5849609375</ele>
        <time>2014-01-18T10:29:54Z</time>
      </trkpt>
      <trkpt lat="43.77292" lon="7.26129">
        <ele>723.38238525391</ele>
        <time>2014-01-18T10:29:59Z</time>
      </trkpt>
      <trkpt lat="43.77292" lon="7.26128">
        <ele>723.44763183594</ele>
        <time>2014-01-18T10:30:04Z</time>
      </trkpt>
      <trkpt lat="43.77292" lon="7.26125">
        <ele>723.54888916016</ele>
        <time>2014-01-18T10:30:11Z</time>
      </trkpt>
      <trkpt lat="43.7729" lon="7.26124">
        <ele>723.37725830078</ele>
        <time>2014-01-18T10:30:16Z</time>
      </trkpt>
      <trkpt lat="43.77285" lon="7.26119">
        <ele>723.22448730469</ele>
        <time>2014-01-18T10:30:20Z</time>
      </trkpt>
      <trkpt lat="43.77282" lon="7.26114">
        <ele>723.17810058594</ele>
        <time>2014-01-18T10:30:25Z</time>
      </trkpt>
      <trkpt lat="43.77281" lon="7.26113">
        <ele>723.15234375</ele>
        <time>2014-01-18T10:30:26Z</time>
      </trkpt>
      <trkpt lat="43.77279" lon="7.26108">
        <ele>723.08990478516</ele>
        <time>2014-01-18T10:30:32Z</time>
      </trkpt>
      <trkpt lat="43.77281" lon="7.26103">
        <ele>723.28094482422</ele>
        <time>2014-01-18T10:30:36Z</time>
      </trkpt>
      <trkpt lat="43.77285" lon="7.26098">
        <ele>723.76470947266</ele>
        <time>2014-01-18T10:30:40Z</time>
      </trkpt>
      <trkpt lat="43.77287" lon="7.26092">
        <ele>724.07110595703</ele>
        <time>2014-01-18T10:30:46Z</time>
      </trkpt>
      <trkpt lat="43.77286" lon="7.26091">
        <ele>724.02856445312</ele>
        <time>2014-01-18T10:30:47Z</time>
      </trkpt>
      <trkpt lat="43.77287" lon="7.26082">
        <ele>724.30346679688</ele>
        <time>2014-01-18T10:30:53Z</time>
      </trkpt>
      <trkpt lat="43.77285" lon="7.26077">
        <ele>724.25762939453</ele>
        <time>2014-01-18T10:30:58Z</time>
      </trkpt>
      <trkpt lat="43.77281" lon="7.26071">
        <ele>723.91064453125</ele>
        <time>2014-01-18T10:31:04Z</time>
      </trkpt>
      <trkpt lat="43.77277" lon="7.26072">
        <ele>723.39819335938</ele>
        <time>2014-01-18T10:31:09Z</time>
      </trkpt>
      <trkpt lat="43.77272" lon="7.26071">
        <ele>723.35479736328</ele>
        <time>2014-01-18T10:31:14Z</time>
      </trkpt>
      <trkpt lat="43.77271" lon="7.26067">
        <ele>723.42095947266</ele>
        <time>2014-01-18T10:31:18Z</time>
      </trkpt>
      <trkpt lat="43.77268" lon="7.26064">
        <ele>723.46063232422</ele>
        <time>2014-01-18T10:31:23Z</time>
      </trkpt>
      <trkpt lat="43.77266" lon="7.26057">
        <ele>723.52191162109</ele>
        <time>2014-01-18T10:31:29Z</time>
      </trkpt>
      <trkpt lat="43.77266" lon="7.26051">
        <ele>723.51312255859</ele>
        <time>2014-01-18T10:31:34Z</time>
      </trkpt>
      <trkpt lat="43.77265" lon="7.26047">
        <ele>723.40838623047</ele>
        <time>2014-01-18T10:31:38Z</time>
      </trkpt>
      <trkpt lat="43.77261" lon="7.26045">
        <ele>723.18676757812</ele>
        <time>2014-01-18T10:31:43Z</time>
      </trkpt>
      <trkpt lat="43.77256" lon="7.26042">
        <ele>722.82409667969</ele>
        <time>2014-01-18T10:31:49Z</time>
      </trkpt>
      <trkpt lat="43.77252" lon="7.26042">
        <ele>722.63708496094</ele>
        <time>2014-01-18T10:31:53Z</time>
      </trkpt>
      <trkpt lat="43.77248" lon="7.26043">
        <ele>722.32275390625</ele>
        <time>2014-01-18T10:31:58Z</time>
      </trkpt>
      <trkpt lat="43.77244" lon="7.26039">
        <ele>721.73254394531</ele>
        <time>2014-01-18T10:32:04Z</time>
      </trkpt>
      <trkpt lat="43.77244" lon="7.26039">
        <ele>721.74224853516</ele>
        <time>2014-01-18T10:32:09Z</time>
      </trkpt>
      <trkpt lat="43.77241" lon="7.26041">
        <ele>721.48034667969</ele>
        <time>2014-01-18T10:32:14Z</time>
      </trkpt>
      <trkpt lat="43.77239" lon="7.2604">
        <ele>721.15814208984</ele>
        <time>2014-01-18T10:32:19Z</time>
      </trkpt>
      <trkpt lat="43.77238" lon="7.26037">
        <ele>720.97027587891</ele>
        <time>2014-01-18T10:32:20Z</time>
      </trkpt>
      <trkpt lat="43.77234" lon="7.26028">
        <ele>719.60925292969</ele>
        <time>2014-01-18T10:32:26Z</time>
      </trkpt>
      <trkpt lat="43.77238" lon="7.26018">
        <ele>719.89605712891</ele>
        <time>2014-01-18T10:32:30Z</time>
      </trkpt>
      <trkpt lat="43.77241" lon="7.26013">
        <ele>720.14031982422</ele>
        <time>2014-01-18T10:32:32Z</time>
      </trkpt>
      <trkpt lat="43.77246" lon="7.25996">
        <ele>720.84515380859</ele>
        <time>2014-01-18T10:32:38Z</time>
      </trkpt>
      <trkpt lat="43.77244" lon="7.25978">
        <ele>720.04077148438</ele>
        <time>2014-01-18T10:32:44Z</time>
      </trkpt>
      <trkpt lat="43.77237" lon="7.25965">
        <ele>716.68127441406</ele>
        <time>2014-01-18T10:32:49Z</time>
      </trkpt>
      <trkpt lat="43.77225" lon="7.25955">
        <ele>711.84387207031</ele>
        <time>2014-01-18T10:32:55Z</time>
      </trkpt>
      <trkpt lat="43.77216" lon="7.25949">
        <ele>707.95953369141</ele>
        <time>2014-01-18T10:32:59Z</time>
      </trkpt>
      <trkpt lat="43.77202" lon="7.25942">
        <ele>703.25946044922</ele>
        <time>2014-01-18T10:33:05Z</time>
      </trkpt>
      <trkpt lat="43.77189" lon="7.25934">
        <ele>702.04071044922</ele>
        <time>2014-01-18T10:33:11Z</time>
      </trkpt>
      <trkpt lat="43.77178" lon="7.25926">
        <ele>701.88677978516</ele>
        <time>2014-01-18T10:33:16Z</time>
      </trkpt>
      <trkpt lat="43.77168" lon="7.25919">
        <ele>700.19299316406</ele>
        <time>2014-01-18T10:33:21Z</time>
      </trkpt>
      <trkpt lat="43.77156" lon="7.25916">
        <ele>701.76452636719</ele>
        <time>2014-01-18T10:33:26Z</time>
      </trkpt>
      <trkpt lat="43.7715" lon="7.25917">
        <ele>702.37591552734</ele>
        <time>2014-01-18T10:33:28Z</time>
      </trkpt>
      <trkpt lat="43.77145" lon="7.25916">
        <ele>703.52917480469</ele>
        <time>2014-01-18T10:33:30Z</time>
      </trkpt>
      <trkpt lat="43.77133" lon="7.25917">
        <ele>704.81768798828</ele>
        <time>2014-01-18T10:33:35Z</time>
      </trkpt>
      <trkpt lat="43.77119" lon="7.25921">
        <ele>705.72229003906</ele>
        <time>2014-01-18T10:33:40Z</time>
      </trkpt>
      <trkpt lat="43.77107" lon="7.25926">
        <ele>706.16314697266</ele>
        <time>2014-01-18T10:33:44Z</time>
      </trkpt>
      <trkpt lat="43.77097" lon="7.25928">
        <ele>707.51354980469</ele>
        <time>2014-01-18T10:33:48Z</time>
      </trkpt>
      <trkpt lat="43.77084" lon="7.2593">
        <ele>708.99090576172</ele>
        <time>2014-01-18T10:33:53Z</time>
      </trkpt>
      <trkpt lat="43.77071" lon="7.25933">
        <ele>708.78295898438</ele>
        <time>2014-01-18T10:33:58Z</time>
      </trkpt>
      <trkpt lat="43.77058" lon="7.25936">
        <ele>708.42639160156</ele>
        <time>2014-01-18T10:34:03Z</time>
      </trkpt>
      <trkpt lat="43.77048" lon="7.25939">
        <ele>707.76794433594</ele>
        <time>2014-01-18T10:34:07Z</time>
      </trkpt>
      <trkpt lat="43.77033" lon="7.25944">
        <ele>706.20758056641</ele>
        <time>2014-01-18T10:34:13Z</time>
      </trkpt>
      <trkpt lat="43.7702" lon="7.25946">
        <ele>705.68518066406</ele>
        <time>2014-01-18T10:34:18Z</time>
      </trkpt>
      <trkpt lat="43.77007" lon="7.25945">
        <ele>705.83972167969</ele>
        <time>2014-01-18T10:34:23Z</time>
      </trkpt>
      <trkpt lat="43.76994" lon="7.25939">
        <ele>707.79888916016</ele>
        <time>2014-01-18T10:34:29Z</time>
      </trkpt>
      <trkpt lat="43.76983" lon="7.25932">
        <ele>709.88458251953</ele>
        <time>2014-01-18T10:34:34Z</time>
      </trkpt>
      <trkpt lat="43.76976" lon="7.25922">
        <ele>713.2216796875</ele>
        <time>2014-01-18T10:34:38Z</time>
      </trkpt>
      <trkpt lat="43.76971" lon="7.25905">
        <ele>718.12847900391</ele>
        <time>2014-01-18T10:34:43Z</time>
      </trkpt>
      <trkpt lat="43.76968" lon="7.25895">
        <ele>720.45416259766</ele>
        <time>2014-01-18T10:34:46Z</time>
      </trkpt>
      <trkpt lat="43.76965" lon="7.25877">
        <ele>723.52996826172</ele>
        <time>2014-01-18T10:34:51Z</time>
      </trkpt>
      <trkpt lat="43.76961" lon="7.25863">
        <ele>725.06982421875</ele>
        <time>2014-01-18T10:34:55Z</time>
      </trkpt>
      <trkpt lat="43.7695" lon="7.25849">
        <ele>726.83117675781</ele>
        <time>2014-01-18T10:35:01Z</time>
      </trkpt>
      <trkpt lat="43.76943" lon="7.25841">
        <ele>727.97924804688</ele>
        <time>2014-01-18T10:35:05Z</time>
      </trkpt>
      <trkpt lat="43.76938" lon="7.25831">
        <ele>730.20959472656</ele>
        <time>2014-01-18T10:35:09Z</time>
      </trkpt>
      <trkpt lat="43.76932" lon="7.25821">
        <ele>732.54779052734</ele>
        <time>2014-01-18T10:35:13Z</time>
      </trkpt>
      <trkpt lat="43.76925" lon="7.25806">
        <ele>735.64739990234</ele>
        <time>2014-01-18T10:35:18Z</time>
      </trkpt>
      <trkpt lat="43.7692" lon="7.25792">
        <ele>737.92486572266</ele>
        <time>2014-01-18T10:35:23Z</time>
      </trkpt>
      <trkpt lat="43.76915" lon="7.25784">
        <ele>738.70062255859</ele>
        <time>2014-01-18T10:35:26Z</time>
      </trkpt>
      <trkpt lat="43.76907" lon="7.25772">
        <ele>740.31140136719</ele>
        <time>2014-01-18T10:35:31Z</time>
      </trkpt>
      <trkpt lat="43.769" lon="7.2576">
        <ele>743.07446289062</ele>
        <time>2014-01-18T10:35:36Z</time>
      </trkpt>
      <trkpt lat="43.76891" lon="7.25747">
        <ele>745.38562011719</ele>
        <time>2014-01-18T10:35:42Z</time>
      </trkpt>
      <trkpt lat="43.76887" lon="7.25739">
        <ele>747.45489501953</ele>
        <time>2014-01-18T10:35:45Z</time>
      </trkpt>
      <trkpt lat="43.76883" lon="7.25727">
        <ele>750.94104003906</ele>
        <time>2014-01-18T10:35:49Z</time>
      </trkpt>
      <trkpt lat="43.76872" lon="7.25706">
        <ele>753.64343261719</ele>
        <time>2014-01-18T10:35:57Z</time>
      </trkpt>
      <trkpt lat="43.76866" lon="7.25691">
        <ele>755.11242675781</ele>
        <time>2014-01-18T10:36:02Z</time>
      </trkpt>
      <trkpt lat="43.76862" lon="7.25679">
        <ele>757.30621337891</ele>
        <time>2014-01-18T10:36:06Z</time>
      </trkpt>
      <trkpt lat="43.76859" lon="7.25669">
        <ele>758.62274169922</ele>
        <time>2014-01-18T10:36:10Z</time>
      </trkpt>
      <trkpt lat="43.76858" lon="7.25667">
        <ele>758.802734375</ele>
        <time>2014-01-18T10:36:11Z</time>
      </trkpt>
      <trkpt lat="43.76852" lon="7.25654">
        <ele>759.22930908203</ele>
        <time>2014-01-18T10:36:16Z</time>
      </trkpt>
      <trkpt lat="43.7685" lon="7.25644">
        <ele>760.29382324219</ele>
        <time>2014-01-18T10:36:19Z</time>
      </trkpt>
      <trkpt lat="43.76849" lon="7.25641">
        <ele>760.55834960938</ele>
        <time>2014-01-18T10:36:20Z</time>
      </trkpt>
      <trkpt lat="43.76847" lon="7.25632">
        <ele>761.90356445312</ele>
        <time>2014-01-18T10:36:23Z</time>
      </trkpt>
      <trkpt lat="43.76843" lon="7.25618">
        <ele>763.38024902344</ele>
        <time>2014-01-18T10:36:28Z</time>
      </trkpt>
      <trkpt lat="43.76841" lon="7.25602">
        <ele>765.02703857422</ele>
        <time>2014-01-18T10:36:33Z</time>
      </trkpt>
      <trkpt lat="43.76841" lon="7.25597">
        <ele>765.60900878906</ele>
        <time>2014-01-18T10:36:35Z</time>
      </trkpt>
      <trkpt lat="43.76843" lon="7.2558">
        <ele>768.71441650391</ele>
        <time>2014-01-18T10:36:40Z</time>
      </trkpt>
      <trkpt lat="43.76848" lon="7.25564">
        <ele>773.12908935547</ele>
        <time>2014-01-18T10:36:45Z</time>
      </trkpt>
      <trkpt lat="43.76853" lon="7.25546">
        <ele>778.35876464844</ele>
        <time>2014-01-18T10:36:51Z</time>
      </trkpt>
      <trkpt lat="43.76856" lon="7.25536">
        <ele>781.78338623047</ele>
        <time>2014-01-18T10:36:55Z</time>
      </trkpt>
      <trkpt lat="43.76861" lon="7.25537">
        <ele>785.08990478516</ele>
        <time>2014-01-18T10:36:58Z</time>
      </trkpt>
      <trkpt lat="43.7686" lon="7.25547">
        <ele>782.90093994141</ele>
        <time>2014-01-18T10:37:02Z</time>
      </trkpt>
      <trkpt lat="43.76858" lon="7.25558">
        <ele>780.41381835938</ele>
        <time>2014-01-18T10:37:06Z</time>
      </trkpt>
      <trkpt lat="43.76858" lon="7.25573">
        <ele>778.87170410156</ele>
        <time>2014-01-18T10:37:11Z</time>
      </trkpt>
      <trkpt lat="43.76862" lon="7.25582">
        <ele>780.49871826172</ele>
        <time>2014-01-18T10:37:14Z</time>
      </trkpt>
      <trkpt lat="43.76866" lon="7.25595">
        <ele>779.83154296875</ele>
        <time>2014-01-18T10:37:18Z</time>
      </trkpt>
      <trkpt lat="43.76873" lon="7.25608">
        <ele>779.26928710938</ele>
        <time>2014-01-18T10:37:23Z</time>
      </trkpt>
      <trkpt lat="43.76876" lon="7.25615">
        <ele>778.17364501953</ele>
        <time>2014-01-18T10:37:26Z</time>
      </trkpt>
      <trkpt lat="43.76884" lon="7.2563">
        <ele>776.09991455078</ele>
        <time>2014-01-18T10:37:32Z</time>
      </trkpt>
      <trkpt lat="43.76889" lon="7.25636">
        <ele>776.18023681641</ele>
        <time>2014-01-18T10:37:35Z</time>
      </trkpt>
      <trkpt lat="43.76898" lon="7.25649">
        <ele>776.25183105469</ele>
        <time>2014-01-18T10:37:41Z</time>
      </trkpt>
      <trkpt lat="43.76905" lon="7.25658">
        <ele>777.34014892578</ele>
        <time>2014-01-18T10:37:46Z</time>
      </trkpt>
      <trkpt lat="43.76915" lon="7.25669">
        <ele>778.18994140625</ele>
        <time>2014-01-18T10:37:52Z</time>
      </trkpt>
      <trkpt lat="43.76922" lon="7.25679">
        <ele>775.41516113281</ele>
        <time>2014-01-18T10:37:56Z</time>
      </trkpt>
      <trkpt lat="43.76926" lon="7.25689">
        <ele>771.49084472656</ele>
        <time>2014-01-18T10:38:00Z</time>
      </trkpt>
      <trkpt lat="43.76936" lon="7.25704">
        <ele>768.12152099609</ele>
        <time>2014-01-18T10:38:07Z</time>
      </trkpt>
      <trkpt lat="43.76938" lon="7.25704">
        <ele>768.32751464844</ele>
        <time>2014-01-18T10:38:08Z</time>
      </trkpt>
      <trkpt lat="43.76937" lon="7.25692">
        <ele>771.91625976562</ele>
        <time>2014-01-18T10:38:13Z</time>
      </trkpt>
      <trkpt lat="43.76933" lon="7.25681">
        <ele>775.77752685547</ele>
        <time>2014-01-18T10:38:17Z</time>
      </trkpt>
      <trkpt lat="43.76929" lon="7.25675">
        <ele>778.09533691406</ele>
        <time>2014-01-18T10:38:20Z</time>
      </trkpt>
      <trkpt lat="43.76927" lon="7.2567">
        <ele>779.87945556641</ele>
        <time>2014-01-18T10:38:22Z</time>
      </trkpt>
      <trkpt lat="43.7692" lon="7.25651">
        <ele>783.71105957031</ele>
        <time>2014-01-18T10:38:29Z</time>
      </trkpt>
      <trkpt lat="43.76918" lon="7.25647">
        <ele>784.45263671875</ele>
        <time>2014-01-18T10:38:31Z</time>
      </trkpt>
      <trkpt lat="43.76912" lon="7.25633">
        <ele>785.76458740234</ele>
        <time>2014-01-18T10:38:36Z</time>
      </trkpt>
      <trkpt lat="43.76908" lon="7.25629">
        <ele>785.89367675781</ele>
        <time>2014-01-18T10:38:38Z</time>
      </trkpt>
      <trkpt lat="43.76907" lon="7.2562">
        <ele>787.73797607422</ele>
        <time>2014-01-18T10:38:41Z</time>
      </trkpt>
      <trkpt lat="43.76901" lon="7.25602">
        <ele>790.57989501953</ele>
        <time>2014-01-18T10:38:47Z</time>
      </trkpt>
      <trkpt lat="43.76899" lon="7.25596">
        <ele>791.66760253906</ele>
        <time>2014-01-18T10:38:49Z</time>
      </trkpt>
      <trkpt lat="43.76896" lon="7.25588">
        <ele>793.00512695312</ele>
        <time>2014-01-18T10:38:52Z</time>
      </trkpt>
      <trkpt lat="43.769" lon="7.2558">
        <ele>796.06842041016</ele>
        <time>2014-01-18T10:38:56Z</time>
      </trkpt>
      <trkpt lat="43.76907" lon="7.25584">
        <ele>797.62005615234</ele>
        <time>2014-01-18T10:38:59Z</time>
      </trkpt>
      <trkpt lat="43.76911" lon="7.25592">
        <ele>797.18371582031</ele>
        <time>2014-01-18T10:39:02Z</time>
      </trkpt>
      <trkpt lat="43.76915" lon="7.25598">
        <ele>797.12457275391</ele>
        <time>2014-01-18T10:39:05Z</time>
      </trkpt>
      <trkpt lat="43.76921" lon="7.25607">
        <ele>796.39672851562</ele>
        <time>2014-01-18T10:39:10Z</time>
      </trkpt>
      <trkpt lat="43.76928" lon="7.25614">
        <ele>795.26458740234</ele>
        <time>2014-01-18T10:39:13Z</time>
      </trkpt>
      <trkpt lat="43.76939" lon="7.25625">
        <ele>792.87506103516</ele>
        <time>2014-01-18T10:39:20Z</time>
      </trkpt>
      <trkpt lat="43.76941" lon="7.25627">
        <ele>792.51971435547</ele>
        <time>2014-01-18T10:39:21Z</time>
      </trkpt>
      <trkpt lat="43.76948" lon="7.25639">
        <ele>789.88836669922</ele>
        <time>2014-01-18T10:39:26Z</time>
      </trkpt>
      <trkpt lat="43.76953" lon="7.25648">
        <ele>788.76843261719</ele>
        <time>2014-01-18T10:39:30Z</time>
      </trkpt>
      <trkpt lat="43.7696" lon="7.25656">
        <ele>788.48004150391</ele>
        <time>2014-01-18T10:39:34Z</time>
      </trkpt>
      <trkpt lat="43.76964" lon="7.25663">
        <ele>787.90325927734</ele>
        <time>2014-01-18T10:39:37Z</time>
      </trkpt>
      <trkpt lat="43.76975" lon="7.25667">
        <ele>789.03302001953</ele>
        <time>2014-01-18T10:39:43Z</time>
      </trkpt>
      <trkpt lat="43.76978" lon="7.2568">
        <ele>784.91461181641</ele>
        <time>2014-01-18T10:39:47Z</time>
      </trkpt>
      <trkpt lat="43.76981" lon="7.25688">
        <ele>782.16436767578</ele>
        <time>2014-01-18T10:39:50Z</time>
      </trkpt>
      <trkpt lat="43.76981" lon="7.2569">
        <ele>781.54168701172</ele>
        <time>2014-01-18T10:39:51Z</time>
      </trkpt>
      <trkpt lat="43.76973" lon="7.25677">
        <ele>785.61090087891</ele>
        <time>2014-01-18T10:39:57Z</time>
      </trkpt>
      <trkpt lat="43.76969" lon="7.25658">
        <ele>790.07647705078</ele>
        <time>2014-01-18T10:40:03Z</time>
      </trkpt>
      <trkpt lat="43.76963" lon="7.25646">
        <ele>791.45666503906</ele>
        <time>2014-01-18T10:40:08Z</time>
      </trkpt>
      <trkpt lat="43.76956" lon="7.25629">
        <ele>794.73950195312</ele>
        <time>2014-01-18T10:40:14Z</time>
      </trkpt>
      <trkpt lat="43.76951" lon="7.25616">
        <ele>797.74188232422</ele>
        <time>2014-01-18T10:40:19Z</time>
      </trkpt>
      <trkpt lat="43.76947" lon="7.25612">
        <ele>798.31866455078</ele>
        <time>2014-01-18T10:40:21Z</time>
      </trkpt>
      <trkpt lat="43.76942" lon="7.256">
        <ele>800.41333007812</ele>
        <time>2014-01-18T10:40:25Z</time>
      </trkpt>
      <trkpt lat="43.76938" lon="7.25587">
        <ele>803.28619384766</ele>
        <time>2014-01-18T10:40:30Z</time>
      </trkpt>
      <trkpt lat="43.76935" lon="7.25577">
        <ele>804.5087890625</ele>
        <time>2014-01-18T10:40:33Z</time>
      </trkpt>
      <trkpt lat="43.76933" lon="7.25569">
        <ele>805.20989990234</ele>
        <time>2014-01-18T10:40:36Z</time>
      </trkpt>
      <trkpt lat="43.76938" lon="7.25565">
        <ele>806.95043945312</ele>
        <time>2014-01-18T10:40:40Z</time>
      </trkpt>
      <trkpt lat="43.76944" lon="7.25572">
        <ele>807.02856445312</ele>
        <time>2014-01-18T10:40:44Z</time>
      </trkpt>
      <trkpt lat="43.76952" lon="7.25579">
        <ele>808.22338867188</ele>
        <time>2014-01-18T10:40:48Z</time>
      </trkpt>
      <trkpt lat="43.76954" lon="7.25582">
        <ele>808.25048828125</ele>
        <time>2014-01-18T10:40:49Z</time>
      </trkpt>
      <trkpt lat="43.76966" lon="7.25594">
        <ele>808.19476318359</ele>
        <time>2014-01-18T10:40:55Z</time>
      </trkpt>
      <trkpt lat="43.76972" lon="7.25603">
        <ele>806.87683105469</ele>
        <time>2014-01-18T10:40:59Z</time>
      </trkpt>
      <trkpt lat="43.76982" lon="7.25616">
        <ele>803.83917236328</ele>
        <time>2014-01-18T10:41:04Z</time>
      </trkpt>
      <trkpt lat="43.76991" lon="7.25634">
        <ele>798.32348632812</ele>
        <time>2014-01-18T10:41:10Z</time>
      </trkpt>
      <trkpt lat="43.77001" lon="7.2564">
        <ele>796.88128662109</ele>
        <time>2014-01-18T10:41:15Z</time>
      </trkpt>
      <trkpt lat="43.77003" lon="7.25647">
        <ele>795.20147705078</ele>
        <time>2014-01-18T10:41:20Z</time>
      </trkpt>
      <trkpt lat="43.77002" lon="7.25649">
        <ele>794.50152587891</ele>
        <time>2014-01-18T10:41:22Z</time>
      </trkpt>
      <trkpt lat="43.77002" lon="7.25647">
        <ele>795.01800537109</ele>
        <time>2014-01-18T10:41:28Z</time>
      </trkpt>
      <trkpt lat="43.77001" lon="7.25643">
        <ele>795.88598632812</ele>
        <time>2014-01-18T10:41:34Z</time>
      </trkpt>
      <trkpt lat="43.76999" lon="7.25643">
        <ele>795.93640136719</ele>
        <time>2014-01-18T10:41:35Z</time>
      </trkpt>
      <trkpt lat="43.76992" lon="7.25632">
        <ele>799.19012451172</ele>
        <time>2014-01-18T10:41:40Z</time>
      </trkpt>
      <trkpt lat="43.76984" lon="7.25619">
        <ele>803.00640869141</ele>
        <time>2014-01-18T10:41:45Z</time>
      </trkpt>
      <trkpt lat="43.76978" lon="7.25608">
        <ele>806.09259033203</ele>
        <time>2014-01-18T10:41:49Z</time>
      </trkpt>
      <trkpt lat="43.76973" lon="7.25596">
        <ele>809.45501708984</ele>
        <time>2014-01-18T10:41:53Z</time>
      </trkpt>
      <trkpt lat="43.76966" lon="7.25579">
        <ele>812.73626708984</ele>
        <time>2014-01-18T10:41:59Z</time>
      </trkpt>
      <trkpt lat="43.76961" lon="7.25562">
        <ele>814.54650878906</ele>
        <time>2014-01-18T10:42:05Z</time>
      </trkpt>
      <trkpt lat="43.76958" lon="7.25554">
        <ele>815.52575683594</ele>
        <time>2014-01-18T10:42:10Z</time>
      </trkpt>
      <trkpt lat="43.76958" lon="7.2555">
        <ele>816.32971191406</ele>
        <time>2014-01-18T10:42:13Z</time>
      </trkpt>
      <trkpt lat="43.76958" lon="7.25543">
        <ele>818.21374511719</ele>
        <time>2014-01-18T10:42:19Z</time>
      </trkpt>
      <trkpt lat="43.7696" lon="7.25538">
        <ele>819.97930908203</ele>
        <time>2014-01-18T10:42:24Z</time>
      </trkpt>
      <trkpt lat="43.76961" lon="7.25527">
        <ele>822.93792724609</ele>
        <time>2014-01-18T10:42:31Z</time>
      </trkpt>
      <trkpt lat="43.76963" lon="7.25517">
        <ele>825.01879882812</ele>
        <time>2014-01-18T10:42:34Z</time>
      </trkpt>
      <trkpt lat="43.76965" lon="7.25501">
        <ele>828.64404296875</ele>
        <time>2014-01-18T10:42:38Z</time>
      </trkpt>
      <trkpt lat="43.76967" lon="7.25488">
        <ele>831.28289794922</ele>
        <time>2014-01-18T10:42:42Z</time>
      </trkpt>
      <trkpt lat="43.76971" lon="7.25473">
        <ele>835.44158935547</ele>
        <time>2014-01-18T10:42:47Z</time>
      </trkpt>
      <trkpt lat="43.76976" lon="7.25456">
        <ele>836.60083007812</ele>
        <time>2014-01-18T10:42:53Z</time>
      </trkpt>
      <trkpt lat="43.76978" lon="7.25452">
        <ele>836.765625</ele>
        <time>2014-01-18T10:42:54Z</time>
      </trkpt>
      <trkpt lat="43.76986" lon="7.25441">
        <ele>837.08685302734</ele>
        <time>2014-01-18T10:42:59Z</time>
      </trkpt>
      <trkpt lat="43.76995" lon="7.25428">
        <ele>838.16217041016</ele>
        <time>2014-01-18T10:43:05Z</time>
      </trkpt>
      <trkpt lat="43.77002" lon="7.25414">
        <ele>839.16864013672</ele>
        <time>2014-01-18T10:43:10Z</time>
      </trkpt>
      <trkpt lat="43.77007" lon="7.25404">
        <ele>836.02111816406</ele>
        <time>2014-01-18T10:43:14Z</time>
      </trkpt>
      <trkpt lat="43.77013" lon="7.25391">
        <ele>833.24835205078</ele>
        <time>2014-01-18T10:43:19Z</time>
      </trkpt>
      <trkpt lat="43.77022" lon="7.25382">
        <ele>831.62506103516</ele>
        <time>2014-01-18T10:43:24Z</time>
      </trkpt>
      <trkpt lat="43.77024" lon="7.2538">
        <ele>831.39831542969</ele>
        <time>2014-01-18T10:43:25Z</time>
      </trkpt>
      <trkpt lat="43.77024" lon="7.25388">
        <ele>834.85070800781</ele>
        <time>2014-01-18T10:43:29Z</time>
      </trkpt>
      <trkpt lat="43.77016" lon="7.254">
        <ele>836.04760742188</ele>
        <time>2014-01-18T10:43:34Z</time>
      </trkpt>
      <trkpt lat="43.77015" lon="7.25404">
        <ele>836.93713378906</ele>
        <time>2014-01-18T10:43:36Z</time>
      </trkpt>
      <trkpt lat="43.77012" lon="7.25413">
        <ele>839.10479736328</ele>
        <time>2014-01-18T10:43:39Z</time>
      </trkpt>
      <trkpt lat="43.77007" lon="7.25425">
        <ele>840</ele>
        <time>2014-01-18T10:43:43Z</time>
      </trkpt>
      <trkpt lat="43.77003" lon="7.25436">
        <ele>840</ele>
        <time>2014-01-18T10:43:47Z</time>
      </trkpt>
      <trkpt lat="43.77" lon="7.25442">
        <ele>840</ele>
        <time>2014-01-18T10:43:49Z</time>
      </trkpt>
      <trkpt lat="43.76996" lon="7.25446">
        <ele>839.45727539062</ele>
        <time>2014-01-18T10:43:51Z</time>
      </trkpt>
      <trkpt lat="43.76991" lon="7.25458">
        <ele>838.63330078125</ele>
        <time>2014-01-18T10:43:56Z</time>
      </trkpt>
      <trkpt lat="43.76987" lon="7.25469">
        <ele>838.083984375</ele>
        <time>2014-01-18T10:44:00Z</time>
      </trkpt>
      <trkpt lat="43.76989" lon="7.25482">
        <ele>837.767578125</ele>
        <time>2014-01-18T10:44:04Z</time>
      </trkpt>
      <trkpt lat="43.76989" lon="7.25486">
        <ele>837.72247314453</ele>
        <time>2014-01-18T10:44:05Z</time>
      </trkpt>
      <trkpt lat="43.76994" lon="7.25502">
        <ele>838.02557373047</ele>
        <time>2014-01-18T10:44:11Z</time>
      </trkpt>
      <trkpt lat="43.76995" lon="7.2551">
        <ele>838.22015380859</ele>
        <time>2014-01-18T10:44:14Z</time>
      </trkpt>
      <trkpt lat="43.76997" lon="7.25515">
        <ele>838.92956542969</ele>
        <time>2014-01-18T10:44:17Z</time>
      </trkpt>
      <trkpt lat="43.77" lon="7.25516">
        <ele>840</ele>
        <time>2014-01-18T10:44:19Z</time>
      </trkpt>
      <trkpt lat="43.77003" lon="7.25519">
        <ele>840</ele>
        <time>2014-01-18T10:44:23Z</time>
      </trkpt>
      <trkpt lat="43.77005" lon="7.25517">
        <ele>840</ele>
        <time>2014-01-18T10:44:26Z</time>
      </trkpt>
      <trkpt lat="43.77008" lon="7.25516">
        <ele>840</ele>
        <time>2014-01-18T10:44:32Z</time>
      </trkpt>
      <trkpt lat="43.77004" lon="7.25517">
        <ele>840</ele>
        <time>2014-01-18T10:44:38Z</time>
      </trkpt>
      <trkpt lat="43.77001" lon="7.25518">
        <ele>840</ele>
        <time>2014-01-18T10:44:43Z</time>
      </trkpt>
      <trkpt lat="43.77001" lon="7.25518">
        <ele>840</ele>
        <time>2014-01-18T10:44:49Z</time>
      </trkpt>
      <trkpt lat="43.77001" lon="7.25517">
        <ele>840</ele>
        <time>2014-01-18T10:44:55Z</time>
      </trkpt>
      <trkpt lat="43.77001" lon="7.25518">
        <ele>840</ele>
        <time>2014-01-18T10:45:02Z</time>
      </trkpt>
      <trkpt lat="43.77002" lon="7.25517">
        <ele>840</ele>
        <time>2014-01-18T10:45:15Z</time>
      </trkpt>
      <trkpt lat="43.77002" lon="7.25518">
        <ele>840</ele>
        <time>2014-01-18T10:45:26Z</time>
      </trkpt>
      <trkpt lat="43.77002" lon="7.25518">
        <ele>840</ele>
        <time>2014-01-18T10:45:40Z</time>
      </trkpt>
      <trkpt lat="43.77002" lon="7.25518">
        <ele>840</ele>
        <time>2014-01-18T10:45:51Z</time>
      </trkpt>
      <trkpt lat="43.77003" lon="7.25518">
        <ele>840</ele>
        <time>2014-01-18T10:46:10Z</time>
      </trkpt>
      <trkpt lat="43.77006" lon="7.25531">
        <ele>838.72320556641</ele>
        <time>2014-01-18T10:46:15Z</time>
      </trkpt>
      <trkpt lat="43.77008" lon="7.25542">
        <ele>834.71484375</ele>
        <time>2014-01-18T10:46:19Z</time>
      </trkpt>
      <trkpt lat="43.77005" lon="7.25548">
        <ele>832.00671386719</ele>
        <time>2014-01-18T10:46:21Z</time>
      </trkpt>
      <trkpt lat="43.77003" lon="7.2556">
        <ele>827.29766845703</ele>
        <time>2014-01-18T10:46:24Z</time>
      </trkpt>
      <trkpt lat="43.77009" lon="7.25573">
        <ele>823.71325683594</ele>
        <time>2014-01-18T10:46:28Z</time>
      </trkpt>
      <trkpt lat="43.77023" lon="7.25576">
        <ele>823.56646728516</ele>
        <time>2014-01-18T10:46:32Z</time>
      </trkpt>
      <trkpt lat="43.77026" lon="7.25575">
        <ele>824.21301269531</ele>
        <time>2014-01-18T10:46:33Z</time>
      </trkpt>
      <trkpt lat="43.77034" lon="7.25573">
        <ele>824.41577148438</ele>
        <time>2014-01-18T10:46:36Z</time>
      </trkpt>
      <trkpt lat="43.77049" lon="7.25568">
        <ele>823.58123779297</ele>
        <time>2014-01-18T10:46:42Z</time>
      </trkpt>
      <trkpt lat="43.77065" lon="7.25561">
        <ele>822.998046875</ele>
        <time>2014-01-18T10:46:48Z</time>
      </trkpt>
      <trkpt lat="43.77069" lon="7.25558">
        <ele>823.02789306641</ele>
        <time>2014-01-18T10:46:50Z</time>
      </trkpt>
      <trkpt lat="43.77082" lon="7.2556">
        <ele>819.37255859375</ele>
        <time>2014-01-18T10:46:55Z</time>
      </trkpt>
      <trkpt lat="43.77095" lon="7.25562">
        <ele>818.86572265625</ele>
        <time>2014-01-18T10:46:59Z</time>
      </trkpt>
      <trkpt lat="43.77098" lon="7.25562">
        <ele>818.83135986328</ele>
        <time>2014-01-18T10:47:00Z</time>
      </trkpt>
      <trkpt lat="43.77114" lon="7.25558">
        <ele>819.31567382812</ele>
        <time>2014-01-18T10:47:05Z</time>
      </trkpt>
      <trkpt lat="43.77126" lon="7.25552">
        <ele>819.63195800781</ele>
        <time>2014-01-18T10:47:10Z</time>
      </trkpt>
      <trkpt lat="43.77139" lon="7.25548">
        <ele>819.39483642578</ele>
        <time>2014-01-18T10:47:15Z</time>
      </trkpt>
      <trkpt lat="43.77154" lon="7.25546">
        <ele>817.20819091797</ele>
        <time>2014-01-18T10:47:20Z</time>
      </trkpt>
      <trkpt lat="43.77165" lon="7.2554">
        <ele>816.88177490234</ele>
        <time>2014-01-18T10:47:25Z</time>
      </trkpt>
      <trkpt lat="43.77174" lon="7.25537">
        <ele>816.67492675781</ele>
        <time>2014-01-18T10:47:29Z</time>
      </trkpt>
      <trkpt lat="43.77182" lon="7.25544">
        <ele>814.21673583984</ele>
        <time>2014-01-18T10:47:33Z</time>
      </trkpt>
      <trkpt lat="43.77192" lon="7.25539">
        <ele>814.8896484375</ele>
        <time>2014-01-18T10:47:37Z</time>
      </trkpt>
      <trkpt lat="43.77202" lon="7.25534">
        <ele>814.73602294922</ele>
        <time>2014-01-18T10:47:41Z</time>
      </trkpt>
      <trkpt lat="43.77204" lon="7.25533">
        <ele>814.73602294922</ele>
        <time>2014-01-18T10:47:42Z</time>
      </trkpt>
      <trkpt lat="43.77217" lon="7.25527">
        <ele>814.10705566406</ele>
        <time>2014-01-18T10:47:48Z</time>
      </trkpt>
      <trkpt lat="43.77221" lon="7.25526">
        <ele>813.68170166016</ele>
        <time>2014-01-18T10:47:50Z</time>
      </trkpt>
      <trkpt lat="43.77229" lon="7.25534">
        <ele>810.03936767578</ele>
        <time>2014-01-18T10:47:54Z</time>
      </trkpt>
      <trkpt lat="43.77237" lon="7.2554">
        <ele>806.97692871094</ele>
        <time>2014-01-18T10:47:58Z</time>
      </trkpt>
      <trkpt lat="43.77238" lon="7.2554">
        <ele>806.59240722656</ele>
        <time>2014-01-18T10:47:59Z</time>
      </trkpt>
      <trkpt lat="43.77245" lon="7.25537">
        <ele>806.22161865234</ele>
        <time>2014-01-18T10:48:02Z</time>
      </trkpt>
      <trkpt lat="43.77251" lon="7.25539">
        <ele>804.79949951172</ele>
        <time>2014-01-18T10:48:05Z</time>
      </trkpt>
      <trkpt lat="43.77253" lon="7.25553">
        <ele>800.34375</ele>
        <time>2014-01-18T10:48:10Z</time>
      </trkpt>
      <trkpt lat="43.77253" lon="7.25563">
        <ele>798.06433105469</ele>
        <time>2014-01-18T10:48:14Z</time>
      </trkpt>
      <trkpt lat="43.77255" lon="7.25573">
        <ele>795.65649414062</ele>
        <time>2014-01-18T10:48:18Z</time>
      </trkpt>
      <trkpt lat="43.77259" lon="7.25579">
        <ele>793.78503417969</ele>
        <time>2014-01-18T10:48:21Z</time>
      </trkpt>
      <trkpt lat="43.77262" lon="7.25587">
        <ele>791.03979492188</ele>
        <time>2014-01-18T10:48:24Z</time>
      </trkpt>
      <trkpt lat="43.7727" lon="7.2559">
        <ele>788.82531738281</ele>
        <time>2014-01-18T10:48:27Z</time>
      </trkpt>
      <trkpt lat="43.77271" lon="7.25595">
        <ele>786.70361328125</ele>
        <time>2014-01-18T10:48:29Z</time>
      </trkpt>
      <trkpt lat="43.77271" lon="7.25613">
        <ele>780.35382080078</ele>
        <time>2014-01-18T10:48:35Z</time>
      </trkpt>
      <trkpt lat="43.77267" lon="7.25623">
        <ele>777.90417480469</ele>
        <time>2014-01-18T10:48:39Z</time>
      </trkpt>
      <trkpt lat="43.77264" lon="7.2564">
        <ele>773.18139648438</ele>
        <time>2014-01-18T10:48:45Z</time>
      </trkpt>
      <trkpt lat="43.77257" lon="7.25652">
        <ele>771.33776855469</ele>
        <time>2014-01-18T10:48:49Z</time>
      </trkpt>
      <trkpt lat="43.7726" lon="7.25656">
        <ele>770.2666015625</ele>
        <time>2014-01-18T10:48:51Z</time>
      </trkpt>
      <trkpt lat="43.77258" lon="7.25662">
        <ele>769.18511962891</ele>
        <time>2014-01-18T10:48:54Z</time>
      </trkpt>
      <trkpt lat="43.77257" lon="7.25668">
        <ele>767.779296875</ele>
        <time>2014-01-18T10:48:57Z</time>
      </trkpt>
      <trkpt lat="43.77255" lon="7.2568">
        <ele>764.07141113281</ele>
        <time>2014-01-18T10:49:02Z</time>
      </trkpt>
      <trkpt lat="43.77255" lon="7.2569">
        <ele>760.83215332031</ele>
        <time>2014-01-18T10:49:07Z</time>
      </trkpt>
      <trkpt lat="43.77259" lon="7.25701">
        <ele>757.57196044922</ele>
        <time>2014-01-18T10:49:12Z</time>
      </trkpt>
      <trkpt lat="43.77259" lon="7.25703">
        <ele>757.01806640625</ele>
        <time>2014-01-18T10:49:13Z</time>
      </trkpt>
      <trkpt lat="43.77265" lon="7.25711">
        <ele>754.57440185547</ele>
        <time>2014-01-18T10:49:18Z</time>
      </trkpt>
      <trkpt lat="43.77267" lon="7.25717">
        <ele>752.900390625</ele>
        <time>2014-01-18T10:49:21Z</time>
      </trkpt>
      <trkpt lat="43.77269" lon="7.25723">
        <ele>750.81854248047</ele>
        <time>2014-01-18T10:49:24Z</time>
      </trkpt>
      <trkpt lat="43.7727" lon="7.2573">
        <ele>748.39123535156</ele>
        <time>2014-01-18T10:49:27Z</time>
      </trkpt>
      <trkpt lat="43.77268" lon="7.25743">
        <ele>744.05163574219</ele>
        <time>2014-01-18T10:49:32Z</time>
      </trkpt>
      <trkpt lat="43.7727" lon="7.25762">
        <ele>738.28778076172</ele>
        <time>2014-01-18T10:49:39Z</time>
      </trkpt>
      <trkpt lat="43.77271" lon="7.25768">
        <ele>736.62829589844</ele>
        <time>2014-01-18T10:49:42Z</time>
      </trkpt>
      <trkpt lat="43.77269" lon="7.25776">
        <ele>734.8486328125</ele>
        <time>2014-01-18T10:49:46Z</time>
      </trkpt>
      <trkpt lat="43.77269" lon="7.25786">
        <ele>732.95251464844</ele>
        <time>2014-01-18T10:49:49Z</time>
      </trkpt>
      <trkpt lat="43.77271" lon="7.25799">
        <ele>731.03680419922</ele>
        <time>2014-01-18T10:49:53Z</time>
      </trkpt>
      <trkpt lat="43.7728" lon="7.25801">
        <ele>731.00085449219</ele>
        <time>2014-01-18T10:49:58Z</time>
      </trkpt>
      <trkpt lat="43.77283" lon="7.25805">
        <ele>731.00531005859</ele>
        <time>2014-01-18T10:50:02Z</time>
      </trkpt>
      <trkpt lat="43.77281" lon="7.25819">
        <ele>728.02978515625</ele>
        <time>2014-01-18T10:50:06Z</time>
      </trkpt>
      <trkpt lat="43.77277" lon="7.25841">
        <ele>722.92687988281</ele>
        <time>2014-01-18T10:50:11Z</time>
      </trkpt>
      <trkpt lat="43.77281" lon="7.25858">
        <ele>721.55694580078</ele>
        <time>2014-01-18T10:50:16Z</time>
      </trkpt>
      <trkpt lat="43.77282" lon="7.25864">
        <ele>721.47058105469</ele>
        <time>2014-01-18T10:50:18Z</time>
      </trkpt>
      <trkpt lat="43.77288" lon="7.2587">
        <ele>723.59991455078</ele>
        <time>2014-01-18T10:50:23Z</time>
      </trkpt>
      <trkpt lat="43.77291" lon="7.25871">
        <ele>724.47204589844</ele>
        <time>2014-01-18T10:50:24Z</time>
      </trkpt>
      <trkpt lat="43.77305" lon="7.25872">
        <ele>729.00927734375</ele>
        <time>2014-01-18T10:50:30Z</time>
      </trkpt>
      <trkpt lat="43.77318" lon="7.25866">
        <ele>732.54937744141</ele>
        <time>2014-01-18T10:50:36Z</time>
      </trkpt>
      <trkpt lat="43.77328" lon="7.25863">
        <ele>734.765625</ele>
        <time>2014-01-18T10:50:40Z</time>
      </trkpt>
      <trkpt lat="43.77335" lon="7.25861">
        <ele>736.11932373047</ele>
        <time>2014-01-18T10:50:46Z</time>
      </trkpt>
      <trkpt lat="43.77344" lon="7.25853">
        <ele>736.94079589844</ele>
        <time>2014-01-18T10:50:51Z</time>
      </trkpt>
      <trkpt lat="43.77351" lon="7.25847">
        <ele>737.47662353516</ele>
        <time>2014-01-18T10:50:55Z</time>
      </trkpt>
      <trkpt lat="43.77365" lon="7.25843">
        <ele>738.21240234375</ele>
        <time>2014-01-18T10:51:01Z</time>
      </trkpt>
      <trkpt lat="43.77367" lon="7.25841">
        <ele>738.28851318359</ele>
        <time>2014-01-18T10:51:02Z</time>
      </trkpt>
      <trkpt lat="43.77376" lon="7.25835">
        <ele>738.5537109375</ele>
        <time>2014-01-18T10:51:07Z</time>
      </trkpt>
      <trkpt lat="43.77378" lon="7.2583">
        <ele>738.67315673828</ele>
        <time>2014-01-18T10:51:09Z</time>
      </trkpt>
      <trkpt lat="43.77387" lon="7.25819">
        <ele>738.970703125</ele>
        <time>2014-01-18T10:51:14Z</time>
      </trkpt>
      <trkpt lat="43.77396" lon="7.25816">
        <ele>739</ele>
        <time>2014-01-18T10:51:19Z</time>
      </trkpt>
      <trkpt lat="43.77403" lon="7.25813">
        <ele>739</ele>
        <time>2014-01-18T10:51:23Z</time>
      </trkpt>
      <trkpt lat="43.77416" lon="7.2581">
        <ele>739</ele>
        <time>2014-01-18T10:51:29Z</time>
      </trkpt>
      <trkpt lat="43.77423" lon="7.25804">
        <ele>739</ele>
        <time>2014-01-18T10:51:34Z</time>
      </trkpt>
      <trkpt lat="43.77419" lon="7.25796">
        <ele>739</ele>
        <time>2014-01-18T10:51:40Z</time>
      </trkpt>
      <trkpt lat="43.77416" lon="7.25791">
        <ele>739</ele>
        <time>2014-01-18T10:51:42Z</time>
      </trkpt>
      <trkpt lat="43.77409" lon="7.25782">
        <ele>739</ele>
        <time>2014-01-18T10:51:47Z</time>
      </trkpt>
      <trkpt lat="43.77402" lon="7.25775">
        <ele>738.8984375</ele>
        <time>2014-01-18T10:51:51Z</time>
      </trkpt>
      <trkpt lat="43.77398" lon="7.25773">
        <ele>738.81604003906</ele>
        <time>2014-01-18T10:51:53Z</time>
      </trkpt>
      <trkpt lat="43.77394" lon="7.2576">
        <ele>738.34564208984</ele>
        <time>2014-01-18T10:51:58Z</time>
      </trkpt>
      <trkpt lat="43.77396" lon="7.25749">
        <ele>738</ele>
        <time>2014-01-18T10:52:03Z</time>
      </trkpt>
      <trkpt lat="43.77406" lon="7.2574">
        <ele>738</ele>
        <time>2014-01-18T10:52:09Z</time>
      </trkpt>
      <trkpt lat="43.77422" lon="7.25725">
        <ele>738</ele>
        <time>2014-01-18T10:52:17Z</time>
      </trkpt>
      <trkpt lat="43.77428" lon="7.25718">
        <ele>738</ele>
        <time>2014-01-18T10:52:20Z</time>
      </trkpt>
      <trkpt lat="43.77437" lon="7.25716">
        <ele>738</ele>
        <time>2014-01-18T10:52:24Z</time>
      </trkpt>
      <trkpt lat="43.77446" lon="7.25706">
        <ele>737.72338867188</ele>
        <time>2014-01-18T10:52:28Z</time>
      </trkpt>
      <trkpt lat="43.7745" lon="7.25701">
        <ele>737.17407226562</ele>
        <time>2014-01-18T10:52:30Z</time>
      </trkpt>
      <trkpt lat="43.77458" lon="7.25693">
        <ele>736.10064697266</ele>
        <time>2014-01-18T10:52:34Z</time>
      </trkpt>
      <trkpt lat="43.7747" lon="7.25683">
        <ele>734.65814208984</ele>
        <time>2014-01-18T10:52:39Z</time>
      </trkpt>
      <trkpt lat="43.77478" lon="7.25676">
        <ele>733.82391357422</ele>
        <time>2014-01-18T10:52:42Z</time>
      </trkpt>
      <trkpt lat="43.77483" lon="7.25673">
        <ele>733.00994873047</ele>
        <time>2014-01-18T10:52:44Z</time>
      </trkpt>
      <trkpt lat="43.77487" lon="7.25674">
        <ele>732.326171875</ele>
        <time>2014-01-18T10:52:46Z</time>
      </trkpt>
      <trkpt lat="43.77492" lon="7.25688">
        <ele>731.74017333984</ele>
        <time>2014-01-18T10:52:51Z</time>
      </trkpt>
      <trkpt lat="43.77499" lon="7.25691">
        <ele>730.99462890625</ele>
        <time>2014-01-18T10:52:54Z</time>
      </trkpt>
      <trkpt lat="43.77504" lon="7.25684">
        <ele>729.55450439453</ele>
        <time>2014-01-18T10:52:57Z</time>
      </trkpt>
      <trkpt lat="43.77509" lon="7.25674">
        <ele>727.76940917969</ele>
        <time>2014-01-18T10:53:00Z</time>
      </trkpt>
      <trkpt lat="43.77522" lon="7.25662">
        <ele>723.54571533203</ele>
        <time>2014-01-18T10:53:05Z</time>
      </trkpt>
      <trkpt lat="43.77526" lon="7.25661">
        <ele>722.1337890625</ele>
        <time>2014-01-18T10:53:07Z</time>
      </trkpt>
      <trkpt lat="43.77538" lon="7.25659">
        <ele>719.09869384766</ele>
        <time>2014-01-18T10:53:12Z</time>
      </trkpt>
      <trkpt lat="43.77537" lon="7.25648">
        <ele>718.27972412109</ele>
        <time>2014-01-18T10:53:17Z</time>
      </trkpt>
      <trkpt lat="43.77545" lon="7.25633">
        <ele>714.55456542969</ele>
        <time>2014-01-18T10:53:23Z</time>
      </trkpt>
      <trkpt lat="43.77553" lon="7.25624">
        <ele>711.62945556641</ele>
        <time>2014-01-18T10:53:27Z</time>
      </trkpt>
      <trkpt lat="43.7756" lon="7.25622">
        <ele>709.75042724609</ele>
        <time>2014-01-18T10:53:31Z</time>
      </trkpt>
      <trkpt lat="43.77565" lon="7.25613">
        <ele>707.99029541016</ele>
        <time>2014-01-18T10:53:34Z</time>
      </trkpt>
      <trkpt lat="43.77569" lon="7.25608">
        <ele>707.49206542969</ele>
        <time>2014-01-18T10:53:36Z</time>
      </trkpt>
      <trkpt lat="43.77584" lon="7.256">
        <ele>705.41870117188</ele>
        <time>2014-01-18T10:53:41Z</time>
      </trkpt>
      <trkpt lat="43.77595" lon="7.25595">
        <ele>702.92578125</ele>
        <time>2014-01-18T10:53:45Z</time>
      </trkpt>
      <trkpt lat="43.77603" lon="7.25582">
        <ele>702.45367431641</ele>
        <time>2014-01-18T10:53:49Z</time>
      </trkpt>
      <trkpt lat="43.77617" lon="7.25568">
        <ele>699.04724121094</ele>
        <time>2014-01-18T10:53:54Z</time>
      </trkpt>
      <trkpt lat="43.77628" lon="7.25561">
        <ele>696.33209228516</ele>
        <time>2014-01-18T10:53:58Z</time>
      </trkpt>
      <trkpt lat="43.77644" lon="7.25556">
        <ele>691.8369140625</ele>
        <time>2014-01-18T10:54:03Z</time>
      </trkpt>
      <trkpt lat="43.77647" lon="7.25555">
        <ele>690.75787353516</ele>
        <time>2014-01-18T10:54:04Z</time>
      </trkpt>
      <trkpt lat="43.77658" lon="7.25539">
        <ele>690.34918212891</ele>
        <time>2014-01-18T10:54:09Z</time>
      </trkpt>
      <trkpt lat="43.7767" lon="7.2553">
        <ele>688.31622314453</ele>
        <time>2014-01-18T10:54:13Z</time>
      </trkpt>
      <trkpt lat="43.77675" lon="7.25522">
        <ele>688.70562744141</ele>
        <time>2014-01-18T10:54:17Z</time>
      </trkpt>
      <trkpt lat="43.7768" lon="7.2552">
        <ele>687.50207519531</ele>
        <time>2014-01-18T10:54:21Z</time>
      </trkpt>
      <trkpt lat="43.77682" lon="7.25521">
        <ele>686.35968017578</ele>
        <time>2014-01-18T10:54:23Z</time>
      </trkpt>
      <trkpt lat="43.77687" lon="7.2552">
        <ele>684.53686523438</ele>
        <time>2014-01-18T10:54:28Z</time>
      </trkpt>
      <trkpt lat="43.77689" lon="7.25521">
        <ele>683.81164550781</ele>
        <time>2014-01-18T10:54:29Z</time>
      </trkpt>
      <trkpt lat="43.777" lon="7.25522">
        <ele>679.50500488281</ele>
        <time>2014-01-18T10:54:34Z</time>
      </trkpt>
      <trkpt lat="43.77707" lon="7.25527">
        <ele>675.5380859375</ele>
        <time>2014-01-18T10:54:37Z</time>
      </trkpt>
      <trkpt lat="43.7771" lon="7.25527">
        <ele>674.80786132812</ele>
        <time>2014-01-18T10:54:38Z</time>
      </trkpt>
      <trkpt lat="43.77717" lon="7.25526">
        <ele>672.69067382812</ele>
        <time>2014-01-18T10:54:41Z</time>
      </trkpt>
      <trkpt lat="43.7772" lon="7.25527">
        <ele>670.82885742188</ele>
        <time>2014-01-18T10:54:43Z</time>
      </trkpt>
      <trkpt lat="43.77726" lon="7.25531">
        <ele>667.32647705078</ele>
        <time>2014-01-18T10:54:48Z</time>
      </trkpt>
      <trkpt lat="43.77732" lon="7.2553">
        <ele>664.88452148438</ele>
        <time>2014-01-18T10:54:52Z</time>
      </trkpt>
      <trkpt lat="43.77739" lon="7.25536">
        <ele>660.48419189453</ele>
        <time>2014-01-18T10:54:57Z</time>
      </trkpt>
      <trkpt lat="43.77745" lon="7.25537">
        <ele>657.63067626953</ele>
        <time>2014-01-18T10:55:01Z</time>
      </trkpt>
      <trkpt lat="43.77746" lon="7.2554">
        <ele>656.56097412109</ele>
        <time>2014-01-18T10:55:07Z</time>
      </trkpt>
      <trkpt lat="43.77745" lon="7.2554">
        <ele>656.61779785156</ele>
        <time>2014-01-18T10:55:13Z</time>
      </trkpt>
      <trkpt lat="43.77742" lon="7.25538">
        <ele>658.58294677734</ele>
        <time>2014-01-18T10:55:20Z</time>
      </trkpt>
      <trkpt lat="43.7774" lon="7.25537">
        <ele>659.43005371094</ele>
        <time>2014-01-18T10:55:25Z</time>
      </trkpt>
      <trkpt lat="43.77739" lon="7.25538">
        <ele>659.49127197266</ele>
        <time>2014-01-18T10:55:33Z</time>
      </trkpt>
      <trkpt lat="43.77737" lon="7.25537">
        <ele>660.92584228516</ele>
        <time>2014-01-18T10:55:35Z</time>
      </trkpt>
      <trkpt lat="43.77729" lon="7.25533">
        <ele>665.56549072266</ele>
        <time>2014-01-18T10:55:40Z</time>
      </trkpt>
      <trkpt lat="43.77724" lon="7.25534">
        <ele>667.30834960938</ele>
        <time>2014-01-18T10:55:44Z</time>
      </trkpt>
      <trkpt lat="43.77718" lon="7.25526">
        <ele>671.92413330078</ele>
        <time>2014-01-18T10:55:49Z</time>
      </trkpt>
      <trkpt lat="43.77715" lon="7.25519">
        <ele>675.55883789062</ele>
        <time>2014-01-18T10:55:54Z</time>
      </trkpt>
      <trkpt lat="43.77713" lon="7.25512">
        <ele>678.32305908203</ele>
        <time>2014-01-18T10:56:03Z</time>
      </trkpt>
      <trkpt lat="43.77713" lon="7.25507">
        <ele>680.18377685547</ele>
        <time>2014-01-18T10:56:09Z</time>
      </trkpt>
      <trkpt lat="43.77715" lon="7.25501">
        <ele>681.44451904297</ele>
        <time>2014-01-18T10:56:13Z</time>
      </trkpt>
      <trkpt lat="43.77713" lon="7.25498">
        <ele>682.72845458984</ele>
        <time>2014-01-18T10:56:17Z</time>
      </trkpt>
      <trkpt lat="43.77711" lon="7.25493">
        <ele>684.03234863281</ele>
        <time>2014-01-18T10:56:22Z</time>
      </trkpt>
      <trkpt lat="43.77709" lon="7.25492">
        <ele>684.73071289062</ele>
        <time>2014-01-18T10:56:26Z</time>
      </trkpt>
      <trkpt lat="43.77707" lon="7.25488">
        <ele>685.80163574219</ele>
        <time>2014-01-18T10:56:33Z</time>
      </trkpt>
      <trkpt lat="43.77707" lon="7.25486">
        <ele>686.03533935547</ele>
        <time>2014-01-18T10:56:41Z</time>
      </trkpt>
      <trkpt lat="43.77704" lon="7.25486">
        <ele>687.05841064453</ele>
        <time>2014-01-18T10:56:47Z</time>
      </trkpt>
      <trkpt lat="43.77703" lon="7.25486">
        <ele>687.20867919922</ele>
        <time>2014-01-18T10:56:51Z</time>
      </trkpt>
      <trkpt lat="43.77701" lon="7.25483">
        <ele>688.31884765625</ele>
        <time>2014-01-18T10:56:55Z</time>
      </trkpt>
      <trkpt lat="43.77699" lon="7.25479">
        <ele>689.58758544922</ele>
        <time>2014-01-18T10:57:00Z</time>
      </trkpt>
      <trkpt lat="43.77697" lon="7.25474">
        <ele>691.03186035156</ele>
        <time>2014-01-18T10:57:06Z</time>
      </trkpt>
      <trkpt lat="43.77694" lon="7.25471">
        <ele>692.60986328125</ele>
        <time>2014-01-18T10:57:11Z</time>
      </trkpt>
      <trkpt lat="43.77691" lon="7.25467">
        <ele>694.37451171875</ele>
        <time>2014-01-18T10:57:16Z</time>
      </trkpt>
      <trkpt lat="43.77689" lon="7.25466">
        <ele>695.53839111328</ele>
        <time>2014-01-18T10:57:20Z</time>
      </trkpt>
      <trkpt lat="43.77685" lon="7.25464">
        <ele>697.07305908203</ele>
        <time>2014-01-18T10:57:25Z</time>
      </trkpt>
      <trkpt lat="43.77681" lon="7.25462">
        <ele>698.89953613281</ele>
        <time>2014-01-18T10:57:31Z</time>
      </trkpt>
      <trkpt lat="43.77678" lon="7.25459">
        <ele>700.80493164062</ele>
        <time>2014-01-18T10:57:36Z</time>
      </trkpt>
      <trkpt lat="43.77674" lon="7.25463">
        <ele>701.44012451172</ele>
        <time>2014-01-18T10:57:41Z</time>
      </trkpt>
      <trkpt lat="43.77673" lon="7.25463">
        <ele>701.88299560547</ele>
        <time>2014-01-18T10:57:42Z</time>
      </trkpt>
      <trkpt lat="43.77668" lon="7.25463">
        <ele>703.55151367188</ele>
        <time>2014-01-18T10:57:46Z</time>
      </trkpt>
      <trkpt lat="43.77664" lon="7.25464">
        <ele>704.42163085938</ele>
        <time>2014-01-18T10:57:49Z</time>
      </trkpt>
      <trkpt lat="43.77661" lon="7.25464">
        <ele>705.3349609375</ele>
        <time>2014-01-18T10:57:52Z</time>
      </trkpt>
      <trkpt lat="43.77652" lon="7.25466">
        <ele>707.26190185547</ele>
        <time>2014-01-18T10:57:59Z</time>
      </trkpt>
      <trkpt lat="43.77649" lon="7.25463">
        <ele>708.74542236328</ele>
        <time>2014-01-18T10:58:03Z</time>
      </trkpt>
      <trkpt lat="43.77646" lon="7.25465">
        <ele>709.18188476562</ele>
        <time>2014-01-18T10:58:06Z</time>
      </trkpt>
      <trkpt lat="43.77639" lon="7.25462">
        <ele>711.85089111328</ele>
        <time>2014-01-18T10:58:13Z</time>
      </trkpt>
      <trkpt lat="43.77636" lon="7.25459">
        <ele>713.2939453125</ele>
        <time>2014-01-18T10:58:17Z</time>
      </trkpt>
      <trkpt lat="43.77629" lon="7.25453">
        <ele>716.09948730469</ele>
        <time>2014-01-18T10:58:24Z</time>
      </trkpt>
      <trkpt lat="43.77626" lon="7.2545">
        <ele>717.17114257812</ele>
        <time>2014-01-18T10:58:27Z</time>
      </trkpt>
      <trkpt lat="43.77621" lon="7.25443">
        <ele>719.84332275391</ele>
        <time>2014-01-18T10:58:34Z</time>
      </trkpt>
      <trkpt lat="43.7762" lon="7.25441">
        <ele>720.53430175781</ele>
        <time>2014-01-18T10:58:36Z</time>
      </trkpt>
      <trkpt lat="43.77618" lon="7.25433">
        <ele>722.77465820312</ele>
        <time>2014-01-18T10:58:42Z</time>
      </trkpt>
      <trkpt lat="43.77614" lon="7.25427">
        <ele>724.97906494141</ele>
        <time>2014-01-18T10:58:48Z</time>
      </trkpt>
      <trkpt lat="43.77612" lon="7.25421">
        <ele>726.75775146484</ele>
        <time>2014-01-18T10:58:53Z</time>
      </trkpt>
      <trkpt lat="43.7761" lon="7.25414">
        <ele>728.8515625</ele>
        <time>2014-01-18T10:58:59Z</time>
      </trkpt>
      <trkpt lat="43.7761" lon="7.25406">
        <ele>729.45758056641</ele>
        <time>2014-01-18T10:59:05Z</time>
      </trkpt>
      <trkpt lat="43.77612" lon="7.254">
        <ele>729.46398925781</ele>
        <time>2014-01-18T10:59:11Z</time>
      </trkpt>
      <trkpt lat="43.77613" lon="7.25398">
        <ele>729.26440429688</ele>
        <time>2014-01-18T10:59:12Z</time>
      </trkpt>
      <trkpt lat="43.77619" lon="7.25389">
        <ele>728.50555419922</ele>
        <time>2014-01-18T10:59:17Z</time>
      </trkpt>
      <trkpt lat="43.77619" lon="7.25386">
        <ele>728.84204101562</ele>
        <time>2014-01-18T10:59:18Z</time>
      </trkpt>
      <trkpt lat="43.77637" lon="7.25376">
        <ele>723.78521728516</ele>
        <time>2014-01-18T10:59:25Z</time>
      </trkpt>
      <trkpt lat="43.77641" lon="7.2537">
        <ele>723.06677246094</ele>
        <time>2014-01-18T10:59:28Z</time>
      </trkpt>
      <trkpt lat="43.77644" lon="7.25366">
        <ele>723.04748535156</ele>
        <time>2014-01-18T10:59:31Z</time>
      </trkpt>
      <trkpt lat="43.77649" lon="7.2536">
        <ele>722.98828125</ele>
        <time>2014-01-18T10:59:34Z</time>
      </trkpt>
      <trkpt lat="43.77652" lon="7.25357">
        <ele>722.94366455078</ele>
        <time>2014-01-18T10:59:38Z</time>
      </trkpt>
      <trkpt lat="43.77654" lon="7.25354">
        <ele>722.89215087891</ele>
        <time>2014-01-18T10:59:43Z</time>
      </trkpt>
      <trkpt lat="43.77659" lon="7.25349">
        <ele>722.69989013672</ele>
        <time>2014-01-18T10:59:47Z</time>
      </trkpt>
      <trkpt lat="43.77665" lon="7.25341">
        <ele>722.68957519531</ele>
        <time>2014-01-18T10:59:51Z</time>
      </trkpt>
      <trkpt lat="43.77671" lon="7.25334">
        <ele>722.34381103516</ele>
        <time>2014-01-18T10:59:56Z</time>
      </trkpt>
      <trkpt lat="43.77676" lon="7.25327">
        <ele>721.87854003906</ele>
        <time>2014-01-18T11:00:01Z</time>
      </trkpt>
      <trkpt lat="43.77681" lon="7.25317">
        <ele>721.58673095703</ele>
        <time>2014-01-18T11:00:06Z</time>
      </trkpt>
      <trkpt lat="43.77685" lon="7.2531">
        <ele>721.16961669922</ele>
        <time>2014-01-18T11:00:10Z</time>
      </trkpt>
      <trkpt lat="43.77688" lon="7.25303">
        <ele>721.09173583984</ele>
        <time>2014-01-18T11:00:13Z</time>
      </trkpt>
      <trkpt lat="43.7769" lon="7.25293">
        <ele>721.53485107422</ele>
        <time>2014-01-18T11:00:17Z</time>
      </trkpt>
      <trkpt lat="43.77689" lon="7.25288">
        <ele>721.93829345703</ele>
        <time>2014-01-18T11:00:20Z</time>
      </trkpt>
      <trkpt lat="43.77688" lon="7.25276">
        <ele>722.77624511719</ele>
        <time>2014-01-18T11:00:26Z</time>
      </trkpt>
      <trkpt lat="43.77688" lon="7.25273">
        <ele>722.88360595703</ele>
        <time>2014-01-18T11:00:28Z</time>
      </trkpt>
      <trkpt lat="43.77692" lon="7.25269">
        <ele>722.62329101562</ele>
        <time>2014-01-18T11:00:34Z</time>
      </trkpt>
      <trkpt lat="43.77693" lon="7.25268">
        <ele>722.51824951172</ele>
        <time>2014-01-18T11:00:35Z</time>
      </trkpt>
      <trkpt lat="43.77694" lon="7.25258">
        <ele>722.81750488281</ele>
        <time>2014-01-18T11:00:42Z</time>
      </trkpt>
      <trkpt lat="43.77692" lon="7.25249">
        <ele>723.37811279297</ele>
        <time>2014-01-18T11:00:48Z</time>
      </trkpt>
      <trkpt lat="43.77692" lon="7.25241">
        <ele>723.73516845703</ele>
        <time>2014-01-18T11:00:53Z</time>
      </trkpt>
      <trkpt lat="43.77693" lon="7.25236">
        <ele>723.67681884766</ele>
        <time>2014-01-18T11:00:58Z</time>
      </trkpt>
      <trkpt lat="43.77695" lon="7.25235">
        <ele>723.462890625</ele>
        <time>2014-01-18T11:01:02Z</time>
      </trkpt>
      <trkpt lat="43.77698" lon="7.25236">
        <ele>723.15905761719</ele>
        <time>2014-01-18T11:01:07Z</time>
      </trkpt>
      <trkpt lat="43.77699" lon="7.25235">
        <ele>723.09899902344</ele>
        <time>2014-01-18T11:01:08Z</time>
      </trkpt>
      <trkpt lat="43.77704" lon="7.25231">
        <ele>722.68530273438</ele>
        <time>2014-01-18T11:01:12Z</time>
      </trkpt>
      <trkpt lat="43.77711" lon="7.25223">
        <ele>722.11706542969</ele>
        <time>2014-01-18T11:01:16Z</time>
      </trkpt>
      <trkpt lat="43.77718" lon="7.25216">
        <ele>721.53900146484</ele>
        <time>2014-01-18T11:01:20Z</time>
      </trkpt>
      <trkpt lat="43.77726" lon="7.25206">
        <ele>719.35980224609</ele>
        <time>2014-01-18T11:01:25Z</time>
      </trkpt>
      <trkpt lat="43.77735" lon="7.25194">
        <ele>715.85571289062</ele>
        <time>2014-01-18T11:01:30Z</time>
      </trkpt>
      <trkpt lat="43.7774" lon="7.25185">
        <ele>713.38891601562</ele>
        <time>2014-01-18T11:01:33Z</time>
      </trkpt>
      <trkpt lat="43.77746" lon="7.25171">
        <ele>710.08154296875</ele>
        <time>2014-01-18T11:01:37Z</time>
      </trkpt>
      <trkpt lat="43.77753" lon="7.25161">
        <ele>706.02856445312</ele>
        <time>2014-01-18T11:01:42Z</time>
      </trkpt>
      <trkpt lat="43.77754" lon="7.25158">
        <ele>705.02447509766</ele>
        <time>2014-01-18T11:01:43Z</time>
      </trkpt>
      <trkpt lat="43.77768" lon="7.25148">
        <ele>697.78839111328</ele>
        <time>2014-01-18T11:01:49Z</time>
      </trkpt>
      <trkpt lat="43.77776" lon="7.25143">
        <ele>694.13970947266</ele>
        <time>2014-01-18T11:01:54Z</time>
      </trkpt>
      <trkpt lat="43.7778" lon="7.25144">
        <ele>692.65936279297</ele>
        <time>2014-01-18T11:01:57Z</time>
      </trkpt>
      <trkpt lat="43.77784" lon="7.25141">
        <ele>691.60089111328</ele>
        <time>2014-01-18T11:01:59Z</time>
      </trkpt>
      <trkpt lat="43.77794" lon="7.25121">
        <ele>688.67449951172</ele>
        <time>2014-01-18T11:02:05Z</time>
      </trkpt>
      <trkpt lat="43.77799" lon="7.25113">
        <ele>687.46673583984</ele>
        <time>2014-01-18T11:02:08Z</time>
      </trkpt>
      <trkpt lat="43.77807" lon="7.25103">
        <ele>685.63708496094</ele>
        <time>2014-01-18T11:02:12Z</time>
      </trkpt>
      <trkpt lat="43.7781" lon="7.25094">
        <ele>685.14270019531</ele>
        <time>2014-01-18T11:02:15Z</time>
      </trkpt>
      <trkpt lat="43.77812" lon="7.25086">
        <ele>684.64831542969</ele>
        <time>2014-01-18T11:02:18Z</time>
      </trkpt>
      <trkpt lat="43.77812" lon="7.25078">
        <ele>684.64831542969</ele>
        <time>2014-01-18T11:02:21Z</time>
      </trkpt>
      <trkpt lat="43.77813" lon="7.25073">
        <ele>684.48352050781</ele>
        <time>2014-01-18T11:02:23Z</time>
      </trkpt>
      <trkpt lat="43.77816" lon="7.25064">
        <ele>683.74194335938</ele>
        <time>2014-01-18T11:02:27Z</time>
      </trkpt>
      <trkpt lat="43.77819" lon="7.25056">
        <ele>683.08276367188</ele>
        <time>2014-01-18T11:02:30Z</time>
      </trkpt>
      <trkpt lat="43.77822" lon="7.25047">
        <ele>681.54254150391</ele>
        <time>2014-01-18T11:02:34Z</time>
      </trkpt>
      <trkpt lat="43.7782" lon="7.25035">
        <ele>680.64129638672</ele>
        <time>2014-01-18T11:02:38Z</time>
      </trkpt>
      <trkpt lat="43.77821" lon="7.25022">
        <ele>679.33660888672</ele>
        <time>2014-01-18T11:02:44Z</time>
      </trkpt>
      <trkpt lat="43.77818" lon="7.25014">
        <ele>679.32745361328</ele>
        <time>2014-01-18T11:02:48Z</time>
      </trkpt>
      <trkpt lat="43.77815" lon="7.25007">
        <ele>679.62280273438</ele>
        <time>2014-01-18T11:02:51Z</time>
      </trkpt>
      <trkpt lat="43.7782" lon="7.25006">
        <ele>678.33953857422</ele>
        <time>2014-01-18T11:02:54Z</time>
      </trkpt>
      <trkpt lat="43.77825" lon="7.25009">
        <ele>677.21142578125</ele>
        <time>2014-01-18T11:02:56Z</time>
      </trkpt>
      <trkpt lat="43.77836" lon="7.25015">
        <ele>674.70251464844</ele>
        <time>2014-01-18T11:03:02Z</time>
      </trkpt>
      <trkpt lat="43.77837" lon="7.25014">
        <ele>674.29718017578</ele>
        <time>2014-01-18T11:03:03Z</time>
      </trkpt>
      <trkpt lat="43.77837" lon="7.25007">
        <ele>673.62628173828</ele>
        <time>2014-01-18T11:03:08Z</time>
      </trkpt>
      <trkpt lat="43.77837" lon="7.25002">
        <ele>673.29412841797</ele>
        <time>2014-01-18T11:03:10Z</time>
      </trkpt>
      <trkpt lat="43.77836" lon="7.24999">
        <ele>672.91973876953</ele>
        <time>2014-01-18T11:03:12Z</time>
      </trkpt>
      <trkpt lat="43.77832" lon="7.24987">
        <ele>671.96856689453</ele>
        <time>2014-01-18T11:03:18Z</time>
      </trkpt>
      <trkpt lat="43.77831" lon="7.24982">
        <ele>671.77630615234</ele>
        <time>2014-01-18T11:03:22Z</time>
      </trkpt>
      <trkpt lat="43.77832" lon="7.2498">
        <ele>670.69830322266</ele>
        <time>2014-01-18T11:03:26Z</time>
      </trkpt>
      <trkpt lat="43.77834" lon="7.24976">
        <ele>669.49371337891</ele>
        <time>2014-01-18T11:03:29Z</time>
      </trkpt>
      <trkpt lat="43.77837" lon="7.24974">
        <ele>668.63220214844</ele>
        <time>2014-01-18T11:03:33Z</time>
      </trkpt>
      <trkpt lat="43.77834" lon="7.24975">
        <ele>669.21453857422</ele>
        <time>2014-01-18T11:03:39Z</time>
      </trkpt>
      <trkpt lat="43.7783" lon="7.24968">
        <ele>669.68658447266</ele>
        <time>2014-01-18T11:03:46Z</time>
      </trkpt>
      <trkpt lat="43.77827" lon="7.24964">
        <ele>670.04925537109</ele>
        <time>2014-01-18T11:03:51Z</time>
      </trkpt>
      <trkpt lat="43.77826" lon="7.24959">
        <ele>669.85668945312</ele>
        <time>2014-01-18T11:03:56Z</time>
      </trkpt>
      <trkpt lat="43.77827" lon="7.24958">
        <ele>669.37457275391</ele>
        <time>2014-01-18T11:04:02Z</time>
      </trkpt>
      <trkpt lat="43.77827" lon="7.24959">
        <ele>669.39776611328</ele>
        <time>2014-01-18T11:04:11Z</time>
      </trkpt>
      <trkpt lat="43.77827" lon="7.24958">
        <ele>669.19146728516</ele>
        <time>2014-01-18T11:04:18Z</time>
      </trkpt>
      <trkpt lat="43.77827" lon="7.24954">
        <ele>668.61083984375</ele>
        <time>2014-01-18T11:04:22Z</time>
      </trkpt>
      <trkpt lat="43.77829" lon="7.24946">
        <ele>666.49365234375</ele>
        <time>2014-01-18T11:04:28Z</time>
      </trkpt>
      <trkpt lat="43.77829" lon="7.24944">
        <ele>666.23352050781</ele>
        <time>2014-01-18T11:04:29Z</time>
      </trkpt>
      <trkpt lat="43.77826" lon="7.24937">
        <ele>666.69006347656</ele>
        <time>2014-01-18T11:04:34Z</time>
      </trkpt>
      <trkpt lat="43.77825" lon="7.24936">
        <ele>666.81103515625</ele>
        <time>2014-01-18T11:04:35Z</time>
      </trkpt>
      <trkpt lat="43.77823" lon="7.24931">
        <ele>666.73101806641</ele>
        <time>2014-01-18T11:04:38Z</time>
      </trkpt>
      <trkpt lat="43.77819" lon="7.24927">
        <ele>667.45922851562</ele>
        <time>2014-01-18T11:04:40Z</time>
      </trkpt>
      <trkpt lat="43.77809" lon="7.24921">
        <ele>669.5224609375</ele>
        <time>2014-01-18T11:04:45Z</time>
      </trkpt>
      <trkpt lat="43.77798" lon="7.24911">
        <ele>669.30181884766</ele>
        <time>2014-01-18T11:04:50Z</time>
      </trkpt>
      <trkpt lat="43.77793" lon="7.24906">
        <ele>668.51904296875</ele>
        <time>2014-01-18T11:04:52Z</time>
      </trkpt>
      <trkpt lat="43.77785" lon="7.24899">
        <ele>667.59893798828</ele>
        <time>2014-01-18T11:04:55Z</time>
      </trkpt>
      <trkpt lat="43.77773" lon="7.24895">
        <ele>667.583984375</ele>
        <time>2014-01-18T11:05:00Z</time>
      </trkpt>
      <trkpt lat="43.77768" lon="7.24889">
        <ele>666.68237304688</ele>
        <time>2014-01-18T11:05:05Z</time>
      </trkpt>
      <trkpt lat="43.77769" lon="7.24889">
        <ele>666.71893310547</ele>
        <time>2014-01-18T11:05:13Z</time>
      </trkpt>
      <trkpt lat="43.7777" lon="7.2489">
        <ele>666.71728515625</ele>
        <time>2014-01-18T11:05:18Z</time>
      </trkpt>
      <trkpt lat="43.77769" lon="7.24889">
        <ele>666.72973632812</ele>
        <time>2014-01-18T11:05:23Z</time>
      </trkpt>
      <trkpt lat="43.7777" lon="7.24888">
        <ele>666.46197509766</ele>
        <time>2014-01-18T11:05:28Z</time>
      </trkpt>
      <trkpt lat="43.77771" lon="7.24888">
        <ele>666.44140625</ele>
        <time>2014-01-18T11:05:35Z</time>
      </trkpt>
      <trkpt lat="43.77771" lon="7.24889">
        <ele>666.44140625</ele>
        <time>2014-01-18T11:05:44Z</time>
      </trkpt>
      <trkpt lat="43.77771" lon="7.24889">
        <ele>666.50317382812</ele>
        <time>2014-01-18T11:05:54Z</time>
      </trkpt>
      <trkpt lat="43.7777" lon="7.24889">
        <ele>666.66345214844</ele>
        <time>2014-01-18T11:06:03Z</time>
      </trkpt>
      <trkpt lat="43.7777" lon="7.2489">
        <ele>666.73883056641</ele>
        <time>2014-01-18T11:06:09Z</time>
      </trkpt>
      <trkpt lat="43.77771" lon="7.2489">
        <ele>666.7431640625</ele>
        <time>2014-01-18T11:06:13Z</time>
      </trkpt>
      <trkpt lat="43.77771" lon="7.24891">
        <ele>667.01171875</ele>
        <time>2014-01-18T11:06:18Z</time>
      </trkpt>
      <trkpt lat="43.7777" lon="7.24891">
        <ele>667.08331298828</ele>
        <time>2014-01-18T11:06:26Z</time>
      </trkpt>
      <trkpt lat="43.7777" lon="7.24892">
        <ele>667.16589355469</ele>
        <time>2014-01-18T11:06:37Z</time>
      </trkpt>
      <trkpt lat="43.77769" lon="7.24895">
        <ele>667.99487304688</ele>
        <time>2014-01-18T11:06:44Z</time>
      </trkpt>
      <trkpt lat="43.77764" lon="7.24898">
        <ele>669.21319580078</ele>
        <time>2014-01-18T11:06:50Z</time>
      </trkpt>
      <trkpt lat="43.77761" lon="7.24899">
        <ele>669.72991943359</ele>
        <time>2014-01-18T11:06:53Z</time>
      </trkpt>
      <trkpt lat="43.77751" lon="7.24903">
        <ele>671.35858154297</ele>
        <time>2014-01-18T11:07:01Z</time>
      </trkpt>
      <trkpt lat="43.7775" lon="7.24903">
        <ele>671.65362548828</ele>
        <time>2014-01-18T11:07:08Z</time>
      </trkpt>
      <trkpt lat="43.77747" lon="7.24904">
        <ele>671.74291992188</ele>
        <time>2014-01-18T11:07:14Z</time>
      </trkpt>
      <trkpt lat="43.77737" lon="7.24906">
        <ele>672.11895751953</ele>
        <time>2014-01-18T11:07:22Z</time>
      </trkpt>
      <trkpt lat="43.77728" lon="7.2491">
        <ele>673.13482666016</ele>
        <time>2014-01-18T11:07:26Z</time>
      </trkpt>
      <trkpt lat="43.77716" lon="7.24918">
        <ele>675.26287841797</ele>
        <time>2014-01-18T11:07:31Z</time>
      </trkpt>
      <trkpt lat="43.77702" lon="7.24923">
        <ele>676.20703125</ele>
        <time>2014-01-18T11:07:36Z</time>
      </trkpt>
      <trkpt lat="43.7769" lon="7.24922">
        <ele>675.47436523438</ele>
        <time>2014-01-18T11:07:40Z</time>
      </trkpt>
      <trkpt lat="43.77678" lon="7.24916">
        <ele>672.91796875</ele>
        <time>2014-01-18T11:07:44Z</time>
      </trkpt>
      <trkpt lat="43.77664" lon="7.24908">
        <ele>669.75354003906</ele>
        <time>2014-01-18T11:07:49Z</time>
      </trkpt>
      <trkpt lat="43.77651" lon="7.24911">
        <ele>669.90112304688</ele>
        <time>2014-01-18T11:07:54Z</time>
      </trkpt>
      <trkpt lat="43.7764" lon="7.24912">
        <ele>669.95782470703</ele>
        <time>2014-01-18T11:07:59Z</time>
      </trkpt>
      <trkpt lat="43.77632" lon="7.2491">
        <ele>668.64300537109</ele>
        <time>2014-01-18T11:08:02Z</time>
      </trkpt>
      <trkpt lat="43.77619" lon="7.24915">
        <ele>668.53173828125</ele>
        <time>2014-01-18T11:08:07Z</time>
      </trkpt>
      <trkpt lat="43.77613" lon="7.24916">
        <ele>668.09191894531</ele>
        <time>2014-01-18T11:08:09Z</time>
      </trkpt>
      <trkpt lat="43.77597" lon="7.24917">
        <ele>667.44213867188</ele>
        <time>2014-01-18T11:08:14Z</time>
      </trkpt>
      <trkpt lat="43.77592" lon="7.24917">
        <ele>667.29711914062</ele>
        <time>2014-01-18T11:08:16Z</time>
      </trkpt>
      <trkpt lat="43.77581" lon="7.24922">
        <ele>667.93237304688</ele>
        <time>2014-01-18T11:08:20Z</time>
      </trkpt>
      <trkpt lat="43.77566" lon="7.24926">
        <ele>668.73913574219</ele>
        <time>2014-01-18T11:08:25Z</time>
      </trkpt>
      <trkpt lat="43.77562" lon="7.2493">
        <ele>669.36572265625</ele>
        <time>2014-01-18T11:08:28Z</time>
      </trkpt>
      <trkpt lat="43.77554" lon="7.24932">
        <ele>669.76055908203</ele>
        <time>2014-01-18T11:08:31Z</time>
      </trkpt>
      <trkpt lat="43.77541" lon="7.24936">
        <ele>670.54162597656</ele>
        <time>2014-01-18T11:08:36Z</time>
      </trkpt>
      <trkpt lat="43.77527" lon="7.24939">
        <ele>670.99896240234</ele>
        <time>2014-01-18T11:08:41Z</time>
      </trkpt>
      <trkpt lat="43.77515" lon="7.24943">
        <ele>671.21911621094</ele>
        <time>2014-01-18T11:08:46Z</time>
      </trkpt>
      <trkpt lat="43.77505" lon="7.24945">
        <ele>671.33502197266</ele>
        <time>2014-01-18T11:08:50Z</time>
      </trkpt>
      <trkpt lat="43.775" lon="7.24946">
        <ele>671.38854980469</ele>
        <time>2014-01-18T11:08:52Z</time>
      </trkpt>
      <trkpt lat="43.77481" lon="7.24949">
        <ele>673.83129882812</ele>
        <time>2014-01-18T11:08:58Z</time>
      </trkpt>
      <trkpt lat="43.77467" lon="7.24953">
        <ele>676.20068359375</ele>
        <time>2014-01-18T11:09:03Z</time>
      </trkpt>
      <trkpt lat="43.77463" lon="7.24953">
        <ele>676.84954833984</ele>
        <time>2014-01-18T11:09:05Z</time>
      </trkpt>
      <trkpt lat="43.77452" lon="7.24955">
        <ele>678.55932617188</ele>
        <time>2014-01-18T11:09:09Z</time>
      </trkpt>
      <trkpt lat="43.77444" lon="7.24953">
        <ele>678.62628173828</ele>
        <time>2014-01-18T11:09:12Z</time>
      </trkpt>
      <trkpt lat="43.77429" lon="7.24952">
        <ele>678.53503417969</ele>
        <time>2014-01-18T11:09:18Z</time>
      </trkpt>
      <trkpt lat="43.77416" lon="7.24955">
        <ele>679.36932373047</ele>
        <time>2014-01-18T11:09:23Z</time>
      </trkpt>
      <trkpt lat="43.77409" lon="7.24957">
        <ele>679.97180175781</ele>
        <time>2014-01-18T11:09:26Z</time>
      </trkpt>
      <trkpt lat="43.774" lon="7.24959">
        <ele>680.69793701172</ele>
        <time>2014-01-18T11:09:30Z</time>
      </trkpt>
      <trkpt lat="43.77398" lon="7.24958">
        <ele>680.54345703125</ele>
        <time>2014-01-18T11:09:31Z</time>
      </trkpt>
      <trkpt lat="43.77383" lon="7.24957">
        <ele>680.30187988281</ele>
        <time>2014-01-18T11:09:37Z</time>
      </trkpt>
      <trkpt lat="43.77374" lon="7.24958">
        <ele>680.69470214844</ele>
        <time>2014-01-18T11:09:41Z</time>
      </trkpt>
      <trkpt lat="43.77364" lon="7.24962">
        <ele>682.17706298828</ele>
        <time>2014-01-18T11:09:46Z</time>
      </trkpt>
      <trkpt lat="43.77353" lon="7.24967">
        <ele>684.29272460938</ele>
        <time>2014-01-18T11:09:51Z</time>
      </trkpt>
      <trkpt lat="43.77342" lon="7.24972">
        <ele>685.94067382812</ele>
        <time>2014-01-18T11:09:56Z</time>
      </trkpt>
      <trkpt lat="43.7733" lon="7.24977">
        <ele>687.86328125</ele>
        <time>2014-01-18T11:10:01Z</time>
      </trkpt>
      <trkpt lat="43.77328" lon="7.24978">
        <ele>688.06921386719</ele>
        <time>2014-01-18T11:10:02Z</time>
      </trkpt>
      <trkpt lat="43.7732" lon="7.24976">
        <ele>687.43408203125</ele>
        <time>2014-01-18T11:10:06Z</time>
      </trkpt>
      <trkpt lat="43.77309" lon="7.24979">
        <ele>688.34387207031</ele>
        <time>2014-01-18T11:10:11Z</time>
      </trkpt>
      <trkpt lat="43.77301" lon="7.24981">
        <ele>689.08935546875</ele>
        <time>2014-01-18T11:10:14Z</time>
      </trkpt>
      <trkpt lat="43.77289" lon="7.24984">
        <ele>690.32470703125</ele>
        <time>2014-01-18T11:10:20Z</time>
      </trkpt>
      <trkpt lat="43.77277" lon="7.24984">
        <ele>690.35827636719</ele>
        <time>2014-01-18T11:10:25Z</time>
      </trkpt>
      <trkpt lat="43.77266" lon="7.24985">
        <ele>690.55053710938</ele>
        <time>2014-01-18T11:10:30Z</time>
      </trkpt>
      <trkpt lat="43.77259" lon="7.24981">
        <ele>689.43817138672</ele>
        <time>2014-01-18T11:10:34Z</time>
      </trkpt>
      <trkpt lat="43.7725" lon="7.24978">
        <ele>688.57299804688</ele>
        <time>2014-01-18T11:10:39Z</time>
      </trkpt>
      <trkpt lat="43.77237" lon="7.24981">
        <ele>689.61669921875</ele>
        <time>2014-01-18T11:10:45Z</time>
      </trkpt>
      <trkpt lat="43.77225" lon="7.24984">
        <ele>690.27587890625</ele>
        <time>2014-01-18T11:10:50Z</time>
      </trkpt>
      <trkpt lat="43.77213" lon="7.24987">
        <ele>691.2646484375</ele>
        <time>2014-01-18T11:10:55Z</time>
      </trkpt>
      <trkpt lat="43.77204" lon="7.2499">
        <ele>692.10235595703</ele>
        <time>2014-01-18T11:10:59Z</time>
      </trkpt>
      <trkpt lat="43.77201" lon="7.24991">
        <ele>692.39074707031</ele>
        <time>2014-01-18T11:11:00Z</time>
      </trkpt>
      <trkpt lat="43.77183" lon="7.24993">
        <ele>692.92633056641</ele>
        <time>2014-01-18T11:11:06Z</time>
      </trkpt>
      <trkpt lat="43.7717" lon="7.24993">
        <ele>692.91259765625</ele>
        <time>2014-01-18T11:11:10Z</time>
      </trkpt>
      <trkpt lat="43.77158" lon="7.24996">
        <ele>693.80523681641</ele>
        <time>2014-01-18T11:11:15Z</time>
      </trkpt>
      <trkpt lat="43.77149" lon="7.24996">
        <ele>693.86016845703</ele>
        <time>2014-01-18T11:11:18Z</time>
      </trkpt>
      <trkpt lat="43.77134" lon="7.24996">
        <ele>693.79150390625</ele>
        <time>2014-01-18T11:11:24Z</time>
      </trkpt>
      <trkpt lat="43.77121" lon="7.24995">
        <ele>693.50311279297</ele>
        <time>2014-01-18T11:11:28Z</time>
      </trkpt>
      <trkpt lat="43.77106" lon="7.24995">
        <ele>693.17761230469</ele>
        <time>2014-01-18T11:11:33Z</time>
      </trkpt>
      <trkpt lat="43.77103" lon="7.24995">
        <ele>693.04272460938</ele>
        <time>2014-01-18T11:11:34Z</time>
      </trkpt>
      <trkpt lat="43.77085" lon="7.24995">
        <ele>691.9267578125</ele>
        <time>2014-01-18T11:11:40Z</time>
      </trkpt>
      <trkpt lat="43.77073" lon="7.2499">
        <ele>690.19732666016</ele>
        <time>2014-01-18T11:11:44Z</time>
      </trkpt>
      <trkpt lat="43.77064" lon="7.24985">
        <ele>688.43780517578</ele>
        <time>2014-01-18T11:11:47Z</time>
      </trkpt>
      <trkpt lat="43.77052" lon="7.24975">
        <ele>685.64001464844</ele>
        <time>2014-01-18T11:11:51Z</time>
      </trkpt>
      <trkpt lat="43.77042" lon="7.24969">
        <ele>684.08142089844</ele>
        <time>2014-01-18T11:11:55Z</time>
      </trkpt>
      <trkpt lat="43.77028" lon="7.24968">
        <ele>683.57159423828</ele>
        <time>2014-01-18T11:12:00Z</time>
      </trkpt>
      <trkpt lat="43.77026" lon="7.24968">
        <ele>683.53302001953</ele>
        <time>2014-01-18T11:12:01Z</time>
      </trkpt>
      <trkpt lat="43.77017" lon="7.24975">
        <ele>684.78430175781</ele>
        <time>2014-01-18T11:12:05Z</time>
      </trkpt>
      <trkpt lat="43.77003" lon="7.24985">
        <ele>685.99847412109</ele>
        <time>2014-01-18T11:12:11Z</time>
      </trkpt>
      <trkpt lat="43.76992" lon="7.24991">
        <ele>687.04931640625</ele>
        <time>2014-01-18T11:12:15Z</time>
      </trkpt>
      <trkpt lat="43.76976" lon="7.24998">
        <ele>687.71301269531</ele>
        <time>2014-01-18T11:12:21Z</time>
      </trkpt>
      <trkpt lat="43.76963" lon="7.25002">
        <ele>687.31762695312</ele>
        <time>2014-01-18T11:12:25Z</time>
      </trkpt>
      <trkpt lat="43.76944" lon="7.2501">
        <ele>686.76904296875</ele>
        <time>2014-01-18T11:12:31Z</time>
      </trkpt>
      <trkpt lat="43.76934" lon="7.25013">
        <ele>686.84136962891</ele>
        <time>2014-01-18T11:12:34Z</time>
      </trkpt>
      <trkpt lat="43.76916" lon="7.25023">
        <ele>687.19592285156</ele>
        <time>2014-01-18T11:12:39Z</time>
      </trkpt>
      <trkpt lat="43.76898" lon="7.25034">
        <ele>687.25457763672</ele>
        <time>2014-01-18T11:12:44Z</time>
      </trkpt>
      <trkpt lat="43.76884" lon="7.25037">
        <ele>686.37420654297</ele>
        <time>2014-01-18T11:12:48Z</time>
      </trkpt>
      <trkpt lat="43.76881" lon="7.25039">
        <ele>686.42059326172</ele>
        <time>2014-01-18T11:12:49Z</time>
      </trkpt>
      <trkpt lat="43.76877" lon="7.25047">
        <ele>687.63940429688</ele>
        <time>2014-01-18T11:12:53Z</time>
      </trkpt>
      <trkpt lat="43.76875" lon="7.25048">
        <ele>687.68914794922</ele>
        <time>2014-01-18T11:12:58Z</time>
      </trkpt>
      <trkpt lat="43.76874" lon="7.25049">
        <ele>687.84020996094</ele>
        <time>2014-01-18T11:13:02Z</time>
      </trkpt>
      <trkpt lat="43.76873" lon="7.25049">
        <ele>687.63079833984</ele>
        <time>2014-01-18T11:13:09Z</time>
      </trkpt>
      <trkpt lat="43.76873" lon="7.25048">
        <ele>687.46771240234</ele>
        <time>2014-01-18T11:13:17Z</time>
      </trkpt>
      <trkpt lat="43.76874" lon="7.25048">
        <ele>687.51232910156</ele>
        <time>2014-01-18T11:13:29Z</time>
      </trkpt>
      <trkpt lat="43.76871" lon="7.25049">
        <ele>687.52606201172</ele>
        <time>2014-01-18T11:13:33Z</time>
      </trkpt>
      <trkpt lat="43.76862" lon="7.25051">
        <ele>687.24285888672</ele>
        <time>2014-01-18T11:13:39Z</time>
      </trkpt>
      <trkpt lat="43.76852" lon="7.25053">
        <ele>686.39453125</ele>
        <time>2014-01-18T11:13:44Z</time>
      </trkpt>
      <trkpt lat="43.7684" lon="7.25056">
        <ele>685.03009033203</ele>
        <time>2014-01-18T11:13:49Z</time>
      </trkpt>
      <trkpt lat="43.76825" lon="7.25055">
        <ele>682.71466064453</ele>
        <time>2014-01-18T11:13:54Z</time>
      </trkpt>
      <trkpt lat="43.76812" lon="7.25047">
        <ele>679.15307617188</ele>
        <time>2014-01-18T11:14:01Z</time>
      </trkpt>
      <trkpt lat="43.76806" lon="7.25042">
        <ele>677.22955322266</ele>
        <time>2014-01-18T11:14:07Z</time>
      </trkpt>
      <trkpt lat="43.76793" lon="7.25035">
        <ele>672.65252685547</ele>
        <time>2014-01-18T11:14:12Z</time>
      </trkpt>
      <trkpt lat="43.76775" lon="7.2504">
        <ele>669.7607421875</ele>
        <time>2014-01-18T11:14:17Z</time>
      </trkpt>
      <trkpt lat="43.76772" lon="7.25042">
        <ele>669.58056640625</ele>
        <time>2014-01-18T11:14:18Z</time>
      </trkpt>
      <trkpt lat="43.76758" lon="7.25047">
        <ele>668.35998535156</ele>
        <time>2014-01-18T11:14:22Z</time>
      </trkpt>
      <trkpt lat="43.76748" lon="7.25051">
        <ele>667.12219238281</ele>
        <time>2014-01-18T11:14:25Z</time>
      </trkpt>
      <trkpt lat="43.76735" lon="7.2506">
        <ele>665.36639404297</ele>
        <time>2014-01-18T11:14:29Z</time>
      </trkpt>
      <trkpt lat="43.7673" lon="7.25064">
        <ele>664.55456542969</ele>
        <time>2014-01-18T11:14:31Z</time>
      </trkpt>
      <trkpt lat="43.76714" lon="7.25059">
        <ele>662.23547363281</ele>
        <time>2014-01-18T11:14:36Z</time>
      </trkpt>
      <trkpt lat="43.76711" lon="7.25058">
        <ele>661.87359619141</ele>
        <time>2014-01-18T11:14:37Z</time>
      </trkpt>
      <trkpt lat="43.76698" lon="7.25058">
        <ele>660.43005371094</ele>
        <time>2014-01-18T11:14:41Z</time>
      </trkpt>
      <trkpt lat="43.76685" lon="7.25051">
        <ele>656.85406494141</ele>
        <time>2014-01-18T11:14:45Z</time>
      </trkpt>
      <trkpt lat="43.76678" lon="7.2506">
        <ele>654.99090576172</ele>
        <time>2014-01-18T11:14:48Z</time>
      </trkpt>
      <trkpt lat="43.7667" lon="7.25079">
        <ele>653.68621826172</ele>
        <time>2014-01-18T11:14:53Z</time>
      </trkpt>
      <trkpt lat="43.76667" lon="7.25088">
        <ele>652.72967529297</ele>
        <time>2014-01-18T11:14:55Z</time>
      </trkpt>
      <trkpt lat="43.76654" lon="7.25097">
        <ele>648.51513671875</ele>
        <time>2014-01-18T11:14:59Z</time>
      </trkpt>
      <trkpt lat="43.76643" lon="7.25099">
        <ele>645.80078125</ele>
        <time>2014-01-18T11:15:02Z</time>
      </trkpt>
      <trkpt lat="43.76629" lon="7.25096">
        <ele>644.15197753906</ele>
        <time>2014-01-18T11:15:06Z</time>
      </trkpt>
      <trkpt lat="43.76609" lon="7.25098">
        <ele>642.08282470703</ele>
        <time>2014-01-18T11:15:12Z</time>
      </trkpt>
      <trkpt lat="43.76601" lon="7.25101">
        <ele>640.15924072266</ele>
        <time>2014-01-18T11:15:15Z</time>
      </trkpt>
      <trkpt lat="43.76595" lon="7.25104">
        <ele>639.15948486328</ele>
        <time>2014-01-18T11:15:17Z</time>
      </trkpt>
      <trkpt lat="43.76583" lon="7.25111">
        <ele>637.79913330078</ele>
        <time>2014-01-18T11:15:21Z</time>
      </trkpt>
      <trkpt lat="43.76565" lon="7.25119">
        <ele>632.65026855469</ele>
        <time>2014-01-18T11:15:26Z</time>
      </trkpt>
      <trkpt lat="43.76562" lon="7.25121">
        <ele>631.77844238281</ele>
        <time>2014-01-18T11:15:27Z</time>
      </trkpt>
      <trkpt lat="43.7654" lon="7.25136">
        <ele>629.80334472656</ele>
        <time>2014-01-18T11:15:33Z</time>
      </trkpt>
      <trkpt lat="43.76526" lon="7.25136">
        <ele>627.24884033203</ele>
        <time>2014-01-18T11:15:37Z</time>
      </trkpt>
      <trkpt lat="43.7651" lon="7.25126">
        <ele>622.05328369141</ele>
        <time>2014-01-18T11:15:42Z</time>
      </trkpt>
      <trkpt lat="43.76495" lon="7.25119">
        <ele>616.4208984375</ele>
        <time>2014-01-18T11:15:47Z</time>
      </trkpt>
      <trkpt lat="43.76479" lon="7.25114">
        <ele>610.71215820312</ele>
        <time>2014-01-18T11:15:52Z</time>
      </trkpt>
      <trkpt lat="43.76476" lon="7.25114">
        <ele>610.02032470703</ele>
        <time>2014-01-18T11:15:53Z</time>
      </trkpt>
      <trkpt lat="43.76465" lon="7.25121">
        <ele>609.91394042969</ele>
        <time>2014-01-18T11:15:57Z</time>
      </trkpt>
      <trkpt lat="43.76454" lon="7.25122">
        <ele>608.32739257812</ele>
        <time>2014-01-18T11:16:00Z</time>
      </trkpt>
      <trkpt lat="43.76444" lon="7.25123">
        <ele>607.29888916016</ele>
        <time>2014-01-18T11:16:03Z</time>
      </trkpt>
      <trkpt lat="43.76433" lon="7.25129">
        <ele>606.50561523438</ele>
        <time>2014-01-18T11:16:07Z</time>
      </trkpt>
      <trkpt lat="43.76423" lon="7.25133">
        <ele>605.02508544922</ele>
        <time>2014-01-18T11:16:11Z</time>
      </trkpt>
      <trkpt lat="43.76421" lon="7.25134">
        <ele>604.84686279297</ele>
        <time>2014-01-18T11:16:12Z</time>
      </trkpt>
      <trkpt lat="43.7641" lon="7.25139">
        <ele>604.24920654297</ele>
        <time>2014-01-18T11:16:16Z</time>
      </trkpt>
      <trkpt lat="43.76396" lon="7.25147">
        <ele>605.23797607422</ele>
        <time>2014-01-18T11:16:21Z</time>
      </trkpt>
      <trkpt lat="43.76383" lon="7.25159">
        <ele>607.15435791016</ele>
        <time>2014-01-18T11:16:25Z</time>
      </trkpt>
      <trkpt lat="43.76372" lon="7.25169">
        <ele>607.92694091797</ele>
        <time>2014-01-18T11:16:29Z</time>
      </trkpt>
      <trkpt lat="43.76362" lon="7.25178">
        <ele>607.52526855469</ele>
        <time>2014-01-18T11:16:33Z</time>
      </trkpt>
      <trkpt lat="43.76354" lon="7.25189">
        <ele>609.08343505859</ele>
        <time>2014-01-18T11:16:37Z</time>
      </trkpt>
      <trkpt lat="43.76345" lon="7.252">
        <ele>611.00537109375</ele>
        <time>2014-01-18T11:16:41Z</time>
      </trkpt>
      <trkpt lat="43.7633" lon="7.25205">
        <ele>611.14202880859</ele>
        <time>2014-01-18T11:16:45Z</time>
      </trkpt>
      <trkpt lat="43.76323" lon="7.25203">
        <ele>609.51470947266</ele>
        <time>2014-01-18T11:16:47Z</time>
      </trkpt>
      <trkpt lat="43.7631" lon="7.25199">
        <ele>606.81890869141</ele>
        <time>2014-01-18T11:16:51Z</time>
      </trkpt>
      <trkpt lat="43.763" lon="7.25203">
        <ele>605.97003173828</ele>
        <time>2014-01-18T11:16:54Z</time>
      </trkpt>
      <trkpt lat="43.76283" lon="7.25207">
        <ele>603.6279296875</ele>
        <time>2014-01-18T11:16:59Z</time>
      </trkpt>
      <trkpt lat="43.76268" lon="7.25207">
        <ele>601.48443603516</ele>
        <time>2014-01-18T11:17:03Z</time>
      </trkpt>
      <trkpt lat="43.76252" lon="7.2521">
        <ele>600.12957763672</ele>
        <time>2014-01-18T11:17:07Z</time>
      </trkpt>
      <trkpt lat="43.76238" lon="7.25214">
        <ele>599.13159179688</ele>
        <time>2014-01-18T11:17:11Z</time>
      </trkpt>
      <trkpt lat="43.76223" lon="7.25214">
        <ele>597.26849365234</ele>
        <time>2014-01-18T11:17:15Z</time>
      </trkpt>
      <trkpt lat="43.76208" lon="7.25218">
        <ele>596.33532714844</ele>
        <time>2014-01-18T11:17:19Z</time>
      </trkpt>
      <trkpt lat="43.76196" lon="7.25225">
        <ele>596.81030273438</ele>
        <time>2014-01-18T11:17:23Z</time>
      </trkpt>
      <trkpt lat="43.76193" lon="7.25227">
        <ele>596.82647705078</ele>
        <time>2014-01-18T11:17:24Z</time>
      </trkpt>
      <trkpt lat="43.76181" lon="7.25229">
        <ele>594.67974853516</ele>
        <time>2014-01-18T11:17:28Z</time>
      </trkpt>
      <trkpt lat="43.7617" lon="7.25241">
        <ele>596.7607421875</ele>
        <time>2014-01-18T11:17:31Z</time>
      </trkpt>
      <trkpt lat="43.76161" lon="7.25247">
        <ele>597.77783203125</ele>
        <time>2014-01-18T11:17:34Z</time>
      </trkpt>
      <trkpt lat="43.76155" lon="7.25249">
        <ele>597.69287109375</ele>
        <time>2014-01-18T11:17:36Z</time>
      </trkpt>
      <trkpt lat="43.76141" lon="7.25258">
        <ele>597.02697753906</ele>
        <time>2014-01-18T11:17:41Z</time>
      </trkpt>
      <trkpt lat="43.76131" lon="7.2526">
        <ele>593.64971923828</ele>
        <time>2014-01-18T11:17:45Z</time>
      </trkpt>
      <trkpt lat="43.7612" lon="7.25271">
        <ele>591.37213134766</ele>
        <time>2014-01-18T11:17:49Z</time>
      </trkpt>
      <trkpt lat="43.76108" lon="7.25277">
        <ele>588.83312988281</ele>
        <time>2014-01-18T11:17:52Z</time>
      </trkpt>
      <trkpt lat="43.76092" lon="7.25291">
        <ele>588.74969482422</ele>
        <time>2014-01-18T11:17:57Z</time>
      </trkpt>
      <trkpt lat="43.76073" lon="7.25297">
        <ele>585.04345703125</ele>
        <time>2014-01-18T11:18:03Z</time>
      </trkpt>
      <trkpt lat="43.76061" lon="7.25302">
        <ele>583.53735351562</ele>
        <time>2014-01-18T11:18:06Z</time>
      </trkpt>
      <trkpt lat="43.76047" lon="7.25309">
        <ele>580.64923095703</ele>
        <time>2014-01-18T11:18:10Z</time>
      </trkpt>
      <trkpt lat="43.76033" lon="7.25317">
        <ele>577.66937255859</ele>
        <time>2014-01-18T11:18:15Z</time>
      </trkpt>
      <trkpt lat="43.76018" lon="7.25317">
        <ele>573.23999023438</ele>
        <time>2014-01-18T11:18:19Z</time>
      </trkpt>
      <trkpt lat="43.76001" lon="7.25327">
        <ele>571.8701171875</ele>
        <time>2014-01-18T11:18:24Z</time>
      </trkpt>
      <trkpt lat="43.75988" lon="7.25334">
        <ele>569.1025390625</ele>
        <time>2014-01-18T11:18:28Z</time>
      </trkpt>
      <trkpt lat="43.75974" lon="7.25346">
        <ele>568.36462402344</ele>
        <time>2014-01-18T11:18:32Z</time>
      </trkpt>
      <trkpt lat="43.75961" lon="7.25354">
        <ele>567.51287841797</ele>
        <time>2014-01-18T11:18:35Z</time>
      </trkpt>
      <trkpt lat="43.75942" lon="7.25367">
        <ele>565.60345458984</ele>
        <time>2014-01-18T11:18:40Z</time>
      </trkpt>
      <trkpt lat="43.75924" lon="7.25379">
        <ele>563.24829101562</ele>
        <time>2014-01-18T11:18:45Z</time>
      </trkpt>
      <trkpt lat="43.7592" lon="7.25382">
        <ele>562.60455322266</ele>
        <time>2014-01-18T11:18:46Z</time>
      </trkpt>
      <trkpt lat="43.75906" lon="7.25396">
        <ele>562.78521728516</ele>
        <time>2014-01-18T11:18:50Z</time>
      </trkpt>
      <trkpt lat="43.75887" lon="7.25407">
        <ele>561.5341796875</ele>
        <time>2014-01-18T11:18:56Z</time>
      </trkpt>
      <trkpt lat="43.7588" lon="7.25415">
        <ele>560.81555175781</ele>
        <time>2014-01-18T11:18:59Z</time>
      </trkpt>
      <trkpt lat="43.75869" lon="7.25427">
        <ele>560.43292236328</ele>
        <time>2014-01-18T11:19:03Z</time>
      </trkpt>
      <trkpt lat="43.75859" lon="7.25435">
        <ele>559.88800048828</ele>
        <time>2014-01-18T11:19:07Z</time>
      </trkpt>
      <trkpt lat="43.75853" lon="7.25435">
        <ele>558.71502685547</ele>
        <time>2014-01-18T11:19:10Z</time>
      </trkpt>
      <trkpt lat="43.75842" lon="7.2544">
        <ele>557.54571533203</ele>
        <time>2014-01-18T11:19:14Z</time>
      </trkpt>
      <trkpt lat="43.75827" lon="7.25446">
        <ele>555.97448730469</ele>
        <time>2014-01-18T11:19:19Z</time>
      </trkpt>
      <trkpt lat="43.75814" lon="7.25455">
        <ele>556.00384521484</ele>
        <time>2014-01-18T11:19:24Z</time>
      </trkpt>
      <trkpt lat="43.75801" lon="7.2546">
        <ele>554.86157226562</ele>
        <time>2014-01-18T11:19:28Z</time>
      </trkpt>
      <trkpt lat="43.7579" lon="7.25468">
        <ele>553.89593505859</ele>
        <time>2014-01-18T11:19:32Z</time>
      </trkpt>
      <trkpt lat="43.75782" lon="7.25475">
        <ele>552.54870605469</ele>
        <time>2014-01-18T11:19:35Z</time>
      </trkpt>
      <trkpt lat="43.75766" lon="7.25491">
        <ele>551.56860351562</ele>
        <time>2014-01-18T11:19:40Z</time>
      </trkpt>
      <trkpt lat="43.75748" lon="7.25505">
        <ele>550.80395507812</ele>
        <time>2014-01-18T11:19:45Z</time>
      </trkpt>
      <trkpt lat="43.75734" lon="7.25508">
        <ele>548.84246826172</ele>
        <time>2014-01-18T11:19:49Z</time>
      </trkpt>
      <trkpt lat="43.75721" lon="7.25515">
        <ele>547.39111328125</ele>
        <time>2014-01-18T11:19:53Z</time>
      </trkpt>
      <trkpt lat="43.75707" lon="7.25523">
        <ele>545.51257324219</ele>
        <time>2014-01-18T11:19:57Z</time>
      </trkpt>
      <trkpt lat="43.75697" lon="7.25528">
        <ele>543.71917724609</ele>
        <time>2014-01-18T11:20:00Z</time>
      </trkpt>
      <trkpt lat="43.75694" lon="7.25528">
        <ele>542.93890380859</ele>
        <time>2014-01-18T11:20:01Z</time>
      </trkpt>
      <trkpt lat="43.75679" lon="7.25533">
        <ele>541.76525878906</ele>
        <time>2014-01-18T11:20:05Z</time>
      </trkpt>
      <trkpt lat="43.75676" lon="7.25536">
        <ele>541.63140869141</ele>
        <time>2014-01-18T11:20:06Z</time>
      </trkpt>
      <trkpt lat="43.75666" lon="7.25545">
        <ele>540.98785400391</ele>
        <time>2014-01-18T11:20:09Z</time>
      </trkpt>
      <trkpt lat="43.75649" lon="7.2555">
        <ele>538.11553955078</ele>
        <time>2014-01-18T11:20:14Z</time>
      </trkpt>
      <trkpt lat="43.75636" lon="7.25553">
        <ele>535.943359375</ele>
        <time>2014-01-18T11:20:19Z</time>
      </trkpt>
      <trkpt lat="43.75624" lon="7.25561">
        <ele>534.25256347656</ele>
        <time>2014-01-18T11:20:23Z</time>
      </trkpt>
      <trkpt lat="43.75611" lon="7.25571">
        <ele>532.09643554688</ele>
        <time>2014-01-18T11:20:27Z</time>
      </trkpt>
      <trkpt lat="43.75608" lon="7.25573">
        <ele>531.84820556641</ele>
        <time>2014-01-18T11:20:28Z</time>
      </trkpt>
      <trkpt lat="43.75596" lon="7.25578">
        <ele>530.33764648438</ele>
        <time>2014-01-18T11:20:32Z</time>
      </trkpt>
      <trkpt lat="43.75583" lon="7.25582">
        <ele>528.78332519531</ele>
        <time>2014-01-18T11:20:36Z</time>
      </trkpt>
      <trkpt lat="43.7557" lon="7.25589">
        <ele>525.71490478516</ele>
        <time>2014-01-18T11:20:40Z</time>
      </trkpt>
      <trkpt lat="43.75556" lon="7.25596">
        <ele>522.15808105469</ele>
        <time>2014-01-18T11:20:45Z</time>
      </trkpt>
      <trkpt lat="43.75551" lon="7.25601">
        <ele>520.43273925781</ele>
        <time>2014-01-18T11:20:47Z</time>
      </trkpt>
      <trkpt lat="43.75538" lon="7.25621">
        <ele>517.20202636719</ele>
        <time>2014-01-18T11:20:52Z</time>
      </trkpt>
      <trkpt lat="43.7553" lon="7.25641">
        <ele>517.59777832031</ele>
        <time>2014-01-18T11:20:57Z</time>
      </trkpt>
      <trkpt lat="43.75528" lon="7.2566">
        <ele>519.2958984375</ele>
        <time>2014-01-18T11:21:01Z</time>
      </trkpt>
      <trkpt lat="43.75529" lon="7.25681">
        <ele>519.11590576172</ele>
        <time>2014-01-18T11:21:05Z</time>
      </trkpt>
      <trkpt lat="43.75526" lon="7.25707">
        <ele>516.31353759766</ele>
        <time>2014-01-18T11:21:10Z</time>
      </trkpt>
      <trkpt lat="43.75523" lon="7.25716">
        <ele>514.63934326172</ele>
        <time>2014-01-18T11:21:12Z</time>
      </trkpt>
      <trkpt lat="43.75508" lon="7.25727">
        <ele>510.22863769531</ele>
        <time>2014-01-18T11:21:17Z</time>
      </trkpt>
      <trkpt lat="43.75495" lon="7.25743">
        <ele>505.87512207031</ele>
        <time>2014-01-18T11:21:22Z</time>
      </trkpt>
      <trkpt lat="43.75492" lon="7.25747">
        <ele>505.12319946289</ele>
        <time>2014-01-18T11:21:23Z</time>
      </trkpt>
      <trkpt lat="43.7549" lon="7.25768">
        <ele>503.54867553711</ele>
        <time>2014-01-18T11:21:27Z</time>
      </trkpt>
      <trkpt lat="43.75486" lon="7.25776">
        <ele>502.60400390625</ele>
        <time>2014-01-18T11:21:29Z</time>
      </trkpt>
      <trkpt lat="43.75478" lon="7.25789">
        <ele>500.92477416992</ele>
        <time>2014-01-18T11:21:32Z</time>
      </trkpt>
      <trkpt lat="43.75462" lon="7.25792">
        <ele>496.75549316406</ele>
        <time>2014-01-18T11:21:37Z</time>
      </trkpt>
      <trkpt lat="43.75454" lon="7.25802">
        <ele>493.23645019531</ele>
        <time>2014-01-18T11:21:41Z</time>
      </trkpt>
      <trkpt lat="43.75443" lon="7.25802">
        <ele>490.05798339844</ele>
        <time>2014-01-18T11:21:45Z</time>
      </trkpt>
      <trkpt lat="43.7543" lon="7.25803">
        <ele>488.58746337891</ele>
        <time>2014-01-18T11:21:49Z</time>
      </trkpt>
      <trkpt lat="43.7541" lon="7.25811">
        <ele>486.34503173828</ele>
        <time>2014-01-18T11:21:56Z</time>
      </trkpt>
      <trkpt lat="43.75407" lon="7.2581">
        <ele>486.1064453125</ele>
        <time>2014-01-18T11:21:57Z</time>
      </trkpt>
      <trkpt lat="43.7539" lon="7.25801">
        <ele>485.0758972168</ele>
        <time>2014-01-18T11:22:03Z</time>
      </trkpt>
      <trkpt lat="43.75388" lon="7.25799">
        <ele>484.85791015625</ele>
        <time>2014-01-18T11:22:04Z</time>
      </trkpt>
      <trkpt lat="43.75375" lon="7.25794">
        <ele>483.49835205078</ele>
        <time>2014-01-18T11:22:09Z</time>
      </trkpt>
      <trkpt lat="43.75367" lon="7.25784">
        <ele>482.63317871094</ele>
        <time>2014-01-18T11:22:14Z</time>
      </trkpt>
      <trkpt lat="43.75359" lon="7.25784">
        <ele>482</ele>
        <time>2014-01-18T11:22:17Z</time>
      </trkpt>
      <trkpt lat="43.75349" lon="7.25786">
        <ele>482</ele>
        <time>2014-01-18T11:22:20Z</time>
      </trkpt>
      <trkpt lat="43.75345" lon="7.25788">
        <ele>482</ele>
        <time>2014-01-18T11:22:21Z</time>
      </trkpt>
      <trkpt lat="43.75335" lon="7.25801">
        <ele>482</ele>
        <time>2014-01-18T11:22:25Z</time>
      </trkpt>
      <trkpt lat="43.75323" lon="7.25818">
        <ele>481.80874633789</ele>
        <time>2014-01-18T11:22:30Z</time>
      </trkpt>
      <trkpt lat="43.7531" lon="7.25823">
        <ele>481.67758178711</ele>
        <time>2014-01-18T11:22:34Z</time>
      </trkpt>
      <trkpt lat="43.75295" lon="7.25834">
        <ele>482</ele>
        <time>2014-01-18T11:22:39Z</time>
      </trkpt>
      <trkpt lat="43.75284" lon="7.25841">
        <ele>482</ele>
        <time>2014-01-18T11:22:43Z</time>
      </trkpt>
      <trkpt lat="43.75271" lon="7.25847">
        <ele>482</ele>
        <time>2014-01-18T11:22:47Z</time>
      </trkpt>
      <trkpt lat="43.75266" lon="7.25847">
        <ele>482</ele>
        <time>2014-01-18T11:22:50Z</time>
      </trkpt>
      <trkpt lat="43.75266" lon="7.25845">
        <ele>482</ele>
        <time>2014-01-18T11:22:56Z</time>
      </trkpt>
      <trkpt lat="43.75267" lon="7.25841">
        <ele>482</ele>
        <time>2014-01-18T11:23:16Z</time>
      </trkpt>
      <trkpt lat="43.75268" lon="7.2584">
        <ele>482</ele>
        <time>2014-01-18T11:23:23Z</time>
      </trkpt>
      <trkpt lat="43.75269" lon="7.2584">
        <ele>482</ele>
        <time>2014-01-18T11:23:32Z</time>
      </trkpt>
      <trkpt lat="43.7527" lon="7.25841">
        <ele>482</ele>
        <time>2014-01-18T11:23:39Z</time>
      </trkpt>
      <trkpt lat="43.75269" lon="7.25841">
        <ele>482</ele>
        <time>2014-01-18T11:23:47Z</time>
      </trkpt>
      <trkpt lat="43.7527" lon="7.25841">
        <ele>482</ele>
        <time>2014-01-18T11:24:03Z</time>
      </trkpt>
      <trkpt lat="43.75271" lon="7.25841">
        <ele>482</ele>
        <time>2014-01-18T11:24:15Z</time>
      </trkpt>
      <trkpt lat="43.75271" lon="7.25842">
        <ele>482</ele>
        <time>2014-01-18T11:24:22Z</time>
      </trkpt>
      <trkpt lat="43.75271" lon="7.25842">
        <ele>482</ele>
        <time>2014-01-18T11:24:30Z</time>
      </trkpt>
      <trkpt lat="43.7527" lon="7.25843">
        <ele>482</ele>
        <time>2014-01-18T11:24:44Z</time>
      </trkpt>
      <trkpt lat="43.7527" lon="7.25844">
        <ele>482</ele>
        <time>2014-01-18T11:24:53Z</time>
      </trkpt>
      <trkpt lat="43.7527" lon="7.25844">
        <ele>482</ele>
        <time>2014-01-18T11:24:59Z</time>
      </trkpt>
      <trkpt lat="43.7527" lon="7.25845">
        <ele>482</ele>
        <time>2014-01-18T11:25:06Z</time>
      </trkpt>
      <trkpt lat="43.75269" lon="7.25845">
        <ele>482</ele>
        <time>2014-01-18T11:25:23Z</time>
      </trkpt>
      <trkpt lat="43.75269" lon="7.25845">
        <ele>482</ele>
        <time>2014-01-18T11:25:30Z</time>
      </trkpt>
      <trkpt lat="43.75268" lon="7.25843">
        <ele>482</ele>
        <time>2014-01-18T11:25:42Z</time>
      </trkpt>
      <trkpt lat="43.75266" lon="7.25843">
        <ele>482</ele>
        <time>2014-01-18T11:25:48Z</time>
      </trkpt>
      <trkpt lat="43.75266" lon="7.25845">
        <ele>482</ele>
        <time>2014-01-18T11:25:53Z</time>
      </trkpt>
      <trkpt lat="43.75263" lon="7.25848">
        <ele>482</ele>
        <time>2014-01-18T11:25:56Z</time>
      </trkpt>
      <trkpt lat="43.75255" lon="7.25855">
        <ele>482</ele>
        <time>2014-01-18T11:26:02Z</time>
      </trkpt>
      <trkpt lat="43.75249" lon="7.25857">
        <ele>482</ele>
        <time>2014-01-18T11:26:05Z</time>
      </trkpt>
      <trkpt lat="43.75235" lon="7.25856">
        <ele>482</ele>
        <time>2014-01-18T11:26:10Z</time>
      </trkpt>
      <trkpt lat="43.75224" lon="7.25856">
        <ele>482</ele>
        <time>2014-01-18T11:26:14Z</time>
      </trkpt>
      <trkpt lat="43.75211" lon="7.25861">
        <ele>481.99279785156</ele>
        <time>2014-01-18T11:26:18Z</time>
      </trkpt>
      <trkpt lat="43.75195" lon="7.25873">
        <ele>481.58596801758</ele>
        <time>2014-01-18T11:26:24Z</time>
      </trkpt>
      <trkpt lat="43.75183" lon="7.25875">
        <ele>481.48297119141</ele>
        <time>2014-01-18T11:26:28Z</time>
      </trkpt>
      <trkpt lat="43.75173" lon="7.25879">
        <ele>481.3645324707</ele>
        <time>2014-01-18T11:26:32Z</time>
      </trkpt>
      <trkpt lat="43.7517" lon="7.2588">
        <ele>481.33020019531</ele>
        <time>2014-01-18T11:26:33Z</time>
      </trkpt>
      <trkpt lat="43.75155" lon="7.25877">
        <ele>481.43490600586</ele>
        <time>2014-01-18T11:26:38Z</time>
      </trkpt>
      <trkpt lat="43.75143" lon="7.2588">
        <ele>481.33020019531</ele>
        <time>2014-01-18T11:26:42Z</time>
      </trkpt>
      <trkpt lat="43.75134" lon="7.25877">
        <ele>481.43661499023</ele>
        <time>2014-01-18T11:26:45Z</time>
      </trkpt>
      <trkpt lat="43.75126" lon="7.25876">
        <ele>481.45379638672</ele>
        <time>2014-01-18T11:26:48Z</time>
      </trkpt>
      <trkpt lat="43.75117" lon="7.25879">
        <ele>481.35250854492</ele>
        <time>2014-01-18T11:26:51Z</time>
      </trkpt>
      <trkpt lat="43.75111" lon="7.25878">
        <ele>481.39715576172</ele>
        <time>2014-01-18T11:26:53Z</time>
      </trkpt>
      <trkpt lat="43.75101" lon="7.25881">
        <ele>481.29586791992</ele>
        <time>2014-01-18T11:26:57Z</time>
      </trkpt>
      <trkpt lat="43.75095" lon="7.25883">
        <ele>481.21517944336</ele>
        <time>2014-01-18T11:26:59Z</time>
      </trkpt>
      <trkpt lat="43.75087" lon="7.25883">
        <ele>481.21173095703</ele>
        <time>2014-01-18T11:27:02Z</time>
      </trkpt>
      <trkpt lat="43.75076" lon="7.25872">
        <ele>481.62371826172</ele>
        <time>2014-01-18T11:27:07Z</time>
      </trkpt>
      <trkpt lat="43.75072" lon="7.25867">
        <ele>481.798828125</ele>
        <time>2014-01-18T11:27:09Z</time>
      </trkpt>
      <trkpt lat="43.7506" lon="7.25865">
        <ele>481.8606262207</ele>
        <time>2014-01-18T11:27:14Z</time>
      </trkpt>
      <trkpt lat="43.75054" lon="7.25865">
        <ele>481.86407470703</ele>
        <time>2014-01-18T11:27:16Z</time>
      </trkpt>
      <trkpt lat="43.75045" lon="7.25863">
        <ele>481.94302368164</ele>
        <time>2014-01-18T11:27:20Z</time>
      </trkpt>
      <trkpt lat="43.7504" lon="7.25863">
        <ele>481.93273925781</ele>
        <time>2014-01-18T11:27:22Z</time>
      </trkpt>
      <trkpt lat="43.75031" lon="7.25861">
        <ele>481.99108886719</ele>
        <time>2014-01-18T11:27:25Z</time>
      </trkpt>
      <trkpt lat="43.75023" lon="7.25863">
        <ele>481.75863647461</ele>
        <time>2014-01-18T11:27:28Z</time>
      </trkpt>
      <trkpt lat="43.7501" lon="7.25858">
        <ele>480.83654785156</ele>
        <time>2014-01-18T11:27:33Z</time>
      </trkpt>
      <trkpt lat="43.75002" lon="7.25854">
        <ele>479.67761230469</ele>
        <time>2014-01-18T11:27:37Z</time>
      </trkpt>
      <trkpt lat="43.74992" lon="7.25854">
        <ele>476.61447143555</ele>
        <time>2014-01-18T11:27:41Z</time>
      </trkpt>
      <trkpt lat="43.74982" lon="7.25857">
        <ele>473.04333496094</ele>
        <time>2014-01-18T11:27:46Z</time>
      </trkpt>
      <trkpt lat="43.7498" lon="7.25858">
        <ele>472.51934814453</ele>
        <time>2014-01-18T11:27:47Z</time>
      </trkpt>
      <trkpt lat="43.74972" lon="7.25854">
        <ele>468.81491088867</ele>
        <time>2014-01-18T11:27:51Z</time>
      </trkpt>
      <trkpt lat="43.74962" lon="7.25842">
        <ele>464.93710327148</ele>
        <time>2014-01-18T11:27:56Z</time>
      </trkpt>
      <trkpt lat="43.74955" lon="7.2584">
        <ele>463.19244384766</ele>
        <time>2014-01-18T11:27:59Z</time>
      </trkpt>
      <trkpt lat="43.74944" lon="7.25838">
        <ele>461</ele>
        <time>2014-01-18T11:28:04Z</time>
      </trkpt>
      <trkpt lat="43.74935" lon="7.25834">
        <ele>461</ele>
        <time>2014-01-18T11:28:08Z</time>
      </trkpt>
      <trkpt lat="43.74924" lon="7.25836">
        <ele>461</ele>
        <time>2014-01-18T11:28:13Z</time>
      </trkpt>
      <trkpt lat="43.74909" lon="7.2584">
        <ele>461</ele>
        <time>2014-01-18T11:28:19Z</time>
      </trkpt>
      <trkpt lat="43.74896" lon="7.25843">
        <ele>461</ele>
        <time>2014-01-18T11:28:24Z</time>
      </trkpt>
      <trkpt lat="43.74891" lon="7.25844">
        <ele>461</ele>
        <time>2014-01-18T11:28:26Z</time>
      </trkpt>
      <trkpt lat="43.74878" lon="7.25842">
        <ele>461</ele>
        <time>2014-01-18T11:28:31Z</time>
      </trkpt>
      <trkpt lat="43.74867" lon="7.25842">
        <ele>461</ele>
        <time>2014-01-18T11:28:35Z</time>
      </trkpt>
      <trkpt lat="43.74861" lon="7.25842">
        <ele>461</ele>
        <time>2014-01-18T11:28:37Z</time>
      </trkpt>
      <trkpt lat="43.74847" lon="7.25842">
        <ele>461</ele>
        <time>2014-01-18T11:28:42Z</time>
      </trkpt>
      <trkpt lat="43.74839" lon="7.25842">
        <ele>461</ele>
        <time>2014-01-18T11:28:45Z</time>
      </trkpt>
      <trkpt lat="43.74825" lon="7.25844">
        <ele>461</ele>
        <time>2014-01-18T11:28:50Z</time>
      </trkpt>
      <trkpt lat="43.7481" lon="7.25842">
        <ele>461</ele>
        <time>2014-01-18T11:28:55Z</time>
      </trkpt>
      <trkpt lat="43.74799" lon="7.25842">
        <ele>459.37301635742</ele>
        <time>2014-01-18T11:28:59Z</time>
      </trkpt>
      <trkpt lat="43.74783" lon="7.25847">
        <ele>455.02209472656</ele>
        <time>2014-01-18T11:29:04Z</time>
      </trkpt>
      <trkpt lat="43.74774" lon="7.25852">
        <ele>451.82217407227</ele>
        <time>2014-01-18T11:29:07Z</time>
      </trkpt>
      <trkpt lat="43.74772" lon="7.25853">
        <ele>451.16625976562</ele>
        <time>2014-01-18T11:29:08Z</time>
      </trkpt>
      <trkpt lat="43.74762" lon="7.25853">
        <ele>448.64990234375</ele>
        <time>2014-01-18T11:29:12Z</time>
      </trkpt>
      <trkpt lat="43.74757" lon="7.25863">
        <ele>446.25527954102</ele>
        <time>2014-01-18T11:29:16Z</time>
      </trkpt>
      <trkpt lat="43.74738" lon="7.25875">
        <ele>442.92388916016</ele>
        <time>2014-01-18T11:29:22Z</time>
      </trkpt>
      <trkpt lat="43.74727" lon="7.25884">
        <ele>441.55758666992</ele>
        <time>2014-01-18T11:29:26Z</time>
      </trkpt>
      <trkpt lat="43.74719" lon="7.25886">
        <ele>441.10702514648</ele>
        <time>2014-01-18T11:29:30Z</time>
      </trkpt>
      <trkpt lat="43.74715" lon="7.25891">
        <ele>440.44430541992</ele>
        <time>2014-01-18T11:29:33Z</time>
      </trkpt>
      <trkpt lat="43.74708" lon="7.25896">
        <ele>439.23211669922</ele>
        <time>2014-01-18T11:29:37Z</time>
      </trkpt>
      <trkpt lat="43.74705" lon="7.25896">
        <ele>439.17218017578</ele>
        <time>2014-01-18T11:29:38Z</time>
      </trkpt>
      <trkpt lat="43.74696" lon="7.25893">
        <ele>439.564453125</ele>
        <time>2014-01-18T11:29:41Z</time>
      </trkpt>
      <trkpt lat="43.74688" lon="7.25897">
        <ele>437.7819519043</ele>
        <time>2014-01-18T11:29:45Z</time>
      </trkpt>
      <trkpt lat="43.7468" lon="7.25899">
        <ele>436.55966186523</ele>
        <time>2014-01-18T11:29:49Z</time>
      </trkpt>
      <trkpt lat="43.74681" lon="7.25888">
        <ele>440.54559326172</ele>
        <time>2014-01-18T11:29:52Z</time>
      </trkpt>
      <trkpt lat="43.74683" lon="7.25878">
        <ele>441.15942382812</ele>
        <time>2014-01-18T11:29:54Z</time>
      </trkpt>
      <trkpt lat="43.74675" lon="7.25867">
        <ele>441.66397094727</ele>
        <time>2014-01-18T11:29:58Z</time>
      </trkpt>
      <trkpt lat="43.74662" lon="7.25856">
        <ele>441.72274780273</ele>
        <time>2014-01-18T11:30:03Z</time>
      </trkpt>
      <trkpt lat="43.74656" lon="7.25848">
        <ele>441.4294128418</ele>
        <time>2014-01-18T11:30:06Z</time>
      </trkpt>
      <trkpt lat="43.74646" lon="7.25851">
        <ele>440.78356933594</ele>
        <time>2014-01-18T11:30:10Z</time>
      </trkpt>
      <trkpt lat="43.74635" lon="7.25857">
        <ele>438.82958984375</ele>
        <time>2014-01-18T11:30:14Z</time>
      </trkpt>
      <trkpt lat="43.74624" lon="7.25859">
        <ele>434.33135986328</ele>
        <time>2014-01-18T11:30:18Z</time>
      </trkpt>
      <trkpt lat="43.74616" lon="7.25867">
        <ele>430.12261962891</ele>
        <time>2014-01-18T11:30:21Z</time>
      </trkpt>
      <trkpt lat="43.74611" lon="7.2587">
        <ele>427.59582519531</ele>
        <time>2014-01-18T11:30:23Z</time>
      </trkpt>
      <trkpt lat="43.74595" lon="7.25874">
        <ele>425.37796020508</ele>
        <time>2014-01-18T11:30:29Z</time>
      </trkpt>
      <trkpt lat="43.74584" lon="7.25873">
        <ele>424.2724609375</ele>
        <time>2014-01-18T11:30:33Z</time>
      </trkpt>
      <trkpt lat="43.74576" lon="7.25872">
        <ele>422.75955200195</ele>
        <time>2014-01-18T11:30:37Z</time>
      </trkpt>
      <trkpt lat="43.74576" lon="7.25871">
        <ele>422.8623046875</ele>
        <time>2014-01-18T11:30:41Z</time>
      </trkpt>
      <trkpt lat="43.74577" lon="7.25869">
        <ele>423.26263427734</ele>
        <time>2014-01-18T11:30:45Z</time>
      </trkpt>
      <trkpt lat="43.74575" lon="7.2585">
        <ele>426.14367675781</ele>
        <time>2014-01-18T11:30:51Z</time>
      </trkpt>
      <trkpt lat="43.74571" lon="7.25838">
        <ele>427.25424194336</ele>
        <time>2014-01-18T11:30:55Z</time>
      </trkpt>
      <trkpt lat="43.74569" lon="7.25825">
        <ele>427.08111572266</ele>
        <time>2014-01-18T11:31:00Z</time>
      </trkpt>
      <trkpt lat="43.74565" lon="7.25818">
        <ele>425.94134521484</ele>
        <time>2014-01-18T11:31:03Z</time>
      </trkpt>
      <trkpt lat="43.74562" lon="7.25805">
        <ele>425.22961425781</ele>
        <time>2014-01-18T11:31:07Z</time>
      </trkpt>
      <trkpt lat="43.74564" lon="7.25793">
        <ele>424.73016357422</ele>
        <time>2014-01-18T11:31:10Z</time>
      </trkpt>
      <trkpt lat="43.74564" lon="7.25787">
        <ele>424.52276611328</ele>
        <time>2014-01-18T11:31:12Z</time>
      </trkpt>
      <trkpt lat="43.74559" lon="7.25774">
        <ele>422.92620849609</ele>
        <time>2014-01-18T11:31:17Z</time>
      </trkpt>
      <trkpt lat="43.74556" lon="7.25767">
        <ele>421.78671264648</ele>
        <time>2014-01-18T11:31:21Z</time>
      </trkpt>
      <trkpt lat="43.7455" lon="7.25757">
        <ele>419.42343139648</ele>
        <time>2014-01-18T11:31:24Z</time>
      </trkpt>
      <trkpt lat="43.74544" lon="7.2574">
        <ele>414.24032592773</ele>
        <time>2014-01-18T11:31:29Z</time>
      </trkpt>
      <trkpt lat="43.74542" lon="7.25736">
        <ele>412.78552246094</ele>
        <time>2014-01-18T11:31:30Z</time>
      </trkpt>
      <trkpt lat="43.74535" lon="7.25719">
        <ele>407.40634155273</ele>
        <time>2014-01-18T11:31:34Z</time>
      </trkpt>
      <trkpt lat="43.74524" lon="7.25711">
        <ele>403.80819702148</ele>
        <time>2014-01-18T11:31:39Z</time>
      </trkpt>
      <trkpt lat="43.74511" lon="7.25707">
        <ele>401.71166992188</ele>
        <time>2014-01-18T11:31:45Z</time>
      </trkpt>
      <trkpt lat="43.745" lon="7.25698">
        <ele>400.10552978516</ele>
        <time>2014-01-18T11:31:50Z</time>
      </trkpt>
      <trkpt lat="43.74491" lon="7.25695">
        <ele>398.66873168945</ele>
        <time>2014-01-18T11:31:53Z</time>
      </trkpt>
      <trkpt lat="43.7449" lon="7.25693">
        <ele>398.5432434082</ele>
        <time>2014-01-18T11:31:56Z</time>
      </trkpt>
      <trkpt lat="43.7449" lon="7.25694">
        <ele>398.60369873047</ele>
        <time>2014-01-18T11:32:03Z</time>
      </trkpt>
      <trkpt lat="43.7449" lon="7.25694">
        <ele>398.55517578125</ele>
        <time>2014-01-18T11:32:12Z</time>
      </trkpt>
      <trkpt lat="43.74488" lon="7.25695">
        <ele>398.23785400391</ele>
        <time>2014-01-18T11:32:14Z</time>
      </trkpt>
      <trkpt lat="43.74479" lon="7.25691">
        <ele>396.96798706055</ele>
        <time>2014-01-18T11:32:19Z</time>
      </trkpt>
      <trkpt lat="43.74471" lon="7.25688">
        <ele>396.10531616211</ele>
        <time>2014-01-18T11:32:24Z</time>
      </trkpt>
      <trkpt lat="43.74459" lon="7.25685">
        <ele>394.62173461914</ele>
        <time>2014-01-18T11:32:28Z</time>
      </trkpt>
      <trkpt lat="43.74456" lon="7.25684">
        <ele>394.20617675781</ele>
        <time>2014-01-18T11:32:29Z</time>
      </trkpt>
      <trkpt lat="43.7444" lon="7.2568">
        <ele>392.24578857422</ele>
        <time>2014-01-18T11:32:34Z</time>
      </trkpt>
      <trkpt lat="43.74428" lon="7.25676">
        <ele>390.73693847656</ele>
        <time>2014-01-18T11:32:38Z</time>
      </trkpt>
      <trkpt lat="43.74417" lon="7.25667">
        <ele>390.01126098633</ele>
        <time>2014-01-18T11:32:42Z</time>
      </trkpt>
      <trkpt lat="43.74405" lon="7.25654">
        <ele>387.58685302734</ele>
        <time>2014-01-18T11:32:47Z</time>
      </trkpt>
      <trkpt lat="43.74402" lon="7.25652">
        <ele>387.15145874023</ele>
        <time>2014-01-18T11:32:48Z</time>
      </trkpt>
      <trkpt lat="43.74395" lon="7.25649">
        <ele>385.73425292969</ele>
        <time>2014-01-18T11:32:51Z</time>
      </trkpt>
      <trkpt lat="43.74388" lon="7.25653">
        <ele>383.80969238281</ele>
        <time>2014-01-18T11:32:53Z</time>
      </trkpt>
      <trkpt lat="43.74384" lon="7.25653">
        <ele>383.18481445312</ele>
        <time>2014-01-18T11:32:54Z</time>
      </trkpt>
      <trkpt lat="43.74366" lon="7.25652">
        <ele>379.91638183594</ele>
        <time>2014-01-18T11:32:59Z</time>
      </trkpt>
      <trkpt lat="43.74354" lon="7.25649">
        <ele>378.21957397461</ele>
        <time>2014-01-18T11:33:03Z</time>
      </trkpt>
      <trkpt lat="43.74345" lon="7.25645">
        <ele>377.2170715332</ele>
        <time>2014-01-18T11:33:06Z</time>
      </trkpt>
      <trkpt lat="43.74334" lon="7.25636">
        <ele>376.43505859375</ele>
        <time>2014-01-18T11:33:10Z</time>
      </trkpt>
      <trkpt lat="43.74332" lon="7.25633">
        <ele>376.70697021484</ele>
        <time>2014-01-18T11:33:11Z</time>
      </trkpt>
      <trkpt lat="43.74321" lon="7.25622">
        <ele>376.42172241211</ele>
        <time>2014-01-18T11:33:14Z</time>
      </trkpt>
      <trkpt lat="43.74306" lon="7.25622">
        <ele>373.83810424805</ele>
        <time>2014-01-18T11:33:19Z</time>
      </trkpt>
      <trkpt lat="43.74292" lon="7.25614">
        <ele>371.91397094727</ele>
        <time>2014-01-18T11:33:25Z</time>
      </trkpt>
      <trkpt lat="43.74285" lon="7.25616">
        <ele>370.16705322266</ele>
        <time>2014-01-18T11:33:29Z</time>
      </trkpt>
      <trkpt lat="43.74273" lon="7.25629">
        <ele>367.28237915039</ele>
        <time>2014-01-18T11:33:35Z</time>
      </trkpt>
      <trkpt lat="43.74267" lon="7.25634">
        <ele>366.03991699219</ele>
        <time>2014-01-18T11:33:38Z</time>
      </trkpt>
      <trkpt lat="43.74253" lon="7.25644">
        <ele>362.88299560547</ele>
        <time>2014-01-18T11:33:45Z</time>
      </trkpt>
      <trkpt lat="43.74243" lon="7.25653">
        <ele>360.02740478516</ele>
        <time>2014-01-18T11:33:49Z</time>
      </trkpt>
      <trkpt lat="43.74239" lon="7.25656">
        <ele>358.97229003906</ele>
        <time>2014-01-18T11:33:51Z</time>
      </trkpt>
      <trkpt lat="43.74223" lon="7.25666">
        <ele>355.1442565918</ele>
        <time>2014-01-18T11:33:57Z</time>
      </trkpt>
      <trkpt lat="43.74213" lon="7.25685">
        <ele>351.83316040039</ele>
        <time>2014-01-18T11:34:02Z</time>
      </trkpt>
      <trkpt lat="43.74211" lon="7.25702">
        <ele>349.73428344727</ele>
        <time>2014-01-18T11:34:07Z</time>
      </trkpt>
      <trkpt lat="43.74204" lon="7.25717">
        <ele>347.47592163086</ele>
        <time>2014-01-18T11:34:11Z</time>
      </trkpt>
      <trkpt lat="43.74201" lon="7.2573">
        <ele>345.63427734375</ele>
        <time>2014-01-18T11:34:15Z</time>
      </trkpt>
      <trkpt lat="43.74198" lon="7.25737">
        <ele>344.24819946289</ele>
        <time>2014-01-18T11:34:18Z</time>
      </trkpt>
      <trkpt lat="43.74192" lon="7.25741">
        <ele>342.81625366211</ele>
        <time>2014-01-18T11:34:22Z</time>
      </trkpt>
      <trkpt lat="43.74189" lon="7.2575">
        <ele>340.95489501953</ele>
        <time>2014-01-18T11:34:26Z</time>
      </trkpt>
      <trkpt lat="43.74194" lon="7.25766">
        <ele>339.67086791992</ele>
        <time>2014-01-18T11:34:30Z</time>
      </trkpt>
      <trkpt lat="43.74198" lon="7.25778">
        <ele>338.68161010742</ele>
        <time>2014-01-18T11:34:33Z</time>
      </trkpt>
      <trkpt lat="43.74205" lon="7.25787">
        <ele>339.0712890625</ele>
        <time>2014-01-18T11:34:36Z</time>
      </trkpt>
      <trkpt lat="43.74215" lon="7.25802">
        <ele>339.25955200195</ele>
        <time>2014-01-18T11:34:42Z</time>
      </trkpt>
      <trkpt lat="43.74225" lon="7.25819">
        <ele>339.14556884766</ele>
        <time>2014-01-18T11:34:48Z</time>
      </trkpt>
      <trkpt lat="43.74232" lon="7.25829">
        <ele>339.64511108398</ele>
        <time>2014-01-18T11:34:52Z</time>
      </trkpt>
      <trkpt lat="43.74246" lon="7.25847">
        <ele>340.63388061523</ele>
        <time>2014-01-18T11:34:58Z</time>
      </trkpt>
      <trkpt lat="43.74255" lon="7.25856">
        <ele>341.41375732422</ele>
        <time>2014-01-18T11:35:02Z</time>
      </trkpt>
      <trkpt lat="43.74269" lon="7.25859">
        <ele>343.02197265625</ele>
        <time>2014-01-18T11:35:06Z</time>
      </trkpt>
      <trkpt lat="43.74285" lon="7.25866">
        <ele>344.61605834961</ele>
        <time>2014-01-18T11:35:11Z</time>
      </trkpt>
      <trkpt lat="43.74294" lon="7.25877">
        <ele>344.81909179688</ele>
        <time>2014-01-18T11:35:15Z</time>
      </trkpt>
      <trkpt lat="43.74298" lon="7.25883">
        <ele>344.68194580078</ele>
        <time>2014-01-18T11:35:17Z</time>
      </trkpt>
      <trkpt lat="43.74301" lon="7.25892">
        <ele>344.16009521484</ele>
        <time>2014-01-18T11:35:22Z</time>
      </trkpt>
      <trkpt lat="43.74301" lon="7.25895">
        <ele>343.88714599609</ele>
        <time>2014-01-18T11:35:27Z</time>
      </trkpt>
      <trkpt lat="43.743" lon="7.25898">
        <ele>343.41851806641</ele>
        <time>2014-01-18T11:35:42Z</time>
      </trkpt>
      <trkpt lat="43.743" lon="7.25901">
        <ele>343.03741455078</ele>
        <time>2014-01-18T11:35:56Z</time>
      </trkpt>
      <trkpt lat="43.743" lon="7.25903">
        <ele>342.83657836914</ele>
        <time>2014-01-18T11:36:30Z</time>
      </trkpt>
      <trkpt lat="43.743" lon="7.25903">
        <ele>342.86233520508</ele>
        <time>2014-01-18T11:36:49Z</time>
      </trkpt>
      <trkpt lat="43.743" lon="7.25901">
        <ele>343.181640625</ele>
        <time>2014-01-18T11:36:56Z</time>
      </trkpt>
      <trkpt lat="43.74301" lon="7.25899">
        <ele>343.34127807617</ele>
        <time>2014-01-18T11:37:06Z</time>
      </trkpt>
      <trkpt lat="43.743" lon="7.259">
        <ele>343.21768188477</ele>
        <time>2014-01-18T11:37:12Z</time>
      </trkpt>
      <trkpt lat="43.743" lon="7.259">
        <ele>343.15072631836</ele>
        <time>2014-01-18T11:37:22Z</time>
      </trkpt>
      <trkpt lat="43.74301" lon="7.259">
        <ele>343.23828125</ele>
        <time>2014-01-18T11:37:39Z</time>
      </trkpt>
      <trkpt lat="43.74298" lon="7.25901">
        <ele>342.96533203125</ele>
        <time>2014-01-18T11:37:56Z</time>
      </trkpt>
      <trkpt lat="43.74296" lon="7.25901">
        <ele>342.6408996582</ele>
        <time>2014-01-18T11:38:04Z</time>
      </trkpt>
      <trkpt lat="43.74294" lon="7.25904">
        <ele>342.11047363281</ele>
        <time>2014-01-18T11:38:09Z</time>
      </trkpt>
      <trkpt lat="43.7429" lon="7.2591">
        <ele>340.97235107422</ele>
        <time>2014-01-18T11:38:14Z</time>
      </trkpt>
      <trkpt lat="43.74289" lon="7.25928">
        <ele>339.07437133789</ele>
        <time>2014-01-18T11:38:18Z</time>
      </trkpt>
      <trkpt lat="43.74291" lon="7.2595">
        <ele>337.58529663086</ele>
        <time>2014-01-18T11:38:23Z</time>
      </trkpt>
      <trkpt lat="43.74295" lon="7.25965">
        <ele>337.30172729492</ele>
        <time>2014-01-18T11:38:27Z</time>
      </trkpt>
      <trkpt lat="43.74299" lon="7.2598">
        <ele>336.67651367188</ele>
        <time>2014-01-18T11:38:31Z</time>
      </trkpt>
      <trkpt lat="43.74304" lon="7.25997">
        <ele>336.00698852539</ele>
        <time>2014-01-18T11:38:36Z</time>
      </trkpt>
      <trkpt lat="43.74308" lon="7.26014">
        <ele>335.40084838867</ele>
        <time>2014-01-18T11:38:40Z</time>
      </trkpt>
      <trkpt lat="43.74313" lon="7.26029">
        <ele>335.22894287109</ele>
        <time>2014-01-18T11:38:44Z</time>
      </trkpt>
      <trkpt lat="43.74318" lon="7.26045">
        <ele>334.89245605469</ele>
        <time>2014-01-18T11:38:49Z</time>
      </trkpt>
      <trkpt lat="43.74323" lon="7.26064">
        <ele>334.45300292969</ele>
        <time>2014-01-18T11:38:54Z</time>
      </trkpt>
      <trkpt lat="43.74329" lon="7.26081">
        <ele>334.31225585938</ele>
        <time>2014-01-18T11:38:59Z</time>
      </trkpt>
      <trkpt lat="43.74334" lon="7.26098">
        <ele>333.44555664062</ele>
        <time>2014-01-18T11:39:04Z</time>
      </trkpt>
      <trkpt lat="43.74339" lon="7.26119">
        <ele>331.87194824219</ele>
        <time>2014-01-18T11:39:09Z</time>
      </trkpt>
      <trkpt lat="43.74343" lon="7.26133">
        <ele>331.11322021484</ele>
        <time>2014-01-18T11:39:13Z</time>
      </trkpt>
      <trkpt lat="43.7435" lon="7.26153">
        <ele>330.21026611328</ele>
        <time>2014-01-18T11:39:19Z</time>
      </trkpt>
      <trkpt lat="43.74357" lon="7.2617">
        <ele>329.48928833008</ele>
        <time>2014-01-18T11:39:24Z</time>
      </trkpt>
      <trkpt lat="43.74362" lon="7.26184">
        <ele>328.84384155273</ele>
        <time>2014-01-18T11:39:28Z</time>
      </trkpt>
      <trkpt lat="43.7437" lon="7.262">
        <ele>328.01184082031</ele>
        <time>2014-01-18T11:39:33Z</time>
      </trkpt>
      <trkpt lat="43.74376" lon="7.26221">
        <ele>326.14071655273</ele>
        <time>2014-01-18T11:39:38Z</time>
      </trkpt>
      <trkpt lat="43.74383" lon="7.26243">
        <ele>324.38290405273</ele>
        <time>2014-01-18T11:39:43Z</time>
      </trkpt>
      <trkpt lat="43.74386" lon="7.26252">
        <ele>323.69900512695</ele>
        <time>2014-01-18T11:39:45Z</time>
      </trkpt>
      <trkpt lat="43.74385" lon="7.26271">
        <ele>322.15405273438</ele>
        <time>2014-01-18T11:39:49Z</time>
      </trkpt>
      <trkpt lat="43.74377" lon="7.26295">
        <ele>320.45510864258</ele>
        <time>2014-01-18T11:39:54Z</time>
      </trkpt>
      <trkpt lat="43.7437" lon="7.2631">
        <ele>319.78018188477</ele>
        <time>2014-01-18T11:39:58Z</time>
      </trkpt>
      <trkpt lat="43.74361" lon="7.26328">
        <ele>319.17901611328</ele>
        <time>2014-01-18T11:40:03Z</time>
      </trkpt>
      <trkpt lat="43.7435" lon="7.26339">
        <ele>319.25778198242</ele>
        <time>2014-01-18T11:40:08Z</time>
      </trkpt>
      <trkpt lat="43.74343" lon="7.26342">
        <ele>319.55151367188</ele>
        <time>2014-01-18T11:40:11Z</time>
      </trkpt>
      <trkpt lat="43.74332" lon="7.2635">
        <ele>319.9753112793</ele>
        <time>2014-01-18T11:40:15Z</time>
      </trkpt>
      <trkpt lat="43.74319" lon="7.26356">
        <ele>319.90267944336</ele>
        <time>2014-01-18T11:40:19Z</time>
      </trkpt>
      <trkpt lat="43.74303" lon="7.26361">
        <ele>319.91070556641</ele>
        <time>2014-01-18T11:40:24Z</time>
      </trkpt>
      <trkpt lat="43.74294" lon="7.26362">
        <ele>319.54873657227</ele>
        <time>2014-01-18T11:40:27Z</time>
      </trkpt>
      <trkpt lat="43.74282" lon="7.26368">
        <ele>319.12463378906</ele>
        <time>2014-01-18T11:40:31Z</time>
      </trkpt>
      <trkpt lat="43.74266" lon="7.26373">
        <ele>318.94134521484</ele>
        <time>2014-01-18T11:40:36Z</time>
      </trkpt>
      <trkpt lat="43.74252" lon="7.26375">
        <ele>318.97534179688</ele>
        <time>2014-01-18T11:40:40Z</time>
      </trkpt>
      <trkpt lat="43.74238" lon="7.26369">
        <ele>317.28036499023</ele>
        <time>2014-01-18T11:40:45Z</time>
      </trkpt>
      <trkpt lat="43.74223" lon="7.26371">
        <ele>315.76287841797</ele>
        <time>2014-01-18T11:40:49Z</time>
      </trkpt>
      <trkpt lat="43.74207" lon="7.26371">
        <ele>313.54360961914</ele>
        <time>2014-01-18T11:40:53Z</time>
      </trkpt>
      <trkpt lat="43.74203" lon="7.2637">
        <ele>312.94964599609</ele>
        <time>2014-01-18T11:40:54Z</time>
      </trkpt>
      <trkpt lat="43.74184" lon="7.26373">
        <ele>310.05499267578</ele>
        <time>2014-01-18T11:40:59Z</time>
      </trkpt>
      <trkpt lat="43.7417" lon="7.26371">
        <ele>307.31869506836</ele>
        <time>2014-01-18T11:41:03Z</time>
      </trkpt>
      <trkpt lat="43.74151" lon="7.26353">
        <ele>303.43450927734</ele>
        <time>2014-01-18T11:41:09Z</time>
      </trkpt>
      <trkpt lat="43.74137" lon="7.26336">
        <ele>301.01263427734</ele>
        <time>2014-01-18T11:41:14Z</time>
      </trkpt>
      <trkpt lat="43.74127" lon="7.26322">
        <ele>298.54159545898</ele>
        <time>2014-01-18T11:41:18Z</time>
      </trkpt>
      <trkpt lat="43.74114" lon="7.26307">
        <ele>291.53103637695</ele>
        <time>2014-01-18T11:41:22Z</time>
      </trkpt>
      <trkpt lat="43.74106" lon="7.26298">
        <ele>285.73254394531</ele>
        <time>2014-01-18T11:41:25Z</time>
      </trkpt>
      <trkpt lat="43.74094" lon="7.26287">
        <ele>279.93698120117</ele>
        <time>2014-01-18T11:41:29Z</time>
      </trkpt>
      <trkpt lat="43.74075" lon="7.26277">
        <ele>275.81338500977</ele>
        <time>2014-01-18T11:41:34Z</time>
      </trkpt>
      <trkpt lat="43.74067" lon="7.26273">
        <ele>274.22607421875</ele>
        <time>2014-01-18T11:41:36Z</time>
      </trkpt>
      <trkpt lat="43.74053" lon="7.2627">
        <ele>271.83599853516</ele>
        <time>2014-01-18T11:41:39Z</time>
      </trkpt>
      <trkpt lat="43.74034" lon="7.26264">
        <ele>268.41479492188</ele>
        <time>2014-01-18T11:41:43Z</time>
      </trkpt>
      <trkpt lat="43.74013" lon="7.26256">
        <ele>263.50003051758</ele>
        <time>2014-01-18T11:41:48Z</time>
      </trkpt>
      <trkpt lat="43.73997" lon="7.26251">
        <ele>259.94995117188</ele>
        <time>2014-01-18T11:41:53Z</time>
      </trkpt>
      <trkpt lat="43.73982" lon="7.26255">
        <ele>259.22723388672</ele>
        <time>2014-01-18T11:41:57Z</time>
      </trkpt>
      <trkpt lat="43.73971" lon="7.26261">
        <ele>259.08541870117</ele>
        <time>2014-01-18T11:42:00Z</time>
      </trkpt>
      <trkpt lat="43.73959" lon="7.26266">
        <ele>258.9814453125</ele>
        <time>2014-01-18T11:42:04Z</time>
      </trkpt>
      <trkpt lat="43.73956" lon="7.26266">
        <ele>258.82348632812</ele>
        <time>2014-01-18T11:42:05Z</time>
      </trkpt>
      <trkpt lat="43.73942" lon="7.26273">
        <ele>259.08923339844</ele>
        <time>2014-01-18T11:42:09Z</time>
      </trkpt>
      <trkpt lat="43.73921" lon="7.26273">
        <ele>257.64041137695</ele>
        <time>2014-01-18T11:42:15Z</time>
      </trkpt>
      <trkpt lat="43.73902" lon="7.26269">
        <ele>255.73840332031</ele>
        <time>2014-01-18T11:42:20Z</time>
      </trkpt>
      <trkpt lat="43.73886" lon="7.26268">
        <ele>254.24098205566</ele>
        <time>2014-01-18T11:42:24Z</time>
      </trkpt>
      <trkpt lat="43.73877" lon="7.26267">
        <ele>252.94609069824</ele>
        <time>2014-01-18T11:42:26Z</time>
      </trkpt>
      <trkpt lat="43.73863" lon="7.26267">
        <ele>251.14765930176</ele>
        <time>2014-01-18T11:42:29Z</time>
      </trkpt>
      <trkpt lat="43.73842" lon="7.26275">
        <ele>249.53904724121</ele>
        <time>2014-01-18T11:42:34Z</time>
      </trkpt>
      <trkpt lat="43.73834" lon="7.26276">
        <ele>248.8995513916</ele>
        <time>2014-01-18T11:42:36Z</time>
      </trkpt>
      <trkpt lat="43.73816" lon="7.26286">
        <ele>249.24862670898</ele>
        <time>2014-01-18T11:42:41Z</time>
      </trkpt>
      <trkpt lat="43.73799" lon="7.26293">
        <ele>248.26100158691</ele>
        <time>2014-01-18T11:42:46Z</time>
      </trkpt>
      <trkpt lat="43.73779" lon="7.26293">
        <ele>243.91918945312</ele>
        <time>2014-01-18T11:42:51Z</time>
      </trkpt>
      <trkpt lat="43.73766" lon="7.26292">
        <ele>242.60406494141</ele>
        <time>2014-01-18T11:42:54Z</time>
      </trkpt>
      <trkpt lat="43.73753" lon="7.2629">
        <ele>241.4951171875</ele>
        <time>2014-01-18T11:42:57Z</time>
      </trkpt>
      <trkpt lat="43.7373" lon="7.26287">
        <ele>237.83178710938</ele>
        <time>2014-01-18T11:43:03Z</time>
      </trkpt>
      <trkpt lat="43.73712" lon="7.26284">
        <ele>233.73591613769</ele>
        <time>2014-01-18T11:43:07Z</time>
      </trkpt>
      <trkpt lat="43.73696" lon="7.26284">
        <ele>230.06781005859</ele>
        <time>2014-01-18T11:43:11Z</time>
      </trkpt>
      <trkpt lat="43.73687" lon="7.26288">
        <ele>229.20364379883</ele>
        <time>2014-01-18T11:43:14Z</time>
      </trkpt>
      <trkpt lat="43.73682" lon="7.26295">
        <ele>229.46627807617</ele>
        <time>2014-01-18T11:43:16Z</time>
      </trkpt>
      <trkpt lat="43.73672" lon="7.26314">
        <ele>230.4719543457</ele>
        <time>2014-01-18T11:43:21Z</time>
      </trkpt>
      <trkpt lat="43.73661" lon="7.26324">
        <ele>230.36672973633</ele>
        <time>2014-01-18T11:43:25Z</time>
      </trkpt>
      <trkpt lat="43.73648" lon="7.26339">
        <ele>230.36926269531</ele>
        <time>2014-01-18T11:43:30Z</time>
      </trkpt>
      <trkpt lat="43.73638" lon="7.26347">
        <ele>229.78771972656</ele>
        <time>2014-01-18T11:43:34Z</time>
      </trkpt>
      <trkpt lat="43.73625" lon="7.26355">
        <ele>228.21337890625</ele>
        <time>2014-01-18T11:43:38Z</time>
      </trkpt>
      <trkpt lat="43.73611" lon="7.26361">
        <ele>226.09930419922</ele>
        <time>2014-01-18T11:43:43Z</time>
      </trkpt>
      <trkpt lat="43.73603" lon="7.26365">
        <ele>225.59428405762</ele>
        <time>2014-01-18T11:43:46Z</time>
      </trkpt>
      <trkpt lat="43.73589" lon="7.26369">
        <ele>224.26490783691</ele>
        <time>2014-01-18T11:43:51Z</time>
      </trkpt>
      <trkpt lat="43.73572" lon="7.26366">
        <ele>222.47911071777</ele>
        <time>2014-01-18T11:43:56Z</time>
      </trkpt>
      <trkpt lat="43.73558" lon="7.26361">
        <ele>221.18186950684</ele>
        <time>2014-01-18T11:44:00Z</time>
      </trkpt>
      <trkpt lat="43.73549" lon="7.26356">
        <ele>219.62542724609</ele>
        <time>2014-01-18T11:44:03Z</time>
      </trkpt>
      <trkpt lat="43.73539" lon="7.26348">
        <ele>217.04364013672</ele>
        <time>2014-01-18T11:44:07Z</time>
      </trkpt>
      <trkpt lat="43.73532" lon="7.26341">
        <ele>214.81016540527</ele>
        <time>2014-01-18T11:44:10Z</time>
      </trkpt>
      <trkpt lat="43.73521" lon="7.26334">
        <ele>212.06776428223</ele>
        <time>2014-01-18T11:44:14Z</time>
      </trkpt>
      <trkpt lat="43.73514" lon="7.26327">
        <ele>210.32186889648</ele>
        <time>2014-01-18T11:44:17Z</time>
      </trkpt>
      <trkpt lat="43.73499" lon="7.26313">
        <ele>206.71168518066</ele>
        <time>2014-01-18T11:44:23Z</time>
      </trkpt>
      <trkpt lat="43.73481" lon="7.26296">
        <ele>203.78379821777</ele>
        <time>2014-01-18T11:44:30Z</time>
      </trkpt>
      <trkpt lat="43.73466" lon="7.26285">
        <ele>202.22625732422</ele>
        <time>2014-01-18T11:44:36Z</time>
      </trkpt>
      <trkpt lat="43.73452" lon="7.26275">
        <ele>201.19813537598</ele>
        <time>2014-01-18T11:44:41Z</time>
      </trkpt>
      <trkpt lat="43.73444" lon="7.2627">
        <ele>200.69848632812</ele>
        <time>2014-01-18T11:44:44Z</time>
      </trkpt>
      <trkpt lat="43.7343" lon="7.26261">
        <ele>200.19305419922</ele>
        <time>2014-01-18T11:44:50Z</time>
      </trkpt>
      <trkpt lat="43.7342" lon="7.26256">
        <ele>200.02415466309</ele>
        <time>2014-01-18T11:44:54Z</time>
      </trkpt>
      <trkpt lat="43.73407" lon="7.26249">
        <ele>199.84980773926</ele>
        <time>2014-01-18T11:44:58Z</time>
      </trkpt>
      <trkpt lat="43.73397" lon="7.26244">
        <ele>198.83753967285</ele>
        <time>2014-01-18T11:45:02Z</time>
      </trkpt>
      <trkpt lat="43.7338" lon="7.26239">
        <ele>197.94868469238</ele>
        <time>2014-01-18T11:45:08Z</time>
      </trkpt>
      <trkpt lat="43.73367" lon="7.26238">
        <ele>198.04751586914</ele>
        <time>2014-01-18T11:45:12Z</time>
      </trkpt>
      <trkpt lat="43.73354" lon="7.26236">
        <ele>197.94418334961</ele>
        <time>2014-01-18T11:45:17Z</time>
      </trkpt>
      <trkpt lat="43.73351" lon="7.26235">
        <ele>197.89611816406</ele>
        <time>2014-01-18T11:45:18Z</time>
      </trkpt>
      <trkpt lat="43.73338" lon="7.26236">
        <ele>198.0403137207</ele>
        <time>2014-01-18T11:45:23Z</time>
      </trkpt>
      <trkpt lat="43.73329" lon="7.26233">
        <ele>197.95384216309</ele>
        <time>2014-01-18T11:45:26Z</time>
      </trkpt>
      <trkpt lat="43.73318" lon="7.26212">
        <ele>194.11299133301</ele>
        <time>2014-01-18T11:45:32Z</time>
      </trkpt>
      <trkpt lat="43.73323" lon="7.26201">
        <ele>189.31768798828</ele>
        <time>2014-01-18T11:45:35Z</time>
      </trkpt>
      <trkpt lat="43.73339" lon="7.26194">
        <ele>185.90405273438</ele>
        <time>2014-01-18T11:45:40Z</time>
      </trkpt>
      <trkpt lat="43.73343" lon="7.26194">
        <ele>185.91435241699</ele>
        <time>2014-01-18T11:45:41Z</time>
      </trkpt>
      <trkpt lat="43.73365" lon="7.26193">
        <ele>185.57444763184</ele>
        <time>2014-01-18T11:45:47Z</time>
      </trkpt>
      <trkpt lat="43.73377" lon="7.26189">
        <ele>184.27250671387</ele>
        <time>2014-01-18T11:45:51Z</time>
      </trkpt>
      <trkpt lat="43.73383" lon="7.26184">
        <ele>183.33126831055</ele>
        <time>2014-01-18T11:45:53Z</time>
      </trkpt>
      <trkpt lat="43.73382" lon="7.26168">
        <ele>180.17344665527</ele>
        <time>2014-01-18T11:45:58Z</time>
      </trkpt>
      <trkpt lat="43.73361" lon="7.26155">
        <ele>177.87335205078</ele>
        <time>2014-01-18T11:46:04Z</time>
      </trkpt>
      <trkpt lat="43.73352" lon="7.26146">
        <ele>176.24255371094</ele>
        <time>2014-01-18T11:46:08Z</time>
      </trkpt>
      <trkpt lat="43.73336" lon="7.2614">
        <ele>175.19543457031</ele>
        <time>2014-01-18T11:46:13Z</time>
      </trkpt>
      <trkpt lat="43.73312" lon="7.26142">
        <ele>175.57308959961</ele>
        <time>2014-01-18T11:46:19Z</time>
      </trkpt>
      <trkpt lat="43.733" lon="7.26145">
        <ele>175.92749023438</ele>
        <time>2014-01-18T11:46:22Z</time>
      </trkpt>
      <trkpt lat="43.73286" lon="7.26152">
        <ele>176.98023986816</ele>
        <time>2014-01-18T11:46:26Z</time>
      </trkpt>
      <trkpt lat="43.73269" lon="7.26162">
        <ele>178.91056823731</ele>
        <time>2014-01-18T11:46:31Z</time>
      </trkpt>
      <trkpt lat="43.73258" lon="7.2616">
        <ele>178.50888061523</ele>
        <time>2014-01-18T11:46:34Z</time>
      </trkpt>
      <trkpt lat="43.73241" lon="7.26147">
        <ele>176.06602478027</ele>
        <time>2014-01-18T11:46:39Z</time>
      </trkpt>
      <trkpt lat="43.73229" lon="7.26128">
        <ele>171.77113342285</ele>
        <time>2014-01-18T11:46:44Z</time>
      </trkpt>
      <trkpt lat="43.73221" lon="7.26112">
        <ele>168.15769958496</ele>
        <time>2014-01-18T11:46:48Z</time>
      </trkpt>
      <trkpt lat="43.73208" lon="7.26103">
        <ele>165.58728027344</ele>
        <time>2014-01-18T11:46:52Z</time>
      </trkpt>
      <trkpt lat="43.73186" lon="7.26101">
        <ele>164.16340637207</ele>
        <time>2014-01-18T11:46:58Z</time>
      </trkpt>
      <trkpt lat="43.73171" lon="7.2611">
        <ele>166.01858520508</ele>
        <time>2014-01-18T11:47:02Z</time>
      </trkpt>
      <trkpt lat="43.73153" lon="7.26122">
        <ele>168.86361694336</ele>
        <time>2014-01-18T11:47:07Z</time>
      </trkpt>
      <trkpt lat="43.73139" lon="7.26125">
        <ele>169.41209411621</ele>
        <time>2014-01-18T11:47:11Z</time>
      </trkpt>
      <trkpt lat="43.73125" lon="7.26125">
        <ele>168.75624084473</ele>
        <time>2014-01-18T11:47:15Z</time>
      </trkpt>
      <trkpt lat="43.73111" lon="7.26125">
        <ele>168.00276184082</ele>
        <time>2014-01-18T11:47:19Z</time>
      </trkpt>
      <trkpt lat="43.73104" lon="7.26124">
        <ele>167.43963623047</ele>
        <time>2014-01-18T11:47:21Z</time>
      </trkpt>
      <trkpt lat="43.7309" lon="7.26126">
        <ele>166.99870300293</ele>
        <time>2014-01-18T11:47:25Z</time>
      </trkpt>
      <trkpt lat="43.7307" lon="7.26126">
        <ele>166.03591918945</ele>
        <time>2014-01-18T11:47:31Z</time>
      </trkpt>
      <trkpt lat="43.73053" lon="7.26131">
        <ele>165.93659973144</ele>
        <time>2014-01-18T11:47:36Z</time>
      </trkpt>
      <trkpt lat="43.7304" lon="7.26131">
        <ele>164.41307067871</ele>
        <time>2014-01-18T11:47:40Z</time>
      </trkpt>
      <trkpt lat="43.73024" lon="7.26133">
        <ele>163.01712036133</ele>
        <time>2014-01-18T11:47:44Z</time>
      </trkpt>
      <trkpt lat="43.73011" lon="7.2613">
        <ele>162.2781829834</ele>
        <time>2014-01-18T11:47:48Z</time>
      </trkpt>
      <trkpt lat="43.72989" lon="7.26113">
        <ele>160.22009277344</ele>
        <time>2014-01-18T11:47:54Z</time>
      </trkpt>
      <trkpt lat="43.72972" lon="7.26101">
        <ele>155.59814453125</ele>
        <time>2014-01-18T11:47:59Z</time>
      </trkpt>
      <trkpt lat="43.72959" lon="7.26093">
        <ele>150.98435974121</ele>
        <time>2014-01-18T11:48:03Z</time>
      </trkpt>
      <trkpt lat="43.72947" lon="7.26086">
        <ele>146.95053100586</ele>
        <time>2014-01-18T11:48:07Z</time>
      </trkpt>
      <trkpt lat="43.72928" lon="7.26077">
        <ele>143.86888122559</ele>
        <time>2014-01-18T11:48:12Z</time>
      </trkpt>
      <trkpt lat="43.72913" lon="7.26078">
        <ele>143.56788635254</ele>
        <time>2014-01-18T11:48:16Z</time>
      </trkpt>
      <trkpt lat="43.72894" lon="7.26077">
        <ele>140.5969543457</ele>
        <time>2014-01-18T11:48:21Z</time>
      </trkpt>
      <trkpt lat="43.72876" lon="7.26078">
        <ele>139.38404846191</ele>
        <time>2014-01-18T11:48:26Z</time>
      </trkpt>
      <trkpt lat="43.72856" lon="7.26083">
        <ele>139.05564880371</ele>
        <time>2014-01-18T11:48:31Z</time>
      </trkpt>
      <trkpt lat="43.72841" lon="7.26085">
        <ele>136.86868286133</ele>
        <time>2014-01-18T11:48:35Z</time>
      </trkpt>
      <trkpt lat="43.72828" lon="7.26089">
        <ele>135.54588317871</ele>
        <time>2014-01-18T11:48:39Z</time>
      </trkpt>
      <trkpt lat="43.72813" lon="7.26091">
        <ele>134.45411682129</ele>
        <time>2014-01-18T11:48:44Z</time>
      </trkpt>
      <trkpt lat="43.72804" lon="7.261">
        <ele>134.95674133301</ele>
        <time>2014-01-18T11:48:48Z</time>
      </trkpt>
      <trkpt lat="43.728" lon="7.26115">
        <ele>135.96377563477</ele>
        <time>2014-01-18T11:48:52Z</time>
      </trkpt>
      <trkpt lat="43.72799" lon="7.26119">
        <ele>135.94660949707</ele>
        <time>2014-01-18T11:48:53Z</time>
      </trkpt>
      <trkpt lat="43.7279" lon="7.26131">
        <ele>133.32019042969</ele>
        <time>2014-01-18T11:48:57Z</time>
      </trkpt>
      <trkpt lat="43.72786" lon="7.26136">
        <ele>132.00869750977</ele>
        <time>2014-01-18T11:48:59Z</time>
      </trkpt>
      <trkpt lat="43.72774" lon="7.2615">
        <ele>129.544921875</ele>
        <time>2014-01-18T11:49:03Z</time>
      </trkpt>
      <trkpt lat="43.72771" lon="7.26154">
        <ele>129.43908691406</ele>
        <time>2014-01-18T11:49:04Z</time>
      </trkpt>
      <trkpt lat="43.72746" lon="7.26166">
        <ele>126.27610778809</ele>
        <time>2014-01-18T11:49:10Z</time>
      </trkpt>
      <trkpt lat="43.72742" lon="7.26168">
        <ele>125.67974853516</ele>
        <time>2014-01-18T11:49:11Z</time>
      </trkpt>
      <trkpt lat="43.72735" lon="7.26171">
        <ele>124.41662597656</ele>
        <time>2014-01-18T11:49:13Z</time>
      </trkpt>
      <trkpt lat="43.7272" lon="7.26179">
        <ele>121.90466308594</ele>
        <time>2014-01-18T11:49:17Z</time>
      </trkpt>
      <trkpt lat="43.72702" lon="7.26191">
        <ele>121.27294921875</ele>
        <time>2014-01-18T11:49:22Z</time>
      </trkpt>
      <trkpt lat="43.72692" lon="7.26196">
        <ele>120.53233337402</ele>
        <time>2014-01-18T11:49:24Z</time>
      </trkpt>
      <trkpt lat="43.72683" lon="7.26203">
        <ele>118.52904510498</ele>
        <time>2014-01-18T11:49:26Z</time>
      </trkpt>
      <trkpt lat="43.72659" lon="7.26207">
        <ele>113.25673675537</ele>
        <time>2014-01-18T11:49:31Z</time>
      </trkpt>
      <trkpt lat="43.72646" lon="7.26213">
        <ele>108.59578704834</ele>
        <time>2014-01-18T11:49:34Z</time>
      </trkpt>
      <trkpt lat="43.72631" lon="7.26226">
        <ele>102.94994354248</ele>
        <time>2014-01-18T11:49:38Z</time>
      </trkpt>
      <trkpt lat="43.72614" lon="7.26235">
        <ele>97.880668640137</ele>
        <time>2014-01-18T11:49:43Z</time>
      </trkpt>
      <trkpt lat="43.72599" lon="7.26243">
        <ele>90.792236328125</ele>
        <time>2014-01-18T11:49:47Z</time>
      </trkpt>
      <trkpt lat="43.72591" lon="7.26248">
        <ele>86.713562011719</ele>
        <time>2014-01-18T11:49:49Z</time>
      </trkpt>
      <trkpt lat="43.72572" lon="7.26256">
        <ele>81.339111328125</ele>
        <time>2014-01-18T11:49:54Z</time>
      </trkpt>
      <trkpt lat="43.72564" lon="7.26258">
        <ele>80.45174407959</ele>
        <time>2014-01-18T11:49:56Z</time>
      </trkpt>
      <trkpt lat="43.72552" lon="7.26263">
        <ele>79.306198120117</ele>
        <time>2014-01-18T11:49:59Z</time>
      </trkpt>
      <trkpt lat="43.72537" lon="7.26271">
        <ele>77.884841918945</ele>
        <time>2014-01-18T11:50:03Z</time>
      </trkpt>
      <trkpt lat="43.72525" lon="7.26281">
        <ele>76.661468505859</ele>
        <time>2014-01-18T11:50:06Z</time>
      </trkpt>
      <trkpt lat="43.72517" lon="7.26287">
        <ele>75.728317260742</ele>
        <time>2014-01-18T11:50:09Z</time>
      </trkpt>
      <trkpt lat="43.72511" lon="7.26291">
        <ele>75.027763366699</ele>
        <time>2014-01-18T11:50:11Z</time>
      </trkpt>
      <trkpt lat="43.72499" lon="7.26295">
        <ele>73.761070251465</ele>
        <time>2014-01-18T11:50:15Z</time>
      </trkpt>
      <trkpt lat="43.72485" lon="7.26294">
        <ele>73.048675537109</ele>
        <time>2014-01-18T11:50:20Z</time>
      </trkpt>
      <trkpt lat="43.72476" lon="7.26291">
        <ele>72.752296447754</ele>
        <time>2014-01-18T11:50:23Z</time>
      </trkpt>
      <trkpt lat="43.7246" lon="7.26296">
        <ele>71.292419433594</ele>
        <time>2014-01-18T11:50:28Z</time>
      </trkpt>
      <trkpt lat="43.72447" lon="7.26302">
        <ele>70.181335449219</ele>
        <time>2014-01-18T11:50:32Z</time>
      </trkpt>
      <trkpt lat="43.72433" lon="7.26307">
        <ele>68.753974914551</ele>
        <time>2014-01-18T11:50:37Z</time>
      </trkpt>
      <trkpt lat="43.72432" lon="7.26308">
        <ele>68.568580627441</ele>
        <time>2014-01-18T11:50:38Z</time>
      </trkpt>
      <trkpt lat="43.7242" lon="7.26312">
        <ele>67.14379119873</ele>
        <time>2014-01-18T11:50:43Z</time>
      </trkpt>
      <trkpt lat="43.72412" lon="7.2632">
        <ele>66.333801269531</ele>
        <time>2014-01-18T11:50:47Z</time>
      </trkpt>
      <trkpt lat="43.72405" lon="7.26333">
        <ele>65.60424041748</ele>
        <time>2014-01-18T11:50:52Z</time>
      </trkpt>
      <trkpt lat="43.72398" lon="7.26346">
        <ele>64.848930358887</ele>
        <time>2014-01-18T11:50:56Z</time>
      </trkpt>
      <trkpt lat="43.72386" lon="7.26346">
        <ele>64.342475891113</ele>
        <time>2014-01-18T11:51:00Z</time>
      </trkpt>
      <trkpt lat="43.72383" lon="7.26346">
        <ele>64.134765625</ele>
        <time>2014-01-18T11:51:01Z</time>
      </trkpt>
      <trkpt lat="43.72371" lon="7.26343">
        <ele>63.341690063477</ele>
        <time>2014-01-18T11:51:05Z</time>
      </trkpt>
      <trkpt lat="43.72355" lon="7.26338">
        <ele>62.225536346436</ele>
        <time>2014-01-18T11:51:10Z</time>
      </trkpt>
      <trkpt lat="43.72342" lon="7.26339">
        <ele>60.864120483398</ele>
        <time>2014-01-18T11:51:14Z</time>
      </trkpt>
      <trkpt lat="43.7233" lon="7.26335">
        <ele>60</ele>
        <time>2014-01-18T11:51:18Z</time>
      </trkpt>
      <trkpt lat="43.72326" lon="7.26334">
        <ele>60</ele>
        <time>2014-01-18T11:51:19Z</time>
      </trkpt>
      <trkpt lat="43.72308" lon="7.26332">
        <ele>60.002689361572</ele>
        <time>2014-01-18T11:51:24Z</time>
      </trkpt>
      <trkpt lat="43.72295" lon="7.26337">
        <ele>60</ele>
        <time>2014-01-18T11:51:28Z</time>
      </trkpt>
      <trkpt lat="43.7228" lon="7.26349">
        <ele>60</ele>
        <time>2014-01-18T11:51:33Z</time>
      </trkpt>
      <trkpt lat="43.72267" lon="7.2635">
        <ele>59.617431640625</ele>
        <time>2014-01-18T11:51:37Z</time>
      </trkpt>
      <trkpt lat="43.72254" lon="7.26353">
        <ele>59.136779785156</ele>
        <time>2014-01-18T11:51:41Z</time>
      </trkpt>
      <trkpt lat="43.72239" lon="7.26356">
        <ele>58.92493057251</ele>
        <time>2014-01-18T11:51:46Z</time>
      </trkpt>
      <trkpt lat="43.72227" lon="7.26359">
        <ele>58.938331604004</ele>
        <time>2014-01-18T11:51:50Z</time>
      </trkpt>
      <trkpt lat="43.72214" lon="7.26355">
        <ele>58.458671569824</ele>
        <time>2014-01-18T11:51:55Z</time>
      </trkpt>
      <trkpt lat="43.72198" lon="7.26347">
        <ele>57.639846801758</ele>
        <time>2014-01-18T11:52:01Z</time>
      </trkpt>
      <trkpt lat="43.72187" lon="7.26345">
        <ele>57.41365814209</ele>
        <time>2014-01-18T11:52:05Z</time>
      </trkpt>
      <trkpt lat="43.72177" lon="7.26343">
        <ele>57.331260681152</ele>
        <time>2014-01-18T11:52:09Z</time>
      </trkpt>
      <trkpt lat="43.72167" lon="7.2634">
        <ele>57.235130310059</ele>
        <time>2014-01-18T11:52:13Z</time>
      </trkpt>
      <trkpt lat="43.72155" lon="7.26338">
        <ele>57.092559814453</ele>
        <time>2014-01-18T11:52:17Z</time>
      </trkpt>
      <trkpt lat="43.72142" lon="7.26333">
        <ele>56.984504699707</ele>
        <time>2014-01-18T11:52:21Z</time>
      </trkpt>
      <trkpt lat="43.72128" lon="7.26327">
        <ele>56.379997253418</ele>
        <time>2014-01-18T11:52:26Z</time>
      </trkpt>
      <trkpt lat="43.72119" lon="7.26325">
        <ele>55.957710266113</ele>
        <time>2014-01-18T11:52:30Z</time>
      </trkpt>
      <trkpt lat="43.72104" lon="7.2632">
        <ele>55.240165710449</ele>
        <time>2014-01-18T11:52:35Z</time>
      </trkpt>
      <trkpt lat="43.72088" lon="7.26319">
        <ele>54.629051208496</ele>
        <time>2014-01-18T11:52:40Z</time>
      </trkpt>
      <trkpt lat="43.72073" lon="7.26316">
        <ele>54.364807128906</ele>
        <time>2014-01-18T11:52:44Z</time>
      </trkpt>
      <trkpt lat="43.72061" lon="7.26311">
        <ele>54.191429138184</ele>
        <time>2014-01-18T11:52:48Z</time>
      </trkpt>
      <trkpt lat="43.7205" lon="7.26309">
        <ele>53.721698760986</ele>
        <time>2014-01-18T11:52:52Z</time>
      </trkpt>
      <trkpt lat="43.72035" lon="7.26305">
        <ele>52.504119873047</ele>
        <time>2014-01-18T11:52:57Z</time>
      </trkpt>
      <trkpt lat="43.72022" lon="7.26298">
        <ele>51.651302337646</ele>
        <time>2014-01-18T11:53:02Z</time>
      </trkpt>
      <trkpt lat="43.72011" lon="7.26295">
        <ele>51.359806060791</ele>
        <time>2014-01-18T11:53:06Z</time>
      </trkpt>
      <trkpt lat="43.71998" lon="7.26289">
        <ele>50.718704223633</ele>
        <time>2014-01-18T11:53:11Z</time>
      </trkpt>
      <trkpt lat="43.71992" lon="7.26281">
        <ele>49.918762207031</ele>
        <time>2014-01-18T11:53:14Z</time>
      </trkpt>
      <trkpt lat="43.71984" lon="7.26279">
        <ele>49.486175537109</ele>
        <time>2014-01-18T11:53:18Z</time>
      </trkpt>
      <trkpt lat="43.7196" lon="7.26279">
        <ele>49.055130004883</ele>
        <time>2014-01-18T11:53:25Z</time>
      </trkpt>
      <trkpt lat="43.71946" lon="7.2628">
        <ele>49.130661010742</ele>
        <time>2014-01-18T11:53:30Z</time>
      </trkpt>
      <trkpt lat="43.71929" lon="7.26279">
        <ele>48.53341293335</ele>
        <time>2014-01-18T11:53:35Z</time>
      </trkpt>
      <trkpt lat="43.71911" lon="7.26283">
        <ele>48.31990814209</ele>
        <time>2014-01-18T11:53:41Z</time>
      </trkpt>
      <trkpt lat="43.71901" lon="7.26287">
        <ele>48.434921264648</ele>
        <time>2014-01-18T11:53:45Z</time>
      </trkpt>
      <trkpt lat="43.71899" lon="7.26289">
        <ele>48.587699890137</ele>
        <time>2014-01-18T11:53:46Z</time>
      </trkpt>
      <trkpt lat="43.71889" lon="7.26289">
        <ele>48.167129516602</ele>
        <time>2014-01-18T11:53:50Z</time>
      </trkpt>
      <trkpt lat="43.71874" lon="7.26293">
        <ele>47.889167785645</ele>
        <time>2014-01-18T11:53:55Z</time>
      </trkpt>
      <trkpt lat="43.71864" lon="7.26298">
        <ele>48.057308197021</ele>
        <time>2014-01-18T11:53:59Z</time>
      </trkpt>
      <trkpt lat="43.71852" lon="7.26307">
        <ele>48.845191955566</ele>
        <time>2014-01-18T11:54:03Z</time>
      </trkpt>
      <trkpt lat="43.71834" lon="7.26315">
        <ele>49.063201904297</ele>
        <time>2014-01-18T11:54:08Z</time>
      </trkpt>
      <trkpt lat="43.71825" lon="7.26311">
        <ele>47.875091552734</ele>
        <time>2014-01-18T11:54:12Z</time>
      </trkpt>
      <trkpt lat="43.71812" lon="7.26312">
        <ele>46.995517730713</ele>
        <time>2014-01-18T11:54:16Z</time>
      </trkpt>
      <trkpt lat="43.71802" lon="7.26312">
        <ele>46.328536987305</ele>
        <time>2014-01-18T11:54:20Z</time>
      </trkpt>
      <trkpt lat="43.71789" lon="7.26308">
        <ele>45.573226928711</ele>
        <time>2014-01-18T11:54:25Z</time>
      </trkpt>
      <trkpt lat="43.71784" lon="7.26305">
        <ele>45.162689208984</ele>
        <time>2014-01-18T11:54:27Z</time>
      </trkpt>
      <trkpt lat="43.7177" lon="7.26293">
        <ele>43.836013793945</ele>
        <time>2014-01-18T11:54:32Z</time>
      </trkpt>
      <trkpt lat="43.71757" lon="7.26281">
        <ele>42.445556640625</ele>
        <time>2014-01-18T11:54:37Z</time>
      </trkpt>
      <trkpt lat="43.71747" lon="7.26272">
        <ele>41.783805847168</ele>
        <time>2014-01-18T11:54:41Z</time>
      </trkpt>
      <trkpt lat="43.71731" lon="7.26263">
        <ele>41.479965209961</ele>
        <time>2014-01-18T11:54:47Z</time>
      </trkpt>
      <trkpt lat="43.71717" lon="7.26257">
        <ele>41.04906463623</ele>
        <time>2014-01-18T11:54:52Z</time>
      </trkpt>
      <trkpt lat="43.71714" lon="7.26255">
        <ele>40.898002624512</ele>
        <time>2014-01-18T11:54:53Z</time>
      </trkpt>
      <trkpt lat="43.71693" lon="7.26245">
        <ele>40</ele>
        <time>2014-01-18T11:55:00Z</time>
      </trkpt>
      <trkpt lat="43.71678" lon="7.26244">
        <ele>40</ele>
        <time>2014-01-18T11:55:06Z</time>
      </trkpt>
      <trkpt lat="43.71664" lon="7.26249">
        <ele>40</ele>
        <time>2014-01-18T11:55:11Z</time>
      </trkpt>
      <trkpt lat="43.7165" lon="7.26259">
        <ele>40</ele>
        <time>2014-01-18T11:55:16Z</time>
      </trkpt>
      <trkpt lat="43.71645" lon="7.26262">
        <ele>40</ele>
        <time>2014-01-18T11:55:18Z</time>
      </trkpt>
      <trkpt lat="43.71627" lon="7.2627">
        <ele>40</ele>
        <time>2014-01-18T11:55:25Z</time>
      </trkpt>
      <trkpt lat="43.71622" lon="7.26272">
        <ele>40</ele>
        <time>2014-01-18T11:55:27Z</time>
      </trkpt>
      <trkpt lat="43.71608" lon="7.26276">
        <ele>40</ele>
        <time>2014-01-18T11:55:33Z</time>
      </trkpt>
      <trkpt lat="43.71603" lon="7.26278">
        <ele>40.024131774902</ele>
        <time>2014-01-18T11:55:36Z</time>
      </trkpt>
      <trkpt lat="43.71599" lon="7.26281">
        <ele>40.125411987305</ele>
        <time>2014-01-18T11:55:40Z</time>
      </trkpt>
      <trkpt lat="43.71594" lon="7.26282">
        <ele>40.147727966309</ele>
        <time>2014-01-18T11:55:44Z</time>
      </trkpt>
      <trkpt lat="43.71591" lon="7.26279">
        <ele>40.060180664062</ele>
        <time>2014-01-18T11:55:50Z</time>
      </trkpt>
      <trkpt lat="43.71587" lon="7.26279">
        <ele>40.041297912598</ele>
        <time>2014-01-18T11:55:57Z</time>
      </trkpt>
      <trkpt lat="43.71585" lon="7.26278">
        <ele>40.005249023438</ele>
        <time>2014-01-18T11:56:06Z</time>
      </trkpt>
      <trkpt lat="43.71585" lon="7.26281">
        <ele>40.111679077148</ele>
        <time>2014-01-18T11:56:18Z</time>
      </trkpt>
      <trkpt lat="43.71585" lon="7.26286">
        <ele>40.29020690918</ele>
        <time>2014-01-18T11:56:24Z</time>
      </trkpt>
      <trkpt lat="43.71588" lon="7.26298">
        <ele>40.726226806641</ele>
        <time>2014-01-18T11:56:28Z</time>
      </trkpt>
      <trkpt lat="43.71589" lon="7.26309">
        <ele>41</ele>
        <time>2014-01-18T11:56:32Z</time>
      </trkpt>
      <trkpt lat="43.71589" lon="7.26329">
        <ele>41</ele>
        <time>2014-01-18T11:56:37Z</time>
      </trkpt>
      <trkpt lat="43.71587" lon="7.26336">
        <ele>41.108100891113</ele>
        <time>2014-01-18T11:56:39Z</time>
      </trkpt>
      <trkpt lat="43.71584" lon="7.2635">
        <ele>41.605918884277</ele>
        <time>2014-01-18T11:56:43Z</time>
      </trkpt>
      <trkpt lat="43.71585" lon="7.26371">
        <ele>42</ele>
        <time>2014-01-18T11:56:49Z</time>
      </trkpt>
      <trkpt lat="43.71584" lon="7.26391">
        <ele>41.937187194824</ele>
        <time>2014-01-18T11:56:54Z</time>
      </trkpt>
      <trkpt lat="43.71586" lon="7.26415">
        <ele>41.145172119141</ele>
        <time>2014-01-18T11:57:01Z</time>
      </trkpt>
      <trkpt lat="43.71588" lon="7.26433">
        <ele>40.576591491699</ele>
        <time>2014-01-18T11:57:06Z</time>
      </trkpt>
      <trkpt lat="43.71588" lon="7.26436">
        <ele>40.459861755371</ele>
        <time>2014-01-18T11:57:07Z</time>
      </trkpt>
      <trkpt lat="43.71587" lon="7.2645">
        <ele>40.093063354492</ele>
        <time>2014-01-18T11:57:11Z</time>
      </trkpt>
      <trkpt lat="43.71587" lon="7.26473">
        <ele>40</ele>
        <time>2014-01-18T11:57:17Z</time>
      </trkpt>
      <trkpt lat="43.71587" lon="7.26495">
        <ele>40</ele>
        <time>2014-01-18T11:57:23Z</time>
      </trkpt>
      <trkpt lat="43.71586" lon="7.26514">
        <ele>40</ele>
        <time>2014-01-18T11:57:28Z</time>
      </trkpt>
      <trkpt lat="43.71586" lon="7.26517">
        <ele>40</ele>
        <time>2014-01-18T11:57:29Z</time>
      </trkpt>
      <trkpt lat="43.71597" lon="7.26523">
        <ele>40</ele>
        <time>2014-01-18T11:57:35Z</time>
      </trkpt>
      <trkpt lat="43.71609" lon="7.26522">
        <ele>40</ele>
        <time>2014-01-18T11:57:40Z</time>
      </trkpt>
      <trkpt lat="43.71621" lon="7.26523">
        <ele>40</ele>
        <time>2014-01-18T11:57:45Z</time>
      </trkpt>
      <trkpt lat="43.71626" lon="7.26522">
        <ele>40</ele>
        <time>2014-01-18T11:57:47Z</time>
      </trkpt>
      <trkpt lat="43.71638" lon="7.26522">
        <ele>40</ele>
        <time>2014-01-18T11:57:52Z</time>
      </trkpt>
      <trkpt lat="43.71649" lon="7.26521">
        <ele>41.015796661377</ele>
        <time>2014-01-18T11:57:57Z</time>
      </trkpt>
      <trkpt lat="43.71661" lon="7.26516">
        <ele>42.004196166992</ele>
        <time>2014-01-18T11:58:02Z</time>
      </trkpt>
      <trkpt lat="43.71661" lon="7.2651">
        <ele>41.907814025879</ele>
        <time>2014-01-18T11:58:04Z</time>
      </trkpt>
      <trkpt lat="43.71663" lon="7.26493">
        <ele>42.14086151123</ele>
        <time>2014-01-18T11:58:10Z</time>
      </trkpt>
      <trkpt lat="43.71663" lon="7.26489">
        <ele>42.491649627686</ele>
        <time>2014-01-18T11:58:16Z</time>
      </trkpt>
      <trkpt lat="43.71662" lon="7.26489">
        <ele>42.409717559814</ele>
        <time>2014-01-18T11:58:27Z</time>
      </trkpt>
      <trkpt lat="43.71661" lon="7.26489">
        <ele>42.320068359375</ele>
        <time>2014-01-18T11:58:36Z</time>
      </trkpt>
      <trkpt lat="43.71661" lon="7.26488">
        <ele>42.353981018066</ele>
        <time>2014-01-18T11:58:42Z</time>
      </trkpt>
      <trkpt lat="43.71663" lon="7.26487">
        <ele>42.663372039795</ele>
        <time>2014-01-18T11:58:48Z</time>
      </trkpt>
      <trkpt lat="43.71663" lon="7.26487">
        <ele>42.631130218506</ele>
        <time>2014-01-18T11:58:53Z</time>
      </trkpt>
    </trkseg>
  </trk>
</gpx>